[[{"header":{"parameterUnit":"m.s-1","parameterCategory":1,"la1":30.6,"la2":28.766,"lo1":-90.7593,"lo2":-88.6598,"dy":0.0162,"dx":0.0183,"nx":116,"ny":114,"refTime":"2024-06-14T00:00:00:Z","depth":0,"parameterNumber":2,"parameterNumberName":"U-component_of_WINDS"},"data":[0.0,0.0,0.0,0.0,0.0,0.0,0.0,0.0,0.0,0.0,0.0,0.0,0.0,0.0,0.0,0.0,0.0,0.0,0.0,0.0,0.0,0.0,0.0,0.0,0.0,0.0,0.0,0.0,0.0,0.0,0.0,0.0,0.0,0.0,0.0,0.0,0.0,0.0,0.0,0.0,0.0,0.0,0.0,0.0,0.0,0.0,0.0,0.0,0.0,0.0,0.0,0.0,0.0,0.0,0.0,0.0,0.0,0.0,0.0,0.0,0.0,0.0,0.0,0.0,0.0,0.0,0.0,0.0,0.0,0.0,0.0,0.0,0.0,0.0,0.0,0.0,0.0,0.0,0.0,0.0,0.0,0.0,0.0,0.0,0.0,0.0,0.0,0.0,0.0,0.0,0.0,0.0,0.0,0.0,0.0,0.0,0.0,0.0,0.0,0.0,0.0,0.0,0.0,0.0,0.0,0.0,0.0,0.0,0.0,0.0,0.0,0.0,0.0,0.0,0.0,0.0,0.0,0.0,0.0,0.0,0.0,0.0,0.0,0.0,0.0,0.0,0.0,0.0,0.0,0.0,0.0,0.0,0.0,0.0,0.0,0.0,0.0,0.0,0.0,0.0,0.0,0.0,0.0,0.0,0.0,0.0,0.0,0.0,0.0,0.0,0.0,0.0,0.0,0.0,0.0,0.0,0.0,0.0,0.0,0.0,0.0,0.0,0.0,0.0,0.0,0.0,0.0,0.0,0.0,0.0,0.0,0.0,0.0,0.0,0.0,0.0,0.0,0.0,0.0,0.0,0.0,0.0,0.0,0.0,0.0,0.0,0.0,0.0,0.0,0.0,0.0,0.0,0.0,0.0,0.0,0.0,0.0,0.0,0.0,0.0,0.0,0.0,0.0,0.0,0.0,0.0,0.0,0.0,0.0,0.0,0.0,0.0,0.0,0.0,0.0,0.0,0.0,0.0,0.0,0.0,0.0,0.0,0.0,0.0,0.0,0.0,0.0,0.0,0.0,0.0,0.0,0.0,0.0,0.0,0.0,0.0,0.0,0.0,0.0,0.0,0.0,0.0,0.0,0.0,0.0,0.0,0.0,0.0,0.0,0.0,0.0,0.0,0.0,0.0,0.0,0.0,0.0,0.0,0.0,0.0,0.0,0.0,0.0,0.0,0.0,0.0,0.0,0.0,0.0,0.0,0.0,0.0,0.0,0.0,0.0,0.0,0.0,0.0,0.0,0.0,0.0,0.0,0.0,0.0,0.0,0.0,0.0,0.0,0.0,0.0,0.0,0.0,0.0,0.0,0.0,0.0,0.0,0.0,0.0,0.0,0.0,0.0,0.0,0.0,0.0,0.0,0.0,0.0,0.0,0.0,0.0,0.0,0.0,0.0,0.0,0.0,0.0,0.0,0.0,0.0,0.0,0.0,0.0,0.0,0.0,0.0,0.0,0.0,0.0,0.0,0.0,0.0,0.0,0.0,0.0,0.0,0.0,0.0,0.0,0.0,0.0,0.0,0.0,0.0,0.0,0.0,0.0,0.0,0.0,0.0,0.0,0.0,0.0,0.0,0.0,0.0,0.0,0.0,0.0,0.0,0.0,0.0,0.0,0.0,0.0,0.0,0.0,0.0,0.0,0.0,0.0,0.0,0.0,0.0,0.0,0.0,0.0,0.0,0.0,0.0,0.0,0.0,0.0,0.0,0.0,0.0,0.0,0.0,0.0,0.0,0.0,0.0,0.0,0.0,0.0,0.0,0.0,0.0,0.0,0.0,0.0,0.0,0.0,0.0,0.0,0.0,0.0,0.0,0.0,0.0,0.0,0.0,0.0,0.0,0.0,0.0,0.0,0.0,0.0,0.0,0.0,0.0,0.0,0.0,0.0,0.0,0.0,0.0,0.0,0.0,0.0,0.0,0.0,0.0,0.0,0.0,0.0,0.0,0.0,0.0,0.0,0.0,0.0,0.0,0.0,0.0,0.0,0.0,0.0,0.0,0.0,0.0,0.0,0.0,0.0,0.0,0.0,0.0,0.0,0.0,0.0,0.0,0.0,0.0,0.0,0.0,0.0,0.0,0.0,0.0,0.0,0.0,0.0,0.0,0.0,0.0,0.0,0.0,0.0,0.0,0.0,0.0,0.0,0.0,0.0,0.0,0.0,0.0,0.0,0.0,0.0,0.0,0.0,0.0,0.0,0.0,0.0,0.0,0.0,0.0,0.0,0.0,0.0,0.0,0.0,0.0,0.0,0.0,0.0,0.0,0.0,0.0,0.0,0.0,0.0,0.0,0.0,0.0,0.0,0.0,0.0,0.0,0.0,0.0,0.0,0.0,0.0,0.0,0.0,0.0,0.0,0.0,0.0,0.0,0.0,0.0,0.0,0.0,0.0,0.0,0.0,0.0,0.0,0.0,0.0,0.0,0.0,0.0,0.0,0.0,0.0,0.0,0.0,0.0,0.0,0.0,0.0,0.0,0.0,0.0,0.0,0.0,0.0,0.0,0.0,0.0,0.0,0.0,0.0,0.0,0.0,0.0,0.0,0.0,0.0,0.0,0.0,0.0,0.0,0.0,0.0,0.0,0.0,0.0,0.0,0.0,0.0,0.0,0.0,0.0,0.0,0.0,0.0,0.0,0.0,0.0,0.0,0.0,0.0,0.0,0.0,0.0,0.0,0.0,0.0,0.0,0.0,0.0,0.0,0.0,0.0,0.0,0.0,0.0,0.0,0.0,0.0,0.0,0.0,0.0,0.0,0.0,0.0,0.0,0.0,0.0,0.0,0.0,0.0,0.0,0.0,0.0,0.0,0.0,0.0,0.0,0.0,0.0,0.0,0.0,0.0,0.0,0.0,0.0,0.0,0.0,0.0,0.0,0.0,0.0,0.0,0.0,0.0,0.0,0.0,0.0,0.0,0.0,0.0,0.0,0.0,0.0,0.0,0.0,0.0,0.0,0.0,0.0,0.0,0.0,0.0,0.0,0.0,0.0,0.0,0.0,0.0,0.0,0.0,0.0,0.0,0.0,0.0,0.0,0.0,0.0,0.0,0.0,0.0,0.0,0.0,0.0,0.0,0.0,0.0,0.0,0.0,0.0,0.0,0.0,0.0,0.0,0.0,0.0,0.0,0.0,0.0,0.0,0.0,0.0,0.0,0.0,0.0,0.0,0.0,0.0,0.0,0.0,0.0,0.0,0.0,0.0,0.0,0.0,0.0,0.0,0.0,0.0,0.0,0.0,0.0,0.0,0.0,0.0,0.0,0.0,0.0,0.0,0.0,0.0,0.0,0.0,0.0,0.0,0.0,0.0,0.0,0.0,0.0,0.0,0.0,0.0,0.0,0.0,0.0,0.0,0.0,0.0,0.0,0.0,0.0,0.0,0.0,0.0,0.0,0.0,0.0,0.0,0.0,0.0,0.0,0.0,0.0,0.0,0.0,0.0,0.0,0.0,0.0,0.0,0.0,0.0,0.0,0.0,0.0,0.0,0.0,0.0,0.0,0.0,0.0,0.0,0.0,0.0,0.0,0.0,0.0,0.0,0.0,0.0,0.0,0.0,0.0,0.0,0.0,0.0,0.0,0.0,0.0,0.0,0.0,0.0,0.0,0.0,0.0,0.0,0.0,0.0,0.0,0.0,0.0,0.0,0.0,0.0,0.0,0.0,0.0,0.0,0.0,0.0,0.0,0.0,0.0,0.0,0.0,0.0,0.0,0.0,0.0,0.0,0.0,0.0,0.0,0.0,0.0,0.0,0.0,0.0,0.0,0.0,0.0,0.0,0.0,0.0,0.0,0.0,0.0,0.0,0.0,0.0,0.0,0.0,0.0,0.0,0.0,0.0,0.0,0.0,0.0,0.0,0.0,0.0,0.0,0.0,0.0,0.0,0.0,0.0,0.0,0.0,0.0,0.0,0.0,0.0,0.0,0.0,0.0,0.0,0.0,0.0,0.0,0.0,0.0,0.0,0.0,0.0,0.0,0.0,0.0,0.0,0.0,0.0,0.0,0.0,0.0,0.0,0.0,0.0,0.0,0.0,0.0,0.0,0.0,0.0,0.0,0.0,0.0,0.0,0.0,0.0,0.0,0.0,0.0,0.0,0.0,0.0,0.0,0.0,0.0,0.0,0.0,0.0,0.0,0.0,0.0,0.0,0.0,0.0,0.0,0.0,0.0,0.0,0.0,0.0,0.0,0.0,0.0,0.0,0.0,0.0,0.0,0.0,0.0,0.0,0.0,0.0,0.0,0.0,0.0,0.0,0.0,0.0,0.0,0.0,0.0,0.0,0.0,0.0,0.0,0.0,0.0,0.0,0.0,0.0,0.0,0.0,0.0,0.0,0.0,0.0,0.0,0.0,0.0,0.0,0.0,0.0,0.0,0.0,0.0,0.0,0.0,0.0,0.0,0.0,0.0,0.0,0.0,0.0,0.0,0.0,0.0,0.0,0.0,0.0,0.0,0.0,0.0,0.0,0.0,0.0,0.0,0.0,0.0,0.0,0.0,0.0,0.0,0.0,0.0,0.0,0.0,0.0,0.0,0.0,0.0,0.0,0.0,0.0,0.0,0.0,0.0,0.0,0.0,0.0,0.0,0.0,0.0,0.0,0.0,0.0,0.0,0.0,0.0,0.0,0.0,0.0,0.0,0.0,0.0,0.0,0.0,0.0,0.0,0.0,0.0,0.0,0.0,0.0,0.0,0.0,0.0,0.0,0.0,0.0,0.0,0.0,0.0,0.0,0.0,0.0,0.0,0.0,0.0,0.0,0.0,0.0,0.0,0.0,0.0,0.0,0.0,0.0,0.0,0.0,0.0,0.0,0.0,0.0,0.0,0.0,0.0,0.0,0.0,0.0,0.0,0.0,0.0,0.0,0.0,0.0,0.0,0.0,0.0,0.0,0.0,0.0,0.0,0.0,0.0,0.0,0.0,0.0,0.0,0.0,0.0,0.0,0.0,0.0,0.0,0.0,0.0,0.0,0.0,0.0,0.0,0.0,0.0,0.0,0.0,0.0,0.0,0.0,0.0,0.0,0.0,0.0,0.0,0.0,0.0,0.0,0.0,0.0,0.0,0.0,0.0,0.0,0.0,0.0,0.0,0.0,0.0,0.0,0.0,0.0,0.0,0.0,0.0,0.0,0.0,0.0,0.0,0.0,0.0,0.0,0.0,0.0,0.0,0.0,0.0,0.0,0.0,0.0,0.0,0.0,0.0,0.0,0.0,0.0,0.0,0.0,0.0,0.0,0.0,0.0,0.0,0.0,0.0,0.0,0.0,0.0,0.0,0.0,0.0,0.0,0.0,0.0,0.0,0.0,0.0,0.0,0.0,0.0,0.0,0.0,0.0,0.0,0.0,0.0,0.0,0.0,0.0,0.0,0.0,0.0,0.0,0.0,0.0,0.0,0.0,0.0,0.0,0.0,0.0,0.0,0.0,0.0,0.0,0.0,0.0,0.0,0.0,0.0,0.0,0.0,0.0,0.0,0.0,0.0,0.0,0.0,0.0,0.0,0.0,0.0,0.0,0.0,0.0,0.0,0.0,0.0,0.0,0.0,0.0,0.0,0.0,0.0,0.0,0.0,0.0,0.0,0.0,0.0,0.0,0.0,0.0,0.0,0.0,0.0,0.0,0.0,0.0,0.0,0.0,0.0,0.0,0.0,0.0,0.0,0.0,0.0,0.0,0.0,0.0,0.0,0.0,0.0,0.0,0.0,0.0,0.0,0.0,0.0,0.0,0.0,0.0,0.0,0.0,0.0,0.0,0.0,0.0,0.0,0.0,0.0,0.0,0.0,0.0,0.0,0.0,0.0,0.0,0.0,0.0,0.0,0.0,0.0,0.0,0.0,0.0,0.0,0.0,0.0,0.0,0.0,0.0,0.0,0.0,0.0,0.0,0.0,0.0,0.0,0.0,0.0,0.0,0.0,0.0,0.0,0.0,0.0,0.0,0.0,0.0,0.0,0.0,0.0,0.0,0.0,0.0,0.0,0.0,0.0,0.0,0.0,0.0,0.0,0.0,0.0,0.0,0.0,0.0,0.0,0.0,0.0,0.0,0.0,0.0,0.0,0.0,0.0,0.0,0.0,0.0,0.0,0.0,0.0,0.0,0.0,0.0,0.0,1.8285,1.8312,0.0,0.0,0.0,0.0,0.0,0.0,0.0,0.0,0.0,0.0,0.0,0.0,0.0,0.0,0.0,0.0,0.0,0.0,0.0,0.0,0.0,0.0,0.0,0.5297,0.5434,0.5434,0.5434,0.5517,0.5716,0.0,0.0,0.0,0.0,0.0,0.5726,0.5726,0.5726,0.5726,0.5726,0.5818,0.6016,0.6176,0.6112,0.587,0.0,0.0,0.0,0.0,0.0,0.0,0.0,0.0,0.0,0.0,0.0,0.0,0.0,0.0,0.0,0.0,0.0,0.0,0.0,0.0,0.0,0.0,0.0,0.0,0.0,0.0,0.0,0.0,0.0,0.0,0.0,0.0,0.0,0.0,0.0,0.0,0.0,0.0,0.0,0.0,0.0,0.0,0.0,0.0,0.0,0.0,0.0,0.0,0.0,0.0,0.0,0.0,0.0,0.0,0.0,0.0,0.0,0.0,0.0,0.0,0.0,0.0,0.0,0.0,0.0,0.0,0.0,0.0,0.0,0.0,1.8943,1.9051,0.0,0.0,0.0,0.0,0.0,0.0,0.0,0.0,0.0,0.0,0.0,0.0,0.0,0.0,0.0,0.0,0.0,0.0,0.0,0.0,0.0,0.503,0.503,0.545,0.5759,0.5815,0.5867,0.6069,0.6477,0.5764,0.0,0.0,0.0,0.606,0.639,0.64,0.64,0.64,0.6467,0.6729,0.7163,0.744,0.7441,0.7195,0.6952,0.0,0.0,0.0,0.0,0.0,0.0,0.0,0.0,0.0,0.0,0.0,0.0,0.0,0.0,0.0,0.0,0.0,0.0,0.0,0.0,0.0,0.0,0.0,0.0,0.0,0.0,0.0,0.0,0.0,0.0,0.0,0.0,0.0,0.0,0.0,0.0,0.0,0.0,0.0,0.0,0.0,0.0,0.0,0.0,0.0,0.0,0.0,0.0,0.0,0.0,0.0,0.0,0.0,0.0,0.0,0.0,0.0,0.0,0.0,0.0,0.0,0.0,0.0,1.8057,1.8092,1.8175,1.8834,1.9544,2.0209,1.9592,1.9899,2.073,1.9571,0.0,0.0,0.0,0.0,0.0,0.0,0.0,0.0,0.0,0.0,0.0,0.0,0.0,0.0,0.0,0.0,0.0,0.0,0.0,0.475,0.475,0.5172,0.5576,0.5862,0.6151,0.6485,0.6899,0.6487,0.0,0.0,0.6351,0.6342,0.64,0.64,0.64,0.64,0.6751,0.721,0.7778,0.7834,0.8335,0.9169,0.7946,0.7563,0.7822,0.0,0.0,0.0,0.0,0.0,0.0,0.0,0.0,0.0,0.0,0.0,0.0,0.0,0.0,0.0,0.0,0.0,0.0,0.0,0.0,0.0,0.0,0.0,0.0,0.0,0.0,0.0,0.0,0.0,0.0,0.0,0.0,0.0,0.0,0.0,0.0,0.0,0.0,0.0,0.0,0.0,1.3684,1.4451,0.0,0.0,0.0,0.0,0.0,0.0,0.0,0.0,0.0,0.0,0.0,0.0,0.0,1.6804,1.7765,1.7774,1.8331,1.9444,1.9444,1.9626,1.9958,2.0076,2.0526,2.1206,2.1109,0.0,2.194,2.0465,0.0,0.0,0.0,0.0,0.0,0.0,0.0,0.0,0.0,0.0,0.0,0.0,0.0,0.0,0.0,0.0,0.0,0.0,0.0,0.0,0.0,0.5235,0.5887,0.6256,0.6496,0.7023,0.7957,0.6935,0.6644,0.7436,0.6816,0.6561,0.6785,0.6794,0.7018,0.7467,0.8061,0.8632,0.9203,0.9389,1.004,1.1037,1.061,1.0113,0.9591,0.9706,0.0,0.0,0.0,0.0,0.0,0.0,0.0,0.0,0.0,0.0,0.0,0.0,0.0,0.0,0.0,0.0,0.0,0.0,0.0,0.0,0.0,0.0,0.0,0.0,0.0,0.0,0.0,0.0,0.0,0.0,0.0,0.0,0.0,0.0,0.0,0.0,0.0,0.0,0.0,1.3493,1.4886,1.4804,1.5695,1.6308,0.0,0.0,0.0,0.0,0.0,0.0,0.0,0.0,0.0,1.6224,1.724,1.8038,1.857,1.9256,1.9997,2.0821,2.0438,2.0405,2.0685,2.0543,2.0723,2.1197,2.169,2.2063,2.222,2.1217,2.0523,1.9971,0.0,0.0,0.0,0.0,1.8119,1.835,0.0,0.0,0.0,0.0,0.0,0.0,0.0,0.0,0.0,0.0,0.0,0.0,0.4333,0.523,0.6049,0.6559,0.6845,0.751,0.8719,0.7501,0.7203,0.8252,0.7243,0.6841,0.7244,0.7487,0.8002,0.881,0.9486,1.0068,1.0573,1.0921,1.1528,1.2347,1.2968,1.2487,1.1252,1.1591,1.0954,0.0,0.0,0.0,0.0,0.0,0.0,0.0,0.0,0.0,0.0,0.0,0.0,0.0,0.0,0.0,0.0,0.0,0.0,0.0,0.0,0.0,0.0,0.0,0.0,0.0,0.0,0.0,0.0,0.0,0.0,0.0,0.0,0.0,0.0,0.0,0.0,0.0,0.0,1.4886,1.5852,1.5351,1.6435,1.7038,0.0,0.0,0.0,0.0,0.0,0.0,1.6635,1.7115,1.7266,1.7022,1.8376,1.9249,1.9564,2.0454,2.1167,2.1704,2.1316,2.1165,2.1237,2.1374,2.1616,2.1914,2.2452,2.2827,2.2946,2.1789,2.0885,2.0133,1.93,1.886,1.8779,1.9151,1.9256,1.9316,0.0,0.0,0.0,0.0,0.0,0.0,0.0,0.0,0.0,0.0,0.0,0.4596,0.4333,0.4976,0.5748,0.6534,0.7185,0.792,0.0,0.8416,0.8224,0.8305,0.7511,0.7257,0.7666,0.8545,0.9389,1.0193,1.0685,1.1125,1.1538,1.1946,1.2321,1.2727,1.4094,1.3738,1.2149,1.2286,1.1445,0.9951,0.0,0.0,0.0,0.0,0.0,0.0,0.0,0.0,0.0,0.0,0.0,0.0,0.0,0.0,0.0,0.0,0.0,0.0,0.0,0.0,0.0,0.0,0.0,0.0,0.0,0.0,0.0,0.0,0.0,0.0,0.0,0.0,0.0,0.0,0.0,0.0,0.0,0.0,0.0,1.6614,1.7788,0.0,0.0,0.0,0.0,1.7083,1.711,1.7416,1.8051,1.813,1.839,1.894,1.9051,1.9656,2.08,2.087,2.1167,2.1704,2.2123,2.2151,2.1905,2.3157,2.3948,2.4302,2.39,2.4229,2.4836,2.2142,2.0846,2.051,1.989,1.9648,1.9738,2.0582,2.0767,2.0698,0.0,0.0,0.0,0.0,0.0,0.5098,0.5098,0.5098,0.5005,0.4731,0.4696,0.4666,0.4569,0.5174,0.5882,0.6597,0.7281,0.7935,0.8571,0.8294,0.805,0.7914,0.7639,0.7841,0.8586,0.8885,0.9593,1.0747,1.1183,1.1769,1.2506,1.2645,1.3258,1.4276,1.4997,1.487,1.4114,1.3949,1.318,1.1978,1.1014,1.0114,0.0,0.0,0.0,0.0,0.0,0.0,0.0,0.0,0.0,0.0,0.0,0.0,0.0,0.0,0.0,0.0,0.0,0.0,0.0,0.0,0.0,0.0,0.0,0.0,0.0,0.0,0.0,0.0,0.0,0.0,0.0,0.0,0.0,0.0,0.0,0.0,0.0,1.7399,1.784,0.0,1.7838,1.7369,1.7437,1.8257,1.8369,1.8537,1.8768,1.9195,1.9527,1.9746,2.0503,2.1107,2.1534,2.2272,2.2912,2.3432,2.2691,2.2929,2.4001,2.3625,2.4347,2.587,2.505,2.4882,2.5047,2.3135,2.1987,2.1363,2.0628,2.0767,2.1375,2.1435,2.141,2.138,0.0,0.0,0.0,0.0,0.5098,0.5098,0.5098,0.5098,0.5005,0.4731,0.501,0.5139,0.4865,0.5551,0.6276,0.6848,0.7428,0.801,0.8566,0.8267,0.7957,0.7709,0.7871,0.8397,0.9314,0.9732,1.0464,1.1503,1.1929,1.2542,1.3308,1.3442,1.4078,1.5119,1.5506,1.563,1.5525,1.4897,1.4071,1.307,1.1926,1.0967,1.0136,0.0,0.0,0.0,0.0,0.0,0.0,0.0,0.0,0.0,0.0,0.0,0.0,0.0,0.0,0.0,0.0,0.0,0.0,0.0,0.0,0.0,0.0,0.0,0.0,0.0,0.0,0.0,0.0,0.0,0.0,0.0,0.0,0.0,0.0,1.7745,1.8544,1.8087,1.8319,1.8517,1.8525,1.8273,1.8365,1.8991,1.9453,1.9719,1.9719,2.0303,2.074,2.0975,2.1749,2.2276,2.2468,2.3398,2.3964,2.4122,2.3665,2.4057,2.5179,2.464,2.5228,2.6666,2.5998,2.5719,2.5586,2.4087,2.329,2.2881,2.1548,2.156,2.2288,2.2109,2.2034,2.2064,0.0,0.0,0.0,0.5108,0.5117,0.5122,0.5112,0.5122,0.5039,0.4773,0.5663,0.6023,0.5259,0.6106,0.6903,0.7293,0.7706,0.8169,0.872,0.8406,0.8061,0.7739,0.8231,0.894,0.9843,1.1143,1.2033,1.2526,1.2995,1.3467,1.3934,1.4334,1.4729,1.5142,1.5602,1.5969,1.6183,1.4993,1.3976,1.3059,1.2326,1.1543,1.0837,0.0,0.0,0.0,0.0,0.0,0.0,0.0,0.0,0.0,0.0,0.0,0.0,0.0,0.0,0.0,0.0,0.0,0.0,0.0,0.0,0.0,0.0,0.0,0.0,0.0,0.0,0.0,0.0,0.0,0.0,0.0,0.0,0.0,1.772,1.8311,1.8747,1.8762,1.9312,1.9296,1.8215,1.9224,1.9724,1.9216,2.0275,2.0975,2.0989,2.1504,2.2093,2.2763,2.2786,2.3068,2.367,2.4198,2.4193,2.37,2.5047,2.5533,2.5288,2.6263,2.67,2.67,2.67,2.67,2.6565,2.4913,2.4621,2.4952,2.2639,2.1989,2.2378,2.2628,2.2718,2.2808,0.0,0.0,0.5387,0.5387,0.5558,0.5613,0.5416,0.5679,0.58,0.5532,0.6257,0.6778,0.6706,0.7222,0.7695,0.8,0.8478,0.8496,0.7832,0.8042,0.8198,0.821,0.8678,0.9659,1.1222,1.1612,1.2205,1.3004,1.348,1.3926,1.4342,1.4752,1.518,1.561,1.5741,1.5668,1.5389,1.4754,1.4177,1.3598,1.2726,1.1998,1.1383,0.0,0.0,0.0,0.0,0.0,0.0,0.0,0.0,0.0,0.0,0.0,0.0,0.0,0.0,0.0,0.0,0.0,0.0,0.0,0.0,0.0,0.0,0.0,0.0,0.0,0.0,0.0,0.0,0.0,0.0,0.0,1.7886,1.8424,1.8424,1.9001,1.9609,2.0084,1.9963,2.0069,2.0635,2.0642,2.0737,2.0963,2.174,2.2421,2.2898,2.3481,2.4117,2.4777,2.4804,2.4873,2.5061,2.563,2.5778,2.5492,2.5631,2.5908,2.6298,2.6573,2.67,2.67,2.67,2.67,2.6615,2.5424,2.4898,2.4685,2.3072,2.2752,2.3251,2.3336,2.3351,2.3381,0.0,0.5666,0.5666,0.5666,0.5703,0.568,0.5526,0.5797,0.6025,0.601,0.6883,0.7518,0.7554,0.8052,0.8465,0.8625,0.9126,0.8945,0.7811,0.7738,0.8009,0.8629,0.9314,1.0347,1.177,1.219,1.2649,1.3198,1.3673,1.4108,1.4509,1.52,1.5753,1.6189,1.6465,1.6193,1.5492,1.5083,1.4526,1.3827,1.2883,1.2195,1.1708,1.1401,1.1092,1.0849,1.088,1.1298,1.1883,1.2124,0.0,0.0,0.0,0.0,0.0,0.0,0.0,0.0,0.0,0.0,0.0,0.0,0.0,0.0,0.0,0.0,0.0,0.0,0.0,0.0,0.0,0.0,0.0,0.0,1.8918,1.9531,1.9531,1.9869,2.0363,2.1042,2.0835,2.0931,2.1632,2.1931,2.2195,2.251,2.3386,2.4083,2.4473,2.4835,2.5199,2.5588,2.5603,2.5713,2.5975,2.6561,2.6963,2.7246,2.6909,2.7159,2.7943,2.752,2.7266,2.7139,2.6826,2.67,2.6641,2.5863,2.5294,2.4786,0.0,0.0,0.0,0.0,2.3595,2.3595,0.0,0.5932,0.5932,0.5932,0.5763,0.5635,0.5675,0.5837,0.609,0.6468,0.7537,0.8214,0.8089,0.8743,0.9183,0.9183,0.9629,0.9446,0.0,0.0,0.7843,0.9041,1.0089,1.1058,1.1954,1.2844,1.3332,1.3394,1.3915,1.4351,1.4724,1.5784,1.648,1.6838,1.7428,1.7105,1.6098,1.573,1.4975,1.394,1.3111,1.2414,1.192,1.2273,1.1858,1.1145,1.1621,1.2045,1.2396,1.2447,0.0,0.0,0.0,0.0,0.0,0.0,0.0,0.0,0.0,0.0,0.0,0.0,0.0,0.0,0.0,0.0,0.0,0.0,0.0,0.0,0.0,0.0,0.0,0.0,1.992,2.0757,2.0907,2.0922,2.1146,2.1749,2.1813,2.187,2.2004,2.3097,2.3827,2.3911,2.4964,2.5633,2.5708,2.5708,0.0,0.0,0.0,2.6125,2.6712,2.7269,2.7962,2.8755,2.852,2.8839,2.9585,2.8704,2.8154,2.7891,2.7249,2.697,2.6919,2.6433,2.5884,2.5217,2.4053,2.3595,2.3595,2.3595,2.3595,2.3595,0.0,0.6143,0.6143,0.6143,0.6282,0.6478,0.675,0.6868,0.7141,0.7746,0.8332,0.8796,0.9077,0.9496,0.9742,0.9742,0.9889,0.9638,0.0,0.0,0.8939,0.9617,1.0864,1.2009,1.2995,1.3609,1.4139,1.4569,1.5425,1.5873,1.5969,1.6934,1.7424,1.7503,1.7646,1.7151,1.6262,1.6184,1.5582,1.4692,1.4513,1.3603,1.2327,1.2038,1.2044,1.2201,1.231,1.2872,1.3613,1.3946,1.4013,1.401,1.4383,0.0,0.0,0.0,0.0,0.0,0.0,0.0,0.0,0.0,0.0,0.0,0.0,0.0,0.0,0.0,0.0,0.0,0.0,0.0,0.0,2.005,2.0524,2.1071,2.2154,2.2303,2.2358,2.2493,2.2509,2.2912,2.3945,2.4271,2.4654,2.5185,2.5455,2.5839,2.639,2.6408,2.6644,2.721,2.721,2.7503,2.8108,2.8704,2.9033,2.9103,2.953,0.0,2.9128,2.8942,2.8814,2.8764,2.862,2.8553,2.8517,2.799,2.7104,2.5923,2.4246,2.3595,2.3595,2.3595,2.3595,2.3595,0.6427,0.6405,0.6405,0.6405,0.6655,0.6905,0.708,0.7444,0.7875,0.8389,0.8823,0.9242,0.9607,0.9809,0.9905,0.9905,0.962,0.0,0.0,0.9753,0.9825,1.0761,1.1919,1.2796,1.329,1.4097,1.4768,1.5297,1.5964,1.6438,1.6723,1.772,1.8192,1.8215,1.8544,1.7987,1.6798,1.6798,1.6063,1.4906,1.4906,1.4582,1.4018,1.325,1.2758,1.2561,1.3027,1.3639,1.4262,1.4658,1.4873,1.4991,1.5234,1.5065,1.4729,0.0,0.0,0.0,0.0,0.0,0.0,0.0,0.0,0.0,0.0,0.0,0.0,0.0,0.0,1.7572,1.8263,0.0,1.9723,2.0988,2.1485,2.1929,2.2598,2.2957,2.3141,2.3141,2.3445,2.3898,2.4545,2.5202,2.5749,2.6078,2.6408,2.6749,2.7078,2.7106,2.7389,2.8027,2.8042,2.8499,2.9395,2.9695,2.9975,3.0209,3.0516,3.0463,3.0083,2.9728,2.955,2.9533,2.9162,2.8993,2.8956,2.8422,2.7827,2.7126,2.5952,2.4889,2.4001,2.4001,2.3837,2.3595,0.6599,0.6599,0.6637,0.6732,0.6977,0.7234,0.7455,0.7929,0.8417,0.8881,0.9204,0.9534,0.9867,0.9905,0.9909,0.0,0.0,0.0,0.0,1.0808,1.0816,1.219,1.3019,1.355,1.3763,1.4606,1.5318,1.586,1.639,1.6872,1.732,1.8395,1.8888,1.8903,1.9346,1.8822,1.76,1.7497,1.6711,1.5518,1.5518,1.5718,1.5925,1.5053,1.4112,1.3382,1.4134,1.4583,1.4864,1.5184,1.5521,1.5799,1.5799,1.5799,1.5686,1.5155,1.5073,0.0,0.0,0.0,0.0,0.0,0.0,0.0,0.0,1.7842,1.7749,1.7247,1.8095,1.8974,1.9069,2.0001,2.0995,2.1774,2.2358,2.2748,2.2868,2.3411,2.3833,2.3958,2.4338,2.4709,2.4963,2.5974,2.6644,2.6779,2.73,2.7648,2.776,2.7773,2.7993,2.8475,2.8499,2.9019,3.0113,3.0134,3.0487,3.12,3.12,3.12,3.1183,3.0581,3.0301,3.0284,2.9694,2.9433,2.9388,2.896,2.8706,2.8525,2.8098,2.6784,2.5115,2.4896,2.4531,2.4143,0.0,0.6599,0.6745,0.7223,0.7337,0.771,0.8728,0.8646,0.8782,0.9653,0.9551,0.9534,0.9867,0.9905,0.9951,1.0069,0.0,0.0,1.18,1.1745,1.2321,1.3777,1.3949,1.4463,1.5401,1.5547,1.5875,1.6418,1.7417,1.7928,1.8006,1.9093,1.9588,1.957,1.9168,1.8887,1.8683,1.82,1.7905,1.7742,1.7742,1.7494,1.7116,1.6991,1.656,1.6072,1.6168,1.6081,1.593,1.597,1.5903,1.5799,1.5799,1.5799,1.5784,1.5709,0.0,1.6396,1.5979,1.5927,1.6148,1.6895,1.6986,1.7094,0.0,1.8341,1.8464,1.8048,1.8924,1.9778,1.9786,2.0391,2.1249,2.2406,2.2643,2.2897,2.3426,2.4077,2.4693,2.5208,2.4886,2.5079,2.6258,2.6509,2.6854,2.7435,2.7555,2.7835,2.8367,2.8391,2.8427,2.8499,2.8499,2.8826,2.9496,2.9507,3.0081,3.12,3.12,3.12,3.12,3.1116,3.1082,3.1072,3.0997,3.0946,3.0954,3.0888,3.047,2.9887,2.9813,2.8962,2.765,2.6645,2.6224,2.6097,0.0,0.6599,0.6874,0.7763,0.7926,0.8187,0.8981,0.9225,0.9459,0.9849,0.9783,0.9738,0.9893,1.0188,1.0425,1.0554,1.0851,0.0,1.225,1.2562,1.3275,1.4514,1.4853,1.524,1.5693,1.6007,1.6573,1.7422,1.7887,1.8419,1.9034,1.9488,1.9708,1.9699,1.947,1.9188,1.8893,1.866,1.839,1.8106,1.8106,1.8149,1.8229,1.8229,1.8285,1.822,1.7205,1.6789,0.0,0.0,1.6714,1.6323,1.6323,1.6076,1.5866,1.6211,1.6312,0.0,1.6193,1.62,1.6384,1.7046,1.7415,1.7768,1.8422,1.9238,1.9727,1.9255,2.0107,2.0969,2.1058,2.1547,2.224,2.308,2.355,2.3898,2.4152,2.5057,2.581,2.6119,2.623,2.6512,2.7067,2.7161,2.7434,2.8088,2.8529,2.9036,2.9631,2.9322,2.9466,3.0169,2.9432,2.9485,3.0445,3.088,3.1126,3.1217,3.164,3.1623,3.12,3.12,3.12,3.12,3.12,3.12,3.12,3.12,3.1021,3.0734,3.0734,3.0415,2.9695,2.7698,2.6774,2.6413,0.0,0.6599,0.6899,0.7881,0.8187,0.8537,0.9214,0.9648,0.9905,0.9905,0.9905,0.9956,1.0093,1.0469,1.0804,1.1103,1.1477,1.2075,0.0,1.3329,1.4065,1.5291,1.5706,1.5919,1.5919,1.6456,1.7107,1.7887,1.8185,1.8717,1.9479,1.963,1.9708,1.9699,1.9557,1.935,1.9114,1.8959,1.8755,1.8545,1.8545,1.8841,1.9297,1.9297,1.9531,1.9691,1.831,1.7706,0.0,0.0,1.7377,1.6913,1.6562,1.6271,1.6107,1.6417,1.6299,1.6143,1.6483,1.6582,1.6684,1.7186,1.7817,1.838,1.8622,1.9733,2.0555,2.0005,2.1005,2.2007,2.2098,2.2566,2.3141,2.3763,2.4276,2.4721,2.5077,2.6078,2.687,2.7078,2.7489,2.7787,2.7787,2.7668,2.792,2.8738,2.9297,3.0029,3.1009,3.0433,3.05,3.1369,3.0456,3.0369,3.1241,3.1984,3.2174,3.1799,3.2351,3.2317,3.1799,3.1606,3.1386,3.12,3.12,3.12,3.12,3.12,3.12,3.12,3.12,3.12,3.094,2.8893,2.7774,2.7206,0.0,0.0,0.677,0.7331,0.7914,0.8663,0.9717,0.9893,0.9905,0.9905,0.9905,1.01,1.0625,1.0681,1.0969,1.1612,1.169,1.2365,1.3946,1.4074,1.4787,1.6378,1.6473,1.6486,1.6486,1.7001,1.7291,1.7322,1.837,1.8893,1.894,1.946,1.9708,1.969,1.916,1.9197,1.9639,1.9123,1.9188,1.9648,1.9648,1.9885,2.0263,2.0263,2.0272,2.0229,1.9776,0.0,0.0,0.0,1.769,1.7459,1.6218,1.6211,0.0,1.615,1.6148,1.6435,1.7097,1.7265,1.7265,1.7291,1.8096,1.8736,1.8243,1.946,2.0555,2.0005,2.1378,2.2673,2.2667,2.3176,2.3789,2.4455,2.459,2.5025,2.6282,2.7038,2.7684,2.8286,2.8418,2.8468,2.8468,2.7944,2.8155,2.9474,2.9586,3.0426,3.234,3.1742,3.1358,3.1391,3.1363,3.1363,3.139,3.2122,3.2779,3.3328,3.3372,3.3345,3.3311,3.2588,3.1887,3.12,3.12,3.12,3.12,3.12,3.12,3.12,3.12,3.12,3.1131,3.0448,2.9827,2.923,0.0,0.0,0.0,0.8356,0.8693,0.9076,0.9792,0.9905,0.9905,0.9905,1.0206,0.0,0.0,0.0,0.0,0.0,1.2527,1.31,1.4034,1.4428,1.5181,1.645,1.65,1.65,1.65,1.7034,1.7463,1.7837,1.8554,1.9071,1.9424,1.9621,1.9708,1.9699,1.9521,1.9539,1.9699,1.9521,1.9996,2.0843,2.0314,2.067,2.1415,2.0588,2.0306,2.0184,0.0,0.0,0.0,1.7938,1.7399,1.704,1.7056,0.0,1.6229,1.6213,1.6561,1.701,1.7239,1.7302,1.7394,1.7747,1.8703,1.9511,1.9334,2.0713,2.1979,2.1801,2.2578,2.3306,2.3306,2.346,2.3808,2.4485,2.5307,2.6164,2.7046,2.8437,2.9138,2.8535,2.8831,2.8967,2.8596,2.8341,2.875,3.0101,3.1015,3.2204,3.3745,3.3211,3.3045,3.3442,3.2591,3.2309,3.271,3.3459,3.3691,3.3396,3.3396,3.3396,3.3379,3.3136,3.2899,3.2662,3.2662,3.2662,3.2662,3.2662,3.2374,3.1928,3.1928,3.1623,3.1171,3.0975,3.0251,2.9316,0.0,0.0,0.0,0.0,0.0,0.0,0.0,0.0,0.0,0.0,0.0,0.0,0.0,0.0,0.0,0.0,0.0,1.3467,1.4067,0.0,1.5085,1.617,1.6397,1.659,1.6784,1.7493,1.8046,1.839,1.8921,1.936,1.9708,1.9708,1.9708,1.9708,1.9708,1.9782,1.9918,1.9918,2.0461,2.1284,2.0755,2.1017,2.1615,2.0848,2.0449,0.0,0.0,0.0,0.0,1.7646,1.7369,1.7374,1.7162,1.6637,1.6138,1.6259,1.6773,1.7302,1.7302,1.7575,1.8012,1.8591,1.9467,2.0255,2.0489,2.1662,2.2703,2.2703,2.3017,2.3336,2.355,2.3426,2.3715,2.5065,2.5973,2.6971,2.831,2.9345,2.9781,2.9238,2.9328,2.9313,2.8995,2.9329,3.0046,3.117,3.2275,3.3478,3.4811,3.4287,3.4102,3.4489,3.3661,3.3399,3.3795,3.4523,3.4658,3.419,3.419,3.4055,3.3795,3.3795,3.366,3.3396,3.3396,3.3396,3.3396,3.3396,3.3119,3.2689,3.2689,3.2401,3.1985,3.1985,3.1504,3.0647,0.0,0.0,0.0,0.0,0.0,0.0,0.0,0.0,0.0,0.0,0.0,0.0,0.0,0.0,0.0,0.0,0.0,0.0,0.0,0.0,0.0,1.5694,1.6248,1.6788,1.734,1.837,1.8902,1.8902,1.9433,1.9708,1.9708,1.9708,1.9708,1.9708,1.9708,1.9912,2.0306,2.0306,2.0599,2.1079,2.1047,2.1055,2.1087,2.1015,0.0,0.0,0.0,0.0,0.0,1.7142,1.7567,1.8316,1.657,1.6163,1.6346,1.6346,1.6822,1.7362,1.7413,1.8205,1.9157,1.983,2.0411,2.0967,2.1615,2.2273,2.2733,2.2703,2.2703,2.2857,2.34,2.3082,2.3559,2.6056,2.6523,2.7483,2.9991,2.987,2.9738,3.0368,0.0,0.0,0.0,3.0851,3.1895,3.2604,3.3275,3.4222,3.5526,3.4945,3.4567,3.4567,3.4567,3.4567,3.4567,3.5256,3.56,3.56,3.56,3.5239,3.4567,3.4567,3.4167,3.3514,3.3514,3.3514,3.3514,3.3514,3.348,3.3457,3.3457,3.3429,3.3396,3.3396,3.3364,3.2937,0.0,0.0,0.0,0.0,0.0,0.0,0.0,0.0,0.0,0.0,0.0,0.0,0.0,0.0,0.0,0.0,0.0,0.0,0.0,0.0,0.0,0.0,0.0,1.7244,1.7884,1.8564,1.8902,0.0,0.0,1.9708,1.9708,1.9708,1.9708,1.9708,1.9708,1.9912,2.0306,2.0306,2.1058,2.222,0.0,2.1771,2.2172,0.0,0.0,0.0,0.0,0.0,0.0,0.0,1.7147,1.7367,1.6506,1.6605,1.705,1.705,1.7518,1.8221,1.901,1.9798,2.0528,2.1104,2.1709,2.2228,2.2403,2.2932,2.3246,2.2793,2.2703,2.2598,2.2248,2.2832,2.3885,2.551,2.6971,2.8662,3.0816,3.0942,3.0915,3.1193,0.0,3.0801,3.0317,3.1981,3.3144,3.3325,3.3912,3.4667,3.5538,3.5414,3.5323,3.5323,3.5323,3.5323,3.5323,3.5509,3.56,3.56,3.56,3.5498,3.5323,3.5323,3.5222,3.5042,3.5042,3.5042,3.5042,3.5042,3.4715,3.4218,3.4218,3.388,3.3396,3.3396,3.2801,3.1899,0.0,0.0,0.0,0.0,0.0,0.0,0.0,0.0,0.0,0.0,0.0,0.0,0.0,0.0,0.0,0.0,0.0,0.0,0.0,0.0,0.0,0.0,1.6853,1.7515,1.842,1.8977,1.9244,0.0,0.0,0.0,0.0,1.9708,1.9708,1.9717,1.9883,2.0201,2.0616,2.0805,0.0,0.0,0.0,0.0,0.0,0.0,0.0,0.0,0.0,0.0,0.0,0.0,0.0,1.7136,1.7143,1.7573,1.8086,1.8086,1.873,1.9565,2.0188,2.0788,2.1383,2.1993,2.2586,2.3001,2.2975,2.3259,2.333,2.2662,2.2144,2.1809,2.1719,2.2278,2.3461,2.5549,2.7333,2.9226,3.1476,3.1561,3.1519,3.1894,3.1429,0.0,3.0952,3.2556,3.3599,3.3601,3.4454,3.5154,3.5583,3.56,3.56,3.56,3.56,3.56,3.56,3.56,3.56,3.56,3.56,3.56,3.56,3.56,3.56,3.56,3.56,3.56,3.56,3.56,3.5357,3.4968,3.4968,3.4731,3.4376,3.4376,3.3727,3.2825,0.0,0.0,0.0,0.0,0.0,0.0,0.0,0.0,0.0,0.0,0.0,0.0,0.0,0.0,0.0,0.0,0.0,0.0,0.0,0.0,0.0,0.0,1.6895,1.7751,1.8977,1.946,1.9708,0.0,0.0,0.0,0.0,0.0,0.0,0.0,0.0,0.0,0.0,0.0,0.0,0.0,0.0,0.0,0.0,0.0,0.0,0.0,0.0,0.0,0.0,0.0,1.7764,1.746,1.8111,1.8733,1.9241,1.932,2.0147,2.1046,2.1119,2.1546,2.2114,2.2766,2.3234,2.351,2.3438,2.3392,2.3175,2.234,2.1381,2.0847,2.1335,2.165,2.2802,2.5784,2.7519,2.9413,3.2076,3.1888,3.179,3.2556,3.1539,3.1007,3.1594,3.2904,3.3735,3.3735,3.4899,3.56,3.56,3.56,3.56,3.56,3.56,3.56,3.56,3.56,3.56,3.56,3.56,3.56,3.56,3.56,3.56,3.56,3.56,3.56,3.56,3.56,3.56,3.56,3.56,3.56,3.56,3.56,3.511,3.4382,0.0,0.0,0.0,0.0,0.0,0.0,0.0,0.0,0.0,0.0,1.2727,1.3116,0.0,0.0,0.0,0.0,0.0,0.0,0.0,0.0,0.0,0.0,1.7372,1.821,1.9536,1.9648,1.9708,0.0,0.0,0.0,0.0,0.0,0.0,0.0,0.0,0.0,0.0,0.0,0.0,0.0,0.0,0.0,0.0,0.0,0.0,0.0,0.0,0.0,0.0,0.0,1.7784,1.8216,1.8777,1.9397,2.0008,2.0458,2.1129,2.1814,2.227,2.2824,2.3397,2.3969,2.4168,2.4174,2.4005,2.3673,2.303,2.1743,2.1056,2.0563,2.0133,2.1415,2.3198,2.5237,2.7176,2.9544,3.2763,3.2171,3.1905,3.3249,3.2721,3.2271,3.2394,3.3633,3.4431,3.4431,3.5161,3.56,3.56,3.56,3.56,3.56,3.56,3.56,3.56,3.56,3.56,3.56,3.56,3.56,3.56,3.56,3.56,3.56,3.56,3.56,3.56,3.56,3.56,3.56,3.56,3.56,3.56,3.56,3.4812,3.3761,0.0,0.0,0.0,0.0,0.0,0.0,0.0,0.0,1.2081,1.2896,1.3225,1.3498,1.3868,1.3484,0.0,0.0,0.0,0.0,0.0,0.0,0.0,0.0,0.0,1.8162,1.9151,1.9519,1.9708,1.9708,0.0,0.0,0.0,0.0,0.0,0.0,0.0,0.0,0.0,0.0,0.0,0.0,0.0,0.0,0.0,0.0,0.0,0.0,0.0,0.0,0.0,0.0,1.8218,1.8821,1.9383,2.0439,2.1502,2.1769,2.2291,2.2843,2.3093,2.3578,2.4085,2.4338,2.4816,2.4932,2.3836,2.3435,2.2823,2.1126,2.0451,2.0079,1.9768,2.0776,2.2277,2.4166,2.6094,2.8538,3.1923,3.213,3.2476,3.3949,3.3534,3.3119,3.3119,3.4365,3.5177,3.5177,3.6185,3.6456,3.5633,3.56,3.5797,3.6214,3.5814,3.5797,3.6214,3.5814,3.56,3.56,3.56,3.56,3.56,3.56,3.56,3.56,3.56,3.56,3.56,3.56,3.56,3.56,3.56,3.56,3.56,3.56,3.497,3.4074,0.0,0.0,0.0,0.0,0.0,0.0,0.0,1.0961,1.1936,1.3131,1.3579,1.3847,1.4014,1.3623,1.3306,0.0,0.0,0.0,0.0,0.0,0.0,0.0,0.0,0.0,1.8687,0.0,0.0,1.9708,0.0,0.0,0.0,0.0,0.0,0.0,0.0,0.0,0.0,0.0,0.0,0.0,0.0,0.0,0.0,0.0,0.0,0.0,0.0,0.0,0.0,0.0,1.8688,1.9364,1.9956,2.1312,2.2697,2.2697,2.3131,2.3627,2.3745,2.4085,2.4461,2.4692,2.5373,2.551,2.3686,2.3234,2.2645,2.0705,1.9982,1.9708,1.9708,2.0243,2.1337,2.3277,2.5181,2.7593,3.1022,3.216,3.3113,3.4439,3.4284,3.4073,3.4053,3.5192,3.5997,3.6166,3.7259,3.7369,3.6157,3.609,3.6372,3.7021,3.6282,3.6163,3.6795,3.6,3.56,3.56,3.56,3.56,3.56,3.56,3.56,3.56,3.56,3.56,3.56,3.56,3.56,3.56,3.56,3.56,3.56,3.56,3.5184,3.4528,0.0,0.0,0.0,0.0,0.0,0.0,0.0,1.0917,1.2196,1.3179,1.3745,1.4153,1.4424,1.4076,1.3665,0.0,0.0,0.0,0.0,0.0,0.0,0.0,0.0,0.0,0.0,0.0,0.0,1.9708,1.9207,0.0,0.0,0.0,0.0,0.0,0.0,1.9191,0.0,0.0,0.0,0.0,0.0,0.0,0.0,0.0,0.0,0.0,0.0,0.0,0.0,0.0,0.0,1.9917,2.0459,2.158,2.2694,2.2694,2.3129,2.3713,2.4184,2.4359,2.4627,2.5615,2.5924,2.5625,2.4165,2.35,2.2645,2.0705,1.9982,1.9708,1.9708,2.0243,2.1337,2.3277,2.5181,2.7593,3.1022,3.26,3.3696,3.4505,3.5185,3.5563,3.5506,3.6236,3.6987,3.7655,3.7819,3.7843,3.7691,3.7691,3.7724,3.7804,3.7088,3.6728,3.6795,3.6,3.56,3.56,3.56,3.56,3.56,3.56,3.56,3.56,3.56,3.56,3.56,3.56,3.56,3.56,3.56,3.56,3.56,3.56,3.5184,3.4588,0.0,0.0,0.0,0.0,0.0,0.0,0.0,1.0275,1.1566,1.315,1.3506,1.3919,1.4706,1.4481,1.3975,0.0,0.0,0.0,0.0,0.0,0.0,0.0,0.0,0.0,0.0,0.0,0.0,0.0,1.8996,0.0,0.0,0.0,0.0,0.0,0.0,1.888,1.9172,0.0,0.0,0.0,0.0,0.0,0.0,0.0,0.0,0.0,0.0,0.0,0.0,0.0,0.0,1.9392,1.9932,2.0734,0.0,0.0,2.2868,2.3253,2.4164,2.4642,2.5067,2.5815,2.6209,2.5897,2.3937,2.3338,2.2582,2.0389,1.9803,1.9708,1.9708,1.9923,2.0621,2.2194,2.333,2.5327,2.9161,3.0811,3.2525,3.4922,3.5909,3.6571,3.6987,3.7693,3.8438,3.9162,3.922,3.922,3.922,3.8379,3.8108,3.8548,3.7855,3.768,3.812,3.6936,3.6315,3.6315,3.5831,3.56,3.56,3.56,3.56,3.56,3.56,3.56,3.56,3.56,3.56,3.56,3.56,3.56,3.56,3.56,3.5436,3.5133,0.0,0.0,0.0,0.0,0.0,0.8457,0.8912,0.9936,1.1274,1.2971,1.341,1.3857,1.4594,1.4573,1.4149,1.3284,0.0,0.0,0.0,0.0,0.0,0.0,0.0,0.0,0.0,0.0,0.0,0.0,0.0,1.8516,0.0,0.0,1.8516,1.865,0.0,0.0,0.0,0.0,0.0,0.0,0.0,0.0,0.0,0.0,0.0,0.0,0.0,0.0,0.0,0.0,0.0,0.0,0.0,0.0,0.0,0.0,2.2538,2.2988,2.429,2.492,2.5364,2.6041,2.6453,2.6093,2.3733,2.3201,2.253,2.0173,1.9708,1.9708,1.9708,1.9984,2.0551,2.1545,2.2738,2.4802,2.8335,3.0288,3.2397,3.5256,3.6502,3.733,3.7843,3.8751,3.9542,4.0062,4.0096,4.0096,4.0096,3.9119,3.8797,3.9305,3.8616,3.8464,3.8988,3.7545,3.6795,3.6795,3.5983,3.56,3.56,3.56,3.56,3.56,3.56,3.56,3.56,3.56,3.56,3.56,3.56,3.56,3.56,3.56,3.56,3.5526,0.0,0.0,0.0,0.0,0.0,0.0,0.0,1.0179,1.1626,1.2579,1.3572,1.412,1.3934,1.4261,1.4149,1.3284,0.0,0.0,0.0,0.0,0.0,0.0,0.0,0.0,0.0,0.0,0.0,0.0,0.0,0.0,0.0,1.7565,1.7595,1.8094,0.0,0.0,0.0,0.0,0.0,0.0,0.0,0.0,0.0,0.0,0.0,0.0,0.0,0.0,0.0,0.0,0.0,0.0,0.0,0.0,0.0,0.0,2.2179,2.3056,2.474,2.5202,2.5449,2.6428,2.6691,2.6093,2.3733,2.3201,2.253,2.0173,1.9708,1.9708,1.9708,2.0677,2.1531,2.1673,2.4275,2.7035,2.9269,3.1886,3.407,3.5442,3.6947,3.7877,3.7893,3.9237,4.0096,4.0096,4.0096,4.0096,4.0096,4.0096,4.0079,4.0096,3.9372,3.8988,3.9,3.7545,3.6795,3.6795,3.5983,3.56,3.56,3.56,3.56,3.56,3.56,3.56,3.56,3.56,3.56,3.56,3.56,3.56,3.56,3.56,3.56,3.56,0.0,0.0,0.0,0.0,0.0,0.0,0.0,1.0457,1.1868,1.2655,1.3212,1.358,1.3756,1.3806,1.3595,1.304,0.0,0.0,0.0,0.0,0.0,0.0,0.0,0.0,0.0,0.0,0.0,0.0,0.0,0.0,0.0,0.0,0.0,1.7558,1.7801,0.0,0.0,0.0,0.0,0.0,0.0,0.0,0.0,0.0,0.0,0.0,0.0,0.0,0.0,0.0,0.0,0.0,0.0,0.0,0.0,0.0,0.0,2.268,2.3521,2.4322,2.4966,2.5151,2.5202,2.4716,2.2872,2.2444,2.2059,2.0676,2.0019,1.9983,2.0896,2.0999,2.1545,2.3381,2.45,2.6171,2.912,3.1102,3.3089,3.5394,3.7871,3.9406,3.9406,3.9842,4.0096,4.0096,4.0096,4.0096,4.0096,4.0096,4.0096,4.0096,3.9863,3.9745,3.9745,3.878,3.8053,3.755,3.7285,3.6907,3.6445,3.6941,3.7166,3.7133,3.6637,3.6428,3.6378,3.5831,3.56,3.56,3.56,3.56,3.56,3.56,3.56,3.56,0.0,0.0,0.0,0.0,0.0,0.0,0.0,1.0274,1.1533,1.2125,1.2779,1.322,1.328,1.3409,1.3341,1.2941,0.0,0.0,0.0,0.0,0.0,0.0,0.0,0.0,0.0,0.0,0.0,0.0,0.0,0.0,0.0,0.0,0.0,0.0,0.0,0.0,0.0,0.0,0.0,0.0,0.0,0.0,0.0,0.0,0.0,0.0,0.0,0.0,0.0,0.0,0.0,0.0,0.0,0.0,0.0,0.0,2.1145,2.2206,2.2915,2.3626,2.4219,2.4444,2.4498,2.4078,2.2475,2.2098,2.1765,2.0561,2.0183,2.0333,2.1171,2.1531,2.2188,2.3646,2.4675,2.6283,2.914,3.0724,3.261,3.5335,3.803,3.9576,3.9305,3.9762,4.0096,4.0096,4.0096,4.0096,4.0096,4.0096,4.0096,4.0096,4.0096,4.0096,4.0096,3.9372,3.8633,3.7893,3.7893,3.7499,3.6829,3.7567,3.7893,3.786,3.7398,3.7224,0.0,3.6366,3.605,3.6017,3.5729,3.56,3.56,3.56,3.56,3.56,0.0,0.0,0.0,0.0,0.0,0.0,0.0,0.0,0.0,1.1138,1.2303,1.2979,1.2594,1.3035,1.3248,1.2952,0.0,0.0,0.0,0.0,0.0,0.0,0.0,0.0,0.0,0.0,0.0,1.6437,1.6475,1.65,1.65,0.0,0.0,0.0,0.0,0.0,0.0,0.0,0.0,0.0,0.0,0.0,0.0,0.0,0.0,0.0,0.0,0.0,0.0,0.0,0.0,0.0,0.0,0.0,0.0,0.0,0.0,0.0,0.0,2.3008,2.3283,2.4137,2.4338,2.3944,2.237,2.2026,0.0,2.008,2.0228,2.0683,2.0877,2.2207,2.32,2.3011,2.4915,2.7154,2.9299,3.0876,3.2773,3.5374,3.7652,3.8717,3.8029,3.9271,4.0096,4.0096,4.0096,4.0096,4.0096,4.0096,4.0096,4.0096,4.0096,4.0096,4.0096,3.9372,3.865,3.799,3.799,3.7618,3.6981,3.7719,3.8063,3.8058,3.7995,3.7944,3.7838,3.7105,3.6778,3.6631,3.5898,3.56,3.56,3.56,3.56,3.56,0.0,0.0,0.0,0.0,0.0,0.0,0.0,0.0,0.0,0.0,1.1795,1.2327,1.202,1.2069,1.2388,0.0,0.0,0.0,0.0,0.0,0.0,0.0,0.0,0.0,0.0,0.0,0.0,1.5894,1.6298,1.65,1.65,1.65,0.0,0.0,0.0,0.0,0.0,0.0,0.0,0.0,0.0,0.0,0.0,0.0,0.0,0.0,1.6637,1.7302,0.0,0.0,0.0,0.0,0.0,0.0,0.0,0.0,1.9903,2.0316,2.1248,0.0,2.2798,2.2812,2.2818,2.253,0.0,2.1255,2.1119,2.0572,2.0183,2.0552,2.2547,2.2465,2.2892,2.529,2.6167,2.727,2.9309,3.2114,3.4592,3.6324,3.7985,3.8933,3.8751,3.9559,4.0096,4.0096,4.0096,4.0096,4.0096,4.0096,4.0096,4.0096,4.0096,4.0096,4.0096,3.9372,3.8916,3.8734,3.8734,3.8662,3.851,3.9254,3.9576,3.9542,3.9,3.8413,3.7838,3.7105,3.6445,3.5864,3.5667,3.56,3.56,3.56,3.56,3.56,0.0,0.0,0.0,0.0,0.0,0.0,0.0,0.0,0.0,0.0,0.0,0.0,0.0,0.0,0.0,0.0,0.0,0.0,0.0,0.0,0.0,0.0,0.0,0.0,0.0,0.0,0.0,0.0,0.0,1.6469,0.0,0.0,0.0,0.0,0.0,0.0,0.0,0.0,0.0,0.0,0.0,0.0,0.0,0.0,0.0,0.0,1.65,1.7188,0.0,1.8106,1.8817,1.9708,0.0,0.0,0.0,0.0,1.9708,1.9898,2.0756,2.1706,2.2481,2.2747,2.263,2.2314,2.1658,2.1076,2.06,2.03,0.0,2.1046,2.2473,2.2881,2.3614,2.5379,2.6465,2.7989,3.0611,3.3389,3.5427,3.615,3.7872,3.887,3.8531,3.9474,4.0096,4.0096,4.0096,4.0096,4.0096,4.0096,4.0096,4.0096,4.0096,4.0096,4.0096,3.9694,3.9339,3.9,3.9339,3.9339,3.9034,3.9762,4.0096,4.0079,3.9677,3.9102,3.8345,3.7613,3.684,3.6113,3.5746,3.56,3.56,3.56,3.56,3.56,0.0,0.0,0.0,0.0,0.0,0.0,0.0,0.0,0.0,0.0,0.0,0.0,0.0,0.0,0.0,0.0,0.0,0.0,0.0,0.0,0.0,0.0,0.0,0.0,0.0,0.0,0.0,0.0,0.0,0.0,0.0,0.0,0.0,0.0,0.0,0.0,0.0,0.0,0.0,0.0,0.0,0.0,0.0,0.0,0.0,0.0,0.0,0.0,0.0,1.8194,1.8883,1.9708,1.9708,0.0,0.0,0.0,0.0,0.0,2.0915,2.1704,2.2393,2.298,2.2904,2.2571,2.209,0.0,0.0,0.0,0.0,0.0,0.0,2.3419,2.4575,2.4993,2.6662,2.9009,3.2159,3.4205,3.5435,3.5588,3.7415,3.8464,3.7944,3.9022,3.9808,3.9926,3.9943,3.9893,3.9762,3.9977,4.0045,3.9943,4.0045,4.0096,4.0096,3.9994,3.966,3.9169,3.969,3.966,3.9186,3.9825,4.0096,4.0096,4.0096,0.0,3.8768,3.8159,3.7398,3.6547,3.5864,3.56,3.56,3.56,3.56,3.56,0.0,0.0,0.0,0.0,0.0,0.0,0.0,0.0,0.0,0.0,0.0,0.0,0.0,0.0,0.0,0.0,0.0,0.0,0.0,0.0,0.0,0.0,0.0,0.0,0.0,0.0,0.0,0.0,0.0,0.0,1.5648,1.6661,1.6977,0.0,0.0,0.0,0.0,0.0,0.0,0.0,0.0,0.0,0.0,0.0,0.0,0.0,0.0,0.0,0.0,1.8622,1.9188,1.9708,1.9708,0.0,0.0,0.0,0.0,0.0,2.162,2.2433,2.2775,2.2068,2.2292,2.2483,2.163,0.0,0.0,0.0,0.0,0.0,0.0,2.3928,2.4492,2.6764,2.8351,3.0066,3.229,3.3356,3.4329,3.5475,3.6502,3.7342,3.7843,3.8108,3.8497,3.9119,3.9169,3.8899,3.8278,3.9423,3.9808,3.9186,3.9762,4.0096,4.0096,3.9474,3.9423,3.9926,3.9406,3.944,3.9943,4.0045,4.0096,4.0096,0.0,3.9339,3.8063,3.7944,3.7065,3.578,3.5661,3.56,3.56,3.56,3.56,3.56,0.0,0.0,0.0,0.0,0.0,0.0,0.0,0.0,0.0,0.0,0.0,0.0,0.0,0.0,0.0,0.0,0.0,0.0,0.0,0.0,0.0,0.0,0.0,0.0,0.0,0.0,0.0,0.0,0.0,1.5554,1.5684,1.6457,1.6666,1.6397,0.0,0.0,0.0,0.0,0.0,0.0,0.0,0.0,0.0,0.0,0.0,0.0,0.0,0.0,0.0,0.0,1.9253,1.9708,1.9708,0.0,0.0,0.0,0.0,0.0,2.0925,2.1675,2.2113,2.1561,2.2258,2.2981,2.2524,2.1958,0.0,0.0,0.0,0.0,0.0,2.4718,2.6509,2.88,2.9683,3.0801,3.2854,3.3415,3.4103,3.5447,3.6315,3.6931,3.7274,3.7669,3.8029,3.8379,3.8768,3.8667,3.7927,3.892,3.9356,3.9005,3.9339,3.9694,4.0096,3.9762,3.9762,4.0096,3.9757,3.9762,4.0096,4.0096,4.0096,4.0079,0.0,3.8886,3.786,3.7466,3.6637,3.56,3.56,3.56,3.56,3.56,3.56,3.56,0.0,0.0,0.0,0.0,0.0,0.0,0.0,0.0,0.0,0.0,0.0,0.0,0.0,0.0,0.0,0.0,0.0,0.0,0.0,0.0,0.0,0.0,0.0,0.0,0.0,0.0,1.3941,1.4053,1.4954,1.5653,1.6154,1.6332,1.6306,0.0,0.0,0.0,0.0,0.0,0.0,0.0,0.0,0.0,0.0,0.0,0.0,0.0,0.0,0.0,0.0,0.0,0.0,0.0,0.0,0.0,0.0,1.9708,1.9764,1.9949,2.0453,2.1,2.1468,2.1538,0.0,2.3041,2.3368,2.2667,0.0,0.0,0.0,0.0,0.0,2.598,2.8558,3.0057,3.0552,3.1411,3.3338,3.3595,3.4103,3.5447,3.6146,3.6598,3.6778,3.7144,3.7437,3.7635,3.8171,3.8239,3.7669,3.8345,3.8819,3.8988,3.8819,3.9102,3.9829,3.9829,3.9943,4.0096,4.0096,4.0096,4.0096,3.9926,3.9943,4.0045,3.9153,3.8413,3.7838,3.7105,3.6327,3.56,3.56,3.56,3.56,3.56,3.56,3.56,0.0,0.0,0.0,0.0,0.0,0.0,0.0,0.0,0.0,0.0,0.0,0.0,0.0,0.0,0.0,0.0,0.0,0.0,0.0,0.0,0.0,0.0,0.0,0.0,0.0,1.3244,1.3489,1.3917,1.4669,1.5779,1.7176,1.6278,1.5742,1.5552,0.0,0.0,0.0,0.0,0.0,0.0,0.0,0.0,0.0,0.0,0.0,0.0,0.0,0.0,0.0,0.0,0.0,0.0,0.0,0.0,1.9708,1.9708,1.9965,2.0435,2.1197,2.1372,2.1483,2.2155,2.1974,0.0,2.328,2.3083,0.0,2.4956,0.0,0.0,0.0,2.8028,2.9503,2.9638,3.0658,3.1946,3.3401,3.3595,3.4103,3.5447,3.565,3.5983,3.6728,3.618,3.6084,3.6818,3.6931,3.6948,3.688,3.7584,3.8294,3.8983,3.8345,3.8328,3.9068,3.9085,3.9423,4.0096,4.0096,4.0096,4.0079,3.9389,3.9457,4.0028,3.8599,3.7944,3.7838,3.7105,3.6327,3.56,3.56,3.56,3.56,3.56,3.56,3.56,0.0,0.0,0.0,0.0,0.0,0.0,0.0,0.0,0.0,0.0,0.0,0.0,0.0,0.0,0.0,0.0,0.0,0.0,0.0,0.0,0.0,0.0,0.0,1.334,1.3632,1.364,1.3817,1.4202,1.5453,1.6362,1.691,1.6035,0.0,0.0,0.0,0.0,0.0,0.0,0.0,0.0,0.0,0.0,0.0,0.0,0.0,0.0,0.0,0.0,0.0,0.0,1.9151,1.9708,1.9708,1.9708,1.9708,1.9708,1.9809,1.9981,2.0305,2.0643,2.1085,2.1787,2.1791,0.0,0.0,2.3744,2.4212,2.5364,2.6258,0.0,0.0,2.8691,2.9145,3.0019,3.0912,3.1853,3.2841,3.3339,3.3937,3.4871,3.535,3.5729,3.6017,3.578,3.5729,3.6033,3.6513,3.6581,3.6079,3.6789,3.7342,3.7613,3.7804,3.8261,3.8988,3.9457,3.9812,4.0096,4.0096,3.9846,3.9406,3.9136,3.9153,3.9356,3.8345,3.7893,3.7838,3.7105,3.6327,3.56,3.56,3.56,3.56,3.56,3.56,3.56,0.0,0.0,0.0,0.0,0.0,0.0,0.0,0.0,0.0,0.0,0.0,0.0,0.0,0.0,0.0,0.0,0.0,0.0,0.0,0.0,0.0,0.0,0.0,1.3379,1.3888,1.4251,1.455,1.4778,1.6085,1.6677,1.6529,0.0,0.0,0.0,0.0,0.0,0.0,0.0,0.0,0.0,0.0,0.0,0.0,0.0,0.0,0.0,0.0,0.0,0.0,0.0,1.8837,1.9414,1.9624,1.9708,1.9708,1.9708,1.9708,1.9708,1.9708,2.0034,2.0557,2.1216,0.0,0.0,2.3625,2.4261,2.4903,2.6004,2.6958,2.8004,2.9338,0.0,2.9148,3.0304,3.1062,3.1839,3.2788,3.3313,3.3925,3.4807,3.5328,3.56,3.56,3.56,3.5712,3.5949,3.6248,3.6383,3.6338,3.6383,3.6648,3.7122,3.7398,3.7905,3.865,3.9389,3.9745,3.9745,3.9745,3.9491,3.8983,3.8526,3.856,3.8949,3.7973,3.7821,3.8176,3.7207,3.6327,3.56,3.56,3.56,3.56,3.56,3.56,3.56,0.0,0.0,0.0,0.0,0.0,0.0,0.0,0.0,0.0,0.0,0.0,0.0,0.0,0.0,0.0,0.0,0.0,0.0,0.0,0.0,0.0,0.0,0.0,1.3295,1.3904,1.5034,1.5619,1.5627,1.6427,1.6602,1.6184,1.5382,0.0,0.0,0.0,0.0,0.0,0.0,0.0,0.0,0.0,0.0,0.0,0.0,0.0,0.0,0.0,0.0,0.0,0.0,1.8147,1.8837,1.9489,1.9708,1.9708,1.9708,1.9708,1.9708,1.9708,1.9708,1.9863,0.0,0.0,0.0,2.4321,2.4608,2.5199,2.721,2.76,2.8019,2.9338,2.9593,2.9803,3.0402,3.1062,3.1992,3.3388,3.3611,3.4103,3.5436,3.56,3.56,3.56,3.56,3.5932,3.6728,3.605,3.627,3.7792,3.6439,3.6293,3.7826,3.7173,3.7156,3.7893,3.8633,3.9017,3.9,3.8988,3.9,3.8949,3.7461,3.7596,3.8916,3.7444,3.763,3.8899,3.741,3.6332,3.5616,3.56,3.56,3.56,3.56,3.56,3.56,0.0,0.0,0.0,0.0,0.0,0.0,0.0,0.0,0.0,0.0,0.0,0.0,0.0,0.0,0.0,0.0,0.0,0.0,0.0,0.0,0.0,0.0,0.0,0.0,0.0,0.0,1.688,1.708,1.7126,1.6902,0.0,0.0,0.0,1.3898,0.0,0.0,0.0,0.0,0.0,0.0,0.0,0.0,0.0,0.0,0.0,0.0,0.0,0.0,0.0,0.0,0.0,0.0,1.9648,1.9708,1.9708,1.9708,1.9708,1.9708,1.9708,2.0034,0.0,2.1246,0.0,0.0,0.0,2.5674,0.0,0.0,2.8306,2.8575,2.9443,2.9952,3.0283,3.0477,3.1062,3.1839,3.2761,3.33,3.3925,3.4783,3.5299,3.56,3.56,3.56,3.5712,3.5932,3.5718,3.5802,3.627,3.5853,3.5802,3.627,3.7116,3.7686,3.7893,3.9153,3.9508,3.8988,3.8464,3.8227,3.8193,3.7241,3.7325,3.821,3.7753,3.8108,3.8899,3.741,3.6648,3.6395,3.5814,3.56,3.56,3.56,3.56,3.56,0.0,0.0,0.0,0.0,0.0,0.0,0.0,0.0,0.0,0.0,0.0,0.0,0.0,0.0,0.0,0.0,0.0,0.0,0.0,0.0,0.0,0.0,0.0,0.0,0.0,1.6754,1.7166,0.0,0.0,0.0,0.0,0.0,0.0,1.3615,0.0,1.3198,0.0,0.0,0.0,0.0,0.0,1.4777,1.5051,0.0,0.0,0.0,0.0,0.0,0.0,0.0,0.0,0.0,1.9618,0.0,1.9708,1.9708,1.9708,1.9768,2.0019,2.0384,0.0,2.2158,2.3236,2.4418,2.6019,0.0,0.0,0.0,2.8607,2.8876,2.9803,3.0253,3.0597,3.0852,3.1241,3.1838,3.2868,3.3352,3.395,3.4882,3.535,3.56,3.56,3.56,3.5718,3.605,3.578,3.5746,3.6062,3.578,3.56,3.56,3.6806,3.7449,3.7449,3.8645,3.9,3.8548,3.7821,3.7618,3.786,3.6806,3.6891,3.7927,3.8514,3.8684,3.8514,3.7917,3.7337,3.675,3.6265,3.5881,3.56,3.56,3.56,3.56,0.0,0.0,0.0,0.0,0.0,0.0,0.0,0.0,0.0,0.0,0.0,0.0,0.0,0.0,0.0,0.0,0.0,0.0,0.0,0.0,0.0,0.0,0.0,0.0,0.0,0.0,0.0,0.0,0.0,0.0,0.0,0.0,1.3621,1.3254,0.0,1.3098,0.0,0.0,0.0,0.0,1.3698,1.3968,1.4064,1.4528,0.0,0.0,0.0,0.0,0.0,0.0,0.0,0.0,1.9504,1.9708,1.9708,1.9708,1.9708,1.9848,2.0518,2.0703,2.1146,2.3056,2.4107,2.5199,2.7165,2.76,2.7779,2.838,2.8607,2.9041,3.0208,3.0507,3.0792,3.1406,3.1511,3.1992,3.3401,3.3595,3.4103,3.5447,3.56,3.56,3.56,3.56,3.5898,3.6631,3.6,3.5915,3.6648,3.6,3.56,3.56,3.6378,3.6795,3.6795,3.7533,3.786,3.7787,3.7122,3.7105,3.764,3.6236,3.6428,3.799,3.9389,3.9288,3.8159,3.8751,3.8171,3.6885,3.6829,3.631,3.56,3.56,3.56,3.56,0.0,0.0,0.0,0.0,0.0,0.0,0.0,0.0,0.0,0.0,0.0,0.0,0.0,0.0,0.0,0.0,0.0,0.0,0.0,0.0,0.0,0.0,0.0,0.0,0.0,0.0,0.0,0.0,0.0,0.0,0.0,0.0,0.0,1.3696,0.0,1.2349,0.0,0.0,0.0,1.1989,1.2542,1.3019,1.3493,1.4376,1.4952,0.0,0.0,0.0,0.0,0.0,0.0,0.0,1.9648,1.9708,1.9708,1.9708,1.9708,1.9848,2.0518,2.0703,0.0,2.2528,2.4148,2.5767,2.727,2.76,2.7645,2.7794,2.865,2.9473,2.9743,3.0598,3.1331,3.1481,3.1511,3.1992,3.3401,3.3595,3.4103,3.5447,3.56,3.56,3.56,3.56,3.5667,3.5847,3.5712,3.5667,3.5847,3.5684,3.56,3.56,3.6378,3.6795,3.6795,3.7533,3.7618,3.7021,3.688,3.6552,3.6084,3.5752,3.6428,3.7944,3.8853,3.9389,3.9592,3.9169,3.8464,3.7601,3.7021,3.631,3.56,3.56,3.56,3.56,0.0,0.0,0.0,0.0,0.0,0.0,0.0,0.0,0.0,0.0,0.0,0.0,0.0,0.0,0.0,0.0,0.0,0.0,0.0,0.0,1.1994,0.0,0.0,0.0,0.0,0.0,0.0,0.0,0.0,0.0,0.0,0.0,0.0,1.4125,0.0,1.2534,0.0,0.0,0.0,1.162,1.1902,1.2448,1.3194,1.3939,1.462,1.5304,1.6065,0.0,0.0,0.0,0.0,0.0,0.0,0.0,1.9708,1.9708,1.9708,1.9923,2.0917,2.1186,2.165,2.3606,0.0,2.6348,2.736,2.76,2.76,2.76,2.8678,2.9593,2.9593,3.0643,3.1511,3.1511,3.1511,3.188,3.2973,3.3119,3.3624,3.497,3.5121,3.5242,3.5577,3.56,3.56,3.56,3.56,3.56,3.56,3.56,3.56,3.56,3.6011,3.6231,3.6231,3.6608,3.662,3.6231,3.6231,3.6011,3.5616,3.6,3.6806,3.7927,3.8684,3.922,3.9542,3.9169,3.8565,3.7838,3.7088,3.631,3.56,3.56,3.56,3.56,0.0,0.0,0.0,0.0,0.0,0.0,0.0,0.0,0.0,0.0,0.0,0.0,0.0,0.0,0.0,0.0,0.0,0.0,0.0,1.153,1.2523,1.3744,0.0,0.0,0.0,0.0,0.0,0.0,0.0,0.0,0.0,0.0,0.0,1.4546,0.0,0.0,0.0,0.0,1.1489,1.1489,1.1584,1.208,1.2852,1.3522,1.4252,1.507,1.6158,1.6965,1.7631,1.8305,0.0,0.0,0.0,0.0,1.9549,1.9678,1.9708,1.9968,2.1186,2.1695,2.2473,2.4986,2.6019,2.6629,2.742,2.76,2.76,2.76,2.8573,2.9458,2.9578,3.0538,3.1376,3.1481,3.1511,3.1753,3.2506,3.26,3.3053,3.4284,3.4528,3.4819,3.5373,3.5526,3.56,3.56,3.56,3.56,3.56,3.56,3.56,3.56,3.56,3.56,3.56,3.56,3.56,3.56,3.56,3.5667,3.5814,3.6349,3.6992,3.7736,3.8357,3.8696,3.8802,3.8802,3.8379,3.7652,3.7038,3.631,3.56,3.56,3.56,3.56,0.0,0.0,0.0,0.0,0.0,0.0,0.0,0.0,0.0,0.0,0.0,0.88,0.889,0.8905,0.0,0.0,0.0,0.0,1.0728,0.0,0.0,0.0,0.0,0.0,0.0,0.0,0.0,0.0,0.0,0.0,0.0,0.0,0.0,1.4927,0.0,0.0,0.0,0.0,0.0,1.1033,1.1499,1.1756,1.2026,1.3495,1.412,1.4378,1.5505,1.6316,1.6943,1.7616,1.7893,0.0,0.0,0.0,1.8957,1.9528,1.9708,1.9863,2.0632,2.168,2.3052,2.5091,2.5674,2.6063,2.7315,2.76,2.76,2.76,2.8201,2.8906,2.9488,3.0177,3.0822,3.1406,3.1511,3.1753,3.2506,3.26,3.2882,3.3633,3.4248,3.464,3.4724,3.5253,3.56,3.56,3.56,3.56,3.56,3.56,3.56,3.56,3.56,3.56,3.56,3.56,3.56,3.56,3.56,3.5977,3.6615,3.6028,3.6197,3.6953,3.7049,3.7461,3.8058,3.8058,3.7601,3.6936,3.6846,3.631,3.56,3.56,3.56,3.56,0.0,0.0,0.0,0.0,0.0,0.0,0.0,0.0,0.0,0.0,0.0,0.8342,0.8342,0.8342,0.0,0.0,0.0,0.0,1.0713,1.1695,0.0,0.0,0.0,0.0,0.0,0.0,0.0,0.0,0.0,0.0,0.0,1.3493,1.4281,0.0,0.0,0.0,0.0,0.0,0.0,1.0918,1.1156,1.2021,1.3189,1.353,1.4434,1.5581,1.5741,1.6189,1.6749,1.7032,1.7646,1.8365,1.8957,0.0,0.0,0.0,1.9708,1.9923,2.0976,2.1959,2.3167,2.5121,2.5603,2.5959,2.73,2.76,2.76,2.76,2.7839,2.8246,2.8919,2.9834,3.0612,3.0897,3.1256,3.1611,3.1937,3.1979,3.2244,3.2946,3.33,3.3773,3.4528,3.4871,3.5196,3.5577,3.56,3.56,3.56,3.56,3.56,3.56,3.56,3.56,3.56,3.56,3.56,3.56,3.56,3.5797,3.6129,3.5763,3.6253,3.7381,3.6981,3.7224,3.786,3.7449,3.7088,3.6761,3.6299,3.5915,3.56,3.56,3.56,3.56,0.0,0.0,0.0,0.0,0.0,0.0,0.0,0.0,0.0,0.0,0.0,0.0,0.8158,0.0,0.0,0.0,0.0,0.0,1.0244,0.0,0.0,0.0,0.0,0.0,0.0,0.0,0.0,0.0,0.0,0.0,1.3564,1.3898,1.5008,0.0,1.5109,0.0,0.0,0.0,0.0,0.0,0.0,1.2663,1.4175,1.4175,1.5219,1.6644,1.6189,1.6323,1.6696,1.6696,1.7257,1.8014,1.8335,1.8664,0.0,0.0,0.0,1.9962,2.1136,2.1944,2.2872,2.4657,2.5349,2.5914,2.7091,2.748,2.76,2.76,2.76,2.775,2.8261,2.9265,3.0073,3.0238,3.0822,3.1241,3.1241,3.1391,3.1696,3.2258,3.2492,3.3053,3.4235,3.4503,3.4882,3.5538,3.56,3.56,3.56,3.56,3.56,3.56,3.56,3.56,3.56,3.56,3.56,3.56,3.56,3.56,3.56,3.56,3.6236,3.7285,3.6721,3.6806,3.7268,3.6721,3.6496,3.6445,3.5831,3.56,3.56,3.56,3.56,3.56,0.0,0.0,0.0,0.0,0.0,0.0,0.0,0.0,0.0,0.0,0.0,0.0,0.0,0.0,0.0,0.0,0.0,0.0,0.0,0.0,0.0,0.0,0.0,0.0,0.0,0.0,0.0,0.0,0.0,0.0,1.4261,1.4587,1.5448,1.6636,1.536,1.5104,1.5537,0.0,0.0,0.0,0.0,0.0,1.4025,1.5831,1.6599,1.6696,1.6659,0.0,0.0,0.0,1.6368,1.6166,1.737,1.7339,1.7115,0.0,0.0,0.0,2.0563,2.1246,2.2069,2.337,2.4657,2.5782,2.6494,2.7151,2.76,2.76,2.76,2.76,2.7645,2.8231,2.8906,2.9533,3.0162,3.0538,3.0538,3.1092,3.151,3.1539,3.216,3.2882,3.3582,3.4235,3.4882,3.5538,3.56,3.56,3.56,3.56,3.56,3.56,3.56,3.56,3.56,3.56,3.56,3.56,3.56,3.56,3.56,3.56,3.5633,3.5718,3.5667,3.5684,3.5718,3.5667,3.565,3.565,3.5616,3.56,3.56,3.56,3.56,3.56,0.0,0.0,0.0,0.0,0.0,0.0,0.0,0.0,0.0,0.0,0.0,0.0,0.0,0.0,0.0,0.0,0.0,0.0,0.0,0.0,0.0,0.0,0.0,0.0,0.0,0.0,0.0,0.0,0.0,1.2231,1.3352,1.39,1.4626,1.5478,1.5455,1.5342,1.511,1.4391,0.0,0.0,0.0,0.0,0.0,1.6435,1.7226,1.7938,1.7496,0.0,0.0,0.0,1.7205,1.7093,1.7564,1.7541,1.7518,1.8439,1.8867,1.9301,2.0399,2.0877,2.146,2.3176,2.3969,2.4717,2.6255,2.6794,2.7091,2.751,2.76,2.76,2.76,2.8141,2.8682,2.8921,3.0224,3.1043,3.0577,3.1483,3.2021,3.1553,3.1725,3.2339,3.3479,3.3824,3.4411,3.5515,3.56,3.56,3.56,3.56,3.56,3.56,3.56,3.56,3.56,3.56,3.56,3.56,3.56,3.56,3.56,3.56,3.56,3.56,3.56,3.56,3.56,3.56,3.56,3.56,3.56,3.56,3.56,3.56,3.56,3.56,0.0,0.0,0.0,0.0,0.0,0.0,0.0,0.0,0.0,0.0,0.0,0.0,0.0,0.0,0.0,0.0,0.0,0.0,0.0,0.0,0.0,0.0,0.0,0.0,0.0,0.0,0.0,0.0,0.0,0.0,0.0,1.3496,1.4162,1.4804,1.5035,1.5238,0.0,0.0,0.0,1.4528,0.0,0.0,1.6771,1.7443,1.8252,1.8957,1.8275,0.0,0.0,0.0,0.0,1.7661,1.7436,1.7354,1.7496,1.817,1.8514,1.8942,2.0064,2.0533,2.1071,2.2577,2.3131,2.3755,2.5525,2.6093,2.645,2.7136,2.7435,2.76,2.76,2.7961,2.8248,2.8248,2.9735,3.0727,3.0273,3.1353,3.2023,3.1552,3.1511,3.2048,3.3453,3.3595,3.4165,3.5492,3.56,3.56,3.56,3.56,3.56,3.56,3.56,3.56,3.56,3.56,3.56,3.56,3.56,3.56,3.56,3.56,3.56,3.56,3.56,3.56,3.56,3.56,3.56,3.56,3.56,3.56,3.56,3.56,3.56,3.56,0.0,0.0,0.0,0.0,0.0,0.0,0.0,0.0,0.0,0.0,0.0,0.0,0.0,0.0,0.0,0.0,0.0,0.0,0.0,0.0,0.0,0.0,0.0,0.0,0.0,0.0,0.0,0.0,0.0,0.0,0.0,0.0,1.4124,1.4714,1.4079,1.4852,1.6525,0.0,1.5185,1.5881,0.0,1.6704,1.6973,0.0,1.9684,1.9609,1.8957,1.8732,0.0,1.7983,0.0,1.7616,1.6943,1.6734,1.6868,1.7533,1.8192,1.8852,0.0,0.0,0.0,2.15,2.2154,2.2987,2.4276,2.5064,2.5719,2.645,2.7106,2.754,2.7585,2.76,2.76,2.76,2.8668,2.9531,2.9623,3.0655,3.1432,3.1521,3.151,3.2048,3.3453,3.3595,3.4165,3.5492,3.56,3.56,3.56,3.56,3.56,3.56,3.56,3.56,3.56,3.56,3.56,3.56,3.56,3.56,3.56,3.56,3.56,3.56,3.56,3.56,3.56,3.56,3.56,3.56,3.56,3.56,3.56,3.56,3.56,3.56,0.0,0.0,0.0,0.0,0.0,0.0,0.898,0.0,0.0,0.0,0.0,0.0,0.0,0.0,0.0,0.0,0.0,0.0,0.0,0.0,0.0,1.0783,1.0861,0.0,0.0,0.0,0.0,0.0,0.0,0.0,0.0,0.0,0.0,0.0,1.3675,1.4096,1.4583,1.4237,0.0,1.6435,1.6159,1.6892,0.0,0.0,0.0,0.0,0.0,1.9414,1.9399,0.0,1.8822,1.8311,0.0,1.7413,1.7556,1.823,1.8544,1.8852,1.9528,0.0,0.0,0.0,0.0,0.0,2.349,2.367,2.4085,2.6165,2.6363,2.645,2.742,2.76,2.76,2.76,2.8715,2.9751,3.0256,3.1038,3.1731,3.2236,3.1824,3.2048,3.3453,3.3595,3.4165,3.5492,3.56,3.56,3.56,3.56,3.56,3.56,3.56,3.56,3.56,3.56,3.56,3.56,3.56,3.56,3.56,3.56,3.56,3.56,3.56,3.56,3.56,3.56,3.56,3.56,3.56,3.56,3.56,3.56,3.56,3.56,0.0,0.0,0.0,0.0,0.0,1.0139,0.9749,0.9809,0.9709,0.0,0.0,0.0,0.0,0.0,0.0,0.0,0.0,0.0,0.0,0.0,1.109,1.1364,1.1184,1.127,0.0,0.0,0.0,0.0,0.0,0.0,0.0,0.0,0.0,0.0,1.2918,1.343,1.4184,1.3615,0.0,0.0,1.6413,0.0,0.0,1.8897,1.9354,0.0,0.0,0.0,1.9708,1.9708,1.925,0.0,1.8245,1.7938,1.7825,1.8499,1.8694,1.8852,1.9528,1.9708,0.0,2.0533,0.0,0.0,2.2767,2.3094,2.3588,2.5671,2.6008,2.6263,2.7325,2.7543,2.7646,2.7923,2.8833,2.9775,3.0497,3.1145,3.1826,3.2519,3.2216,3.227,3.3106,3.3443,3.4037,3.5098,3.543,3.56,3.56,3.56,3.56,3.56,3.56,3.56,3.56,3.56,3.56,3.56,3.56,3.56,3.56,3.56,3.56,3.56,3.56,3.56,3.56,3.56,3.56,3.56,3.56,3.56,3.56,3.56,3.56,3.56,0.0,0.0,1.1805,1.1805,1.1301,1.0892,1.0812,1.0409,0.9977,0.0,0.0,0.0,0.0,0.0,0.0,0.0,0.0,0.0,0.0,0.0,1.1584,1.2174,1.1619,1.1435,1.1684,0.0,0.0,0.0,0.0,0.0,0.0,0.0,0.0,0.0,1.207,1.2822,1.4511,1.3463,1.3747,1.5058,1.6794,1.7661,0.0,0.0,1.9648,1.9708,1.9708,1.9708,1.9708,1.9708,1.9295,1.8807,1.8807,1.8395,1.8042,1.8634,1.8807,0.0,1.9534,1.9744,0.0,2.0458,2.0243,0.0,2.2089,2.2808,2.3509,2.4998,2.5699,2.6344,2.7209,2.7429,2.7665,2.8268,2.8873,2.958,3.0463,3.1107,3.1773,3.2509,3.2676,3.2722,3.2722,3.3313,3.3962,3.4552,3.5219,3.56,3.56,3.56,3.56,3.56,3.56,3.56,3.56,3.56,3.56,3.56,3.56,3.56,3.56,3.56,3.56,3.56,3.56,3.56,3.56,3.56,3.56,3.56,3.56,3.56,3.56,3.56,3.56,3.56,0.0,0.0,1.1805,1.1805,1.1685,1.1426,1.0872,1.1156,1.1133,0.0,0.0,0.0,0.0,0.0,0.0,0.0,0.0,0.0,0.0,0.0,1.2061,1.219,1.1619,1.1435,1.1684,1.1691,0.0,0.0,0.0,0.0,0.0,0.0,0.0,0.0,1.1865,1.2325,1.3238,1.4062,1.4871,1.5649,1.6016,1.7431,1.928,1.9001,1.9235,1.9708,1.9708,1.9708,1.9708,1.9708,1.9609,1.9504,1.9504,1.9414,1.9339,1.9468,1.9504,1.9534,1.9654,2.0094,2.0413,1.9998,2.0612,0.0,2.1116,2.1158,2.1859,2.4138,2.4265,2.4651,2.6846,2.7253,2.7301,2.7432,2.805,2.8983,3.0325,3.1082,3.1766,3.2516,3.3067,3.3404,3.3404,3.4012,3.4455,3.4588,3.5219,3.56,3.56,3.56,3.56,3.56,3.56,3.56,3.56,3.56,3.56,3.56,3.56,3.56,3.56,3.56,3.56,3.56,3.56,3.56,3.56,3.56,3.56,3.56,3.56,3.56,3.56,3.56,3.56,3.56,0.0,1.1437,1.1595,1.1763,1.1665,1.1492,1.1325,1.1447,0.0,0.0,0.0,0.0,0.0,0.0,0.0,0.0,0.0,0.0,0.0,0.0,1.2205,1.2205,1.1775,1.16,1.1697,1.1691,1.1861,0.0,0.0,0.0,0.0,0.0,0.0,0.0,0.0,1.287,1.3837,1.4505,1.5552,1.678,1.7109,1.8022,1.9205,1.9205,1.9414,1.9708,1.9708,1.9708,1.9708,1.9708,1.9708,1.9768,2.0094,2.0198,2.0198,2.0198,2.0198,2.0133,1.9789,1.9953,2.0198,2.0198,2.0447,0.0,0.0,2.1829,2.249,2.44,2.4279,2.4385,2.6341,2.646,2.6596,2.7636,2.8591,2.9487,3.0288,3.1008,3.1853,3.2913,3.3356,3.3549,3.3601,3.4211,3.4736,3.5075,3.5407,3.56,3.56,3.56,3.56,3.56,3.56,3.56,3.56,3.56,3.56,3.56,3.56,3.56,3.56,3.56,3.56,3.56,3.56,3.56,3.56,3.56,3.56,3.56,3.56,3.56,3.5566,3.5219,3.5299,3.5538,0.0,1.149,1.1395,1.1665,1.1587,1.1603,1.194,1.1867,0.0,0.0,0.0,0.0,0.0,0.0,0.0,0.0,0.0,0.0,0.0,1.2786,1.2391,1.2391,1.201,1.1797,1.1819,1.1736,1.1996,0.0,0.0,0.0,0.0,1.211,1.2155,1.281,0.0,0.0,0.0,0.0,0.0,1.7938,1.8484,1.8777,1.8957,1.9489,1.9708,1.9708,1.9708,1.9708,1.9708,1.9708,1.9708,1.9789,2.0348,2.0608,2.0703,2.0703,2.0787,2.0772,2.0238,2.0187,2.0342,2.0623,2.0483,2.0606,0.0,0.0,0.0,2.442,2.4337,2.4451,2.5763,2.5612,2.586,2.7646,2.8831,2.9597,2.9785,3.046,3.1471,3.2912,3.3322,3.351,3.3562,3.4076,3.4733,3.5549,3.5464,3.5459,3.5583,3.56,3.56,3.56,3.56,3.56,3.56,3.56,3.56,3.56,3.56,3.56,3.56,3.56,3.56,3.56,3.56,3.56,3.56,3.56,3.56,3.56,3.56,3.56,3.5515,3.4859,3.4941,3.5339,1.1408,1.1324,1.1307,1.1341,1.1823,1.2301,1.2644,1.3151,0.0,0.0,0.0,0.0,0.0,0.0,0.0,0.0,0.0,0.0,1.4919,1.3786,1.3091,1.3091,1.2258,1.1933,1.223,1.1876,1.1912,1.2345,0.0,0.0,0.0,0.0,1.2155,1.2831,1.3421,1.443,1.5716,0.0,1.7302,1.8589,1.8664,1.9055,1.9594,1.9669,1.9708,1.9708,1.9708,1.9708,1.9708,1.9708,1.9708,1.9708,1.9789,2.0228,2.0703,2.0703,2.1116,2.156,2.1485,2.1909,2.2089,2.0982,2.154,2.1954,2.0397,0.0,2.2028,2.2599,0.0,2.3863,2.5083,0.0,0.0,2.6161,2.692,2.7589,2.8019,2.8765,2.9858,3.1461,3.2693,3.3433,3.3501,3.3583,3.4179,3.5487,3.4996,3.4912,3.5566,3.56,3.56,3.56,3.56,3.56,3.56,3.56,3.56,3.56,3.56,3.56,3.56,3.56,3.56,3.56,3.56,3.56,3.56,3.56,3.56,3.56,3.56,3.56,3.5515,3.4859,3.4652,3.47,1.1378,1.1296,0.0,1.1296,1.1537,1.1963,1.2694,1.3795,1.4687,0.0,0.0,0.0,1.6817,1.6167,1.6024,1.691,1.5836,1.5156,1.5201,1.4532,0.0,1.3567,1.3166,1.276,1.2312,1.2133,1.2127,1.2305,1.1741,0.0,0.0,0.0,1.2744,1.3427,1.449,1.5478,1.6368,1.7003,1.7601,1.8147,1.8544,1.8867,1.9151,1.9549,1.9708,1.9708,1.9708,1.9953,2.0288,2.0288,2.0288,2.0423,2.1205,2.1375,2.1365,2.1749,2.2064,2.2198,2.1809,2.1914,2.1989,2.1425,2.141,2.1425,2.0961,0.0,2.2271,2.2861,0.0,0.0,0.0,0.0,0.0,0.0,2.6924,2.7745,2.8406,2.879,2.9569,3.1093,3.1389,3.1834,3.273,3.3199,3.3683,3.427,3.4438,3.4641,3.4945,3.5374,3.56,3.56,3.56,3.56,3.56,3.56,3.56,3.56,3.56,3.56,3.56,3.56,3.56,3.56,3.56,3.56,3.56,3.56,3.56,3.56,3.56,3.56,3.547,3.4411,3.4272,3.4491,1.1253,0.0,0.0,1.1202,1.1393,1.1983,1.3166,1.4448,1.5387,1.5645,1.6225,1.6906,1.7616,1.7099,1.6963,1.7676,1.6872,1.6245,1.6092,1.5453,1.4939,1.4613,1.4075,1.3576,1.308,1.2559,1.2458,1.2785,1.1966,1.2182,0.0,0.0,1.3427,1.4132,1.5463,1.6391,1.7025,1.769,1.8072,1.8267,1.8574,1.8807,1.9031,1.9504,1.9708,1.9708,1.9708,2.0225,2.0918,2.0918,2.1126,2.1539,2.2359,2.2415,2.2234,2.2594,2.2823,2.2838,2.2348,2.2218,2.2143,2.1794,2.1326,2.1012,2.1126,0.0,0.0,2.2872,2.3359,0.0,0.0,0.0,0.0,0.0,0.0,2.773,2.811,2.8187,2.8725,3.0205,3.0085,3.0352,3.1579,3.2357,3.2882,3.3085,3.3603,3.4077,3.4483,3.5013,3.5391,3.5583,3.56,3.56,3.56,3.56,3.56,3.56,3.56,3.56,3.56,3.56,3.5504,3.5339,3.5339,3.5339,3.5339,3.5339,3.543,3.56,3.56,3.56,3.5436,3.4087,3.3786,3.3912,1.0974,1.1115,0.0,1.0962,1.1658,1.2829,1.4473,1.5335,1.5987,1.6577,1.6681,1.6943,1.7631,1.7677,1.8111,1.9229,1.829,1.7824,1.8276,1.6718,1.6016,1.6577,1.48,1.4186,1.4997,1.3232,1.2872,1.4048,1.2851,1.3113,0.0,0.0,0.0,1.4819,1.6107,1.7032,1.7705,1.8371,1.9031,1.9588,1.8957,1.9091,1.9669,1.9693,1.9708,1.9708,1.9708,2.0472,2.1461,2.1461,2.2213,2.3028,2.2561,2.2849,2.3253,2.2827,2.3112,2.3565,2.3535,2.3535,2.3236,2.2009,2.168,2.1321,2.0067,2.1275,2.2514,0.0,0.0,0.0,0.0,0.0,0.0,0.0,0.0,0.0,0.0,2.6097,2.6634,2.8117,2.891,2.9553,3.0128,3.0835,3.1572,3.2276,3.2361,3.2987,3.4415,3.4516,3.4861,3.5583,3.56,3.56,3.56,3.56,3.56,3.56,3.56,3.56,3.56,3.56,3.5242,3.4624,3.4624,3.4624,3.4624,3.4624,3.5,3.56,3.56,3.56,3.5436,3.4087,3.3195,3.2654,0.0,0.0,0.0,1.1013,1.186,1.3263,1.5178,1.6376,1.7288,1.7938,1.8225,1.8525,1.8968,1.8824,1.8932,1.9548,1.9247,1.8906,1.8613,1.8044,1.7602,1.7369,1.6734,1.6315,1.6163,1.5144,1.4442,1.4098,1.3559,1.3447,0.0,0.0,0.0,0.0,1.6607,1.7496,1.7765,1.8897,1.9235,1.9025,1.8792,1.9091,1.9708,1.9708,1.9983,2.0354,2.0354,2.1398,2.2763,2.2763,2.3245,2.3845,2.3748,2.3572,2.3396,2.3325,2.343,2.3595,2.3595,2.3595,2.34,2.2573,2.2034,2.147,2.0572,2.157,0.0,0.0,0.0,0.0,0.0,0.0,0.0,0.0,0.0,0.0,0.0,2.5689,2.5793,2.6645,2.784,2.8569,2.8573,2.9372,3.0152,3.0789,3.1384,3.2307,3.3689,3.4235,3.4844,3.5583,3.56,3.56,3.56,3.56,3.56,3.56,3.56,3.56,3.56,3.56,3.523,3.46,3.46,3.46,3.46,3.46,3.5005,3.56,3.56,3.5247,3.4645,3.3874,3.3628,3.3682,1.2389,1.2304,1.2121,1.1809,1.2774,1.4081,1.556,1.6714,1.7724,1.8587,1.8891,1.9208,1.9651,1.9505,1.9457,1.9681,1.9708,1.9528,1.9076,1.8828,1.8604,1.8424,1.7953,1.744,1.6913,1.6233,1.5363,1.4319,1.4091,1.3876,1.3679,0.0,0.0,0.0,0.0,1.7705,1.778,1.913,1.9444,1.9085,1.9331,1.9675,2.0079,2.0312,2.0528,2.0747,2.1156,2.233,2.3714,2.3903,2.4358,2.4823,2.4729,2.426,2.3741,2.3631,2.3595,2.3595,2.3595,2.3595,2.3456,2.2853,2.2538,2.2143,2.1251,2.2263,2.3191,0.0,0.0,0.0,0.0,0.0,0.0,0.0,0.0,0.0,0.0,2.5118,2.5115,2.5652,2.6719,2.7413,2.7417,2.8042,2.8711,2.9348,2.9982,3.1028,3.2594,3.3398,3.4224,3.5177,3.5459,3.56,3.56,3.56,3.56,3.56,3.56,3.56,3.56,3.535,3.4882,3.4235,3.4,3.4025,3.4248,3.4248,3.4788,3.56,3.56,3.5259,3.4669,3.389,3.3612,3.3644,1.3211,1.2907,1.2704,1.3316,1.4285,1.521,1.5853,1.6506,1.7371,1.8589,1.8747,1.8986,1.9633,1.9708,1.9708,1.9708,1.9708,1.9708,1.9708,1.9091,1.9031,1.9669,1.8484,1.7685,1.7423,1.6579,1.5691,1.4836,1.456,1.4459,1.4519,0.0,0.0,0.0,1.6934,0.0,1.7848,1.9136,1.9714,1.9803,2.0473,2.0757,2.0823,2.15,2.137,2.0991,2.2064,2.3226,2.4337,2.487,2.5471,2.5906,2.5364,2.4841,2.4287,2.3752,2.3595,2.3595,2.3595,2.3625,2.3505,2.2942,2.3231,2.3325,2.2113,2.33,2.4455,2.3789,0.0,0.0,0.0,0.0,0.0,0.0,0.0,0.0,0.0,0.0,2.4632,2.5144,2.567,2.6183,2.6624,2.6901,2.7332,2.8007,2.824,2.9232,3.1259,3.2089,3.3101,3.44,3.5211,3.5588,3.5538,3.5538,3.5526,3.5504,3.5504,3.5504,3.5481,3.4847,3.4186,3.3521,3.2882,3.2973,3.3595,3.3595,3.4374,3.5549,3.5588,3.5571,3.5372,3.4072,3.3165,3.2691,1.3993,1.4875,1.5483,1.5214,1.4994,1.5543,1.7639,1.7682,1.796,1.9277,1.9444,1.9504,1.9678,1.9708,1.9708,1.9708,1.9708,1.9708,1.9708,1.9534,1.9519,1.9693,1.9369,1.9159,1.9091,1.8389,1.7569,1.6629,1.6358,1.5682,1.4673,0.0,0.0,0.0,0.0,1.7983,1.8499,1.9339,1.9998,2.0503,2.1171,2.144,2.1515,2.2183,2.2551,2.2757,2.3037,2.3922,2.5024,2.5564,2.5865,2.5906,2.5364,2.4841,2.4287,2.3752,2.3595,2.3595,2.3595,2.3958,2.4306,2.4141,2.4231,2.4261,2.3932,2.4631,2.5143,2.447,0.0,0.0,0.0,0.0,0.0,0.0,0.0,0.0,0.0,2.4491,2.5057,2.5192,2.567,2.6049,2.6174,2.6329,2.673,2.7453,2.7643,2.8618,3.0626,3.186,3.2905,3.3804,3.4987,3.5362,3.4854,3.4859,3.4604,3.4116,3.4116,3.4116,3.4116,3.3937,3.3479,3.2841,3.2668,3.2973,3.3595,3.3595,3.4099,3.4906,3.5407,3.517,3.4484,3.3779,3.3728,3.4084,1.5279,1.6123,1.6767,1.6733,1.6152,1.6384,1.8391,1.8424,1.8579,1.9567,1.9708,1.9708,1.9708,1.9708,1.9708,1.9708,1.9708,1.9708,1.9708,1.9708,1.9708,1.9708,1.9708,1.9593,1.936,1.8973,1.8303,1.7297,1.6682,0.0,1.549,0.0,0.0,0.0,0.0,1.835,1.8762,1.9735,2.0354,2.0778,2.1749,2.2139,0.0,2.2842,2.3406,2.3866,2.4096,2.461,2.5278,2.5824,2.5689,2.525,2.4959,2.4481,2.3991,2.3692,2.3595,2.367,2.3958,2.4306,2.4668,2.4963,2.5259,2.5319,2.4728,2.5349,2.5854,2.5184,2.5633,2.6333,0.0,0.0,0.0,0.0,0.0,0.0,0.0,2.4521,2.5115,2.4875,2.5531,2.5824,2.5345,2.5374,2.5705,2.6425,2.6592,2.7408,2.9101,3.0766,3.1985,3.2658,3.4001,3.4544,3.4174,3.4161,3.3975,3.3595,3.3595,3.3595,3.3582,3.3287,3.2946,3.2573,3.2258,3.268,3.3569,3.3287,3.3735,3.4588,3.4471,3.4077,3.3563,3.3292,3.3739,3.4548,1.6526,1.6787,1.7129,1.7793,1.7497,1.754,1.867,1.8855,1.9067,1.9639,1.9708,1.9708,1.9708,1.9708,1.9708,1.9708,1.9708,1.9708,1.9708,1.9708,1.9708,1.9708,1.9708,1.9479,1.9006,1.8996,1.8479,1.7403,1.647,0.0,0.0,0.0,0.0,0.0,0.0,1.8807,1.9038,2.0294,2.0882,2.1071,2.2318,2.2823,2.2882,2.3396,2.3927,2.4461,2.4924,2.5192,2.5373,2.5843,2.5326,2.4491,2.442,2.4032,2.3595,2.3595,2.3595,2.3744,2.4425,2.4653,2.4889,2.5558,2.6243,2.6435,2.5259,2.5839,2.6447,2.5948,2.5706,2.5982,2.7219,0.0,0.0,0.0,0.0,0.0,2.3729,2.4523,2.4914,2.4461,2.5221,0.0,2.4491,2.44,2.4642,2.5247,2.5398,2.6025,2.7307,2.9341,3.0742,3.1362,3.2821,3.3556,3.3469,3.3469,3.3414,3.3323,3.3323,3.3323,3.3313,3.272,3.2465,3.2424,3.1782,3.2256,3.3414,3.2841,3.33,3.4272,3.3153,3.2737,3.2796,3.2661,3.3364,3.4383,1.6266,1.6664,1.7237,1.7802,1.826,1.8771,1.9418,1.909,1.8965,1.9624,1.9708,1.9708,1.9708,1.9708,1.9708,1.9708,1.9708,1.9708,1.9708,1.9708,1.9708,1.9708,1.9708,1.9657,1.9566,1.9566,1.9037,1.796,1.7761,0.0,0.0,0.0,0.0,0.0,0.0,1.9307,2.0399,2.1201,2.1844,2.2418,2.3156,2.343,2.3445,2.355,2.3927,2.441,2.4511,2.5115,2.5879,2.5961,2.5587,2.4973,2.4542,2.4032,2.3595,2.3595,2.3595,2.3744,2.4425,2.4993,2.5588,2.6258,2.6929,2.736,2.7136,2.6824,2.6687,2.7025,2.6288,2.5815,2.6485,0.0,0.0,0.0,0.0,2.4425,2.4425,2.4494,2.4511,2.441,2.4572,2.4612,2.442,2.44,2.4486,2.4724,2.4766,2.535,2.6693,2.8676,3.0086,3.0748,3.2622,3.3326,3.2774,3.279,3.2477,3.1866,3.1866,3.1866,3.1866,3.1739,3.1697,3.1697,3.1553,3.1993,3.2776,3.2641,3.2841,3.3101,3.2131,3.218,3.2706,3.1989,3.2557,3.3754,1.6883,1.7134,1.7314,1.7199,1.845,1.9677,2.0288,2.0312,2.0124,1.9753,1.9708,1.9708,1.9708,2.0013,2.0228,2.0228,2.0537,2.0732,2.0732,2.0732,2.0732,2.0732,2.0732,2.0732,2.0732,2.0393,1.9965,1.945,1.8541,1.7964,1.7672,0.0,0.0,1.8487,0.0,2.0099,2.0772,2.1794,2.2403,2.2748,2.3366,2.3595,2.3627,2.3911,2.4178,2.444,2.4722,2.5154,2.5549,2.5269,2.4806,2.4328,2.4064,2.3805,2.367,2.4018,2.4122,2.4347,2.5364,2.5857,2.6273,2.6944,2.736,2.751,2.7165,2.704,2.6989,2.6903,2.6642,2.6313,2.5946,2.5439,0.0,0.0,2.4077,2.4077,2.4077,2.4267,2.4297,2.4012,2.4225,2.4287,2.4012,2.398,2.4016,2.4085,2.4395,2.5023,2.6033,2.7953,2.9348,3.0062,3.1631,3.2318,3.2035,3.2021,3.1853,3.1511,3.1511,3.1511,3.1511,3.1511,3.1511,3.1511,3.1511,3.1924,3.26,3.26,3.2422,3.2131,3.1668,3.1765,3.2064,3.166,3.2183,3.3185,1.7342,1.7374,1.7178,1.6595,1.8212,1.9951,2.0984,2.154,2.142,2.0268,2.0127,2.0127,2.0127,2.0602,2.0907,2.0907,2.1395,2.1695,2.1695,2.1695,2.1695,2.1695,2.1695,2.1695,2.1695,2.1176,2.0799,2.0536,1.9159,1.8773,1.9298,0.0,0.0,0.0,2.0458,2.0862,2.1191,2.2243,2.2778,2.2932,2.3411,2.3595,2.3649,2.4074,2.44,2.4668,2.4972,2.5247,2.5393,2.4834,2.4255,2.3801,2.3972,2.3924,2.3943,2.4619,2.4814,2.5068,2.6273,2.6599,2.6764,2.7435,2.76,2.742,2.6749,2.6907,2.7025,2.6465,2.6687,2.6619,2.5414,2.498,2.459,2.3913,2.3819,2.3819,2.3819,2.404,2.4074,2.3649,2.3863,2.3911,2.3623,2.3475,2.346,2.3595,2.4092,2.4739,2.5558,2.7201,2.8491,2.9352,3.0574,3.1229,3.1286,3.1436,3.1511,3.1511,3.1511,3.1511,3.1511,3.1511,3.1511,3.1511,3.1511,3.1824,3.2368,3.2368,3.2021,3.1511,3.1511,3.1511,3.1525,3.166,3.2064,3.2557,1.6689,1.6595,1.6573,1.6511,1.7488,1.9044,2.1287,2.1989,2.2069,2.1585,2.15,2.15,2.15,2.156,2.1605,2.1605,2.1665,2.1695,2.1695,2.1695,2.1695,2.1695,2.1695,2.1695,2.1695,2.1635,2.1065,1.9966,1.982,1.9166,1.8085,1.8589,1.9451,2.0608,2.0668,2.138,2.2523,2.2643,2.3017,2.352,2.358,2.3595,2.3606,2.3659,2.4382,2.5335,2.4825,2.5404,2.6293,2.569,2.4971,2.4456,2.5176,2.5005,2.4634,2.5319,2.5513,2.5674,2.6393,2.6599,2.6764,2.7435,2.76,2.742,2.6749,2.6541,2.6434,2.6255,2.6255,2.5921,2.4724,2.5052,2.5289,2.4619,2.4515,2.4515,2.4515,2.4032,2.3659,2.3606,2.3164,2.3055,2.355,2.3112,2.3007,2.355,2.3655,2.4242,2.5528,2.6348,2.738,2.8652,2.9918,3.0592,3.0597,3.1197,3.1511,3.1511,3.1511,3.1511,3.1511,3.1511,3.1511,3.1511,3.1511,3.1554,3.1596,3.1596,3.1553,3.1511,3.1511,3.1511,3.157,3.2168,3.2064,3.1795,1.6629,1.65,1.6925,1.8242,2.0105,2.1731,2.2694,2.2977,2.3011,2.2862,2.2173,2.1784,2.2024,2.2198,2.2298,2.2298,2.2633,2.2832,2.2832,2.2832,2.2832,2.2832,2.2832,2.2832,2.2832,2.2493,2.2062,2.1576,2.0452,1.9637,1.9099,1.8954,1.9359,2.019,2.0965,2.1608,2.2147,2.2918,2.361,2.4201,2.4201,2.4436,2.4841,2.5158,2.5403,2.5568,2.5658,2.5792,2.5978,2.6144,2.5721,2.5186,2.5505,2.5423,2.5322,2.6004,2.6198,2.6348,2.7031,2.721,2.727,2.7525,2.76,2.752,2.7154,2.6984,2.6836,2.6658,2.6086,2.544,2.4968,2.4613,2.4302,2.4033,2.4003,2.4003,2.4003,2.3774,2.3595,2.3595,2.3396,2.3336,2.358,2.337,2.3505,2.4141,2.3834,2.4193,2.5528,2.6198,2.7163,2.856,2.9845,3.0497,3.0492,3.1152,3.1511,3.1511,3.1511,3.1511,3.1511,3.1511,3.1511,3.1511,3.1511,3.1511,3.1511,3.1511,3.1511,3.1511,3.1511,3.175,3.2079,3.1944,3.2243,3.2662,1.6638,1.65,1.7433,2.0395,2.2398,2.3595,2.3595,2.3595,2.3595,2.3595,2.2817,2.2378,2.2652,2.2842,2.2962,2.2962,2.3351,2.3595,2.3595,2.3595,2.3595,2.3595,2.3595,2.3595,2.3595,2.3186,2.2882,2.2703,2.1184,2.0323,2.0125,1.9468,1.959,2.0397,2.1307,2.2018,2.2604,2.3514,2.4287,2.4889,2.4889,2.5184,2.5635,2.6009,2.6153,2.6186,2.639,2.6458,2.6505,2.6795,2.6584,2.6183,2.6183,2.6048,2.6033,2.6704,2.6884,2.6988,2.7465,2.76,2.76,2.76,2.76,2.751,2.7188,2.7162,2.7137,2.689,2.5975,2.5202,2.5202,2.4318,2.3595,2.3595,2.3774,2.3883,2.3883,2.3883,2.3883,2.3883,2.3565,2.3411,2.358,2.343,2.3598,2.4231,2.4041,2.4477,2.5812,2.6298,2.7174,2.856,2.9666,3.032,3.0492,3.1152,3.1511,3.1511,3.1511,3.1511,3.1511,3.1511,3.1511,3.1511,3.1511,3.1511,3.1511,3.1511,3.1615,3.1795,3.1795,3.2198,3.2751,3.2422,3.2811,3.3425,1.6638,1.65,1.7984,2.2727,2.3573,2.3595,2.3595,2.3595,2.3595,2.3595,2.3595,2.358,2.358,2.3595,2.3595,2.3595,2.3595,2.3595,2.3595,2.3595,2.3595,2.3595,2.3595,2.3595,2.3595,2.3595,2.3306,2.2703,2.2007,2.1345,2.0678,2.0066,2.0458,2.1679,2.1693,2.2779,2.4578,2.4578,2.4963,2.5588,2.5588,2.5588,2.5603,2.5615,2.6385,2.7396,2.6811,2.7403,2.8376,2.7783,2.7585,2.757,2.757,2.7108,2.6719,2.739,2.7585,2.7585,2.76,2.76,2.76,2.76,2.76,2.7389,2.6588,2.6827,2.7104,2.6772,2.5908,2.5202,2.5202,2.4318,2.3595,2.3595,2.4167,2.459,2.459,2.459,2.459,2.459,2.3475,2.2957,2.3535,2.3052,2.2923,2.3473,2.4184,2.5173,2.6524,2.6584,2.7213,2.8562,2.9262,0.0,3.0492,3.1152,3.1511,3.1511,3.1511,3.1511,3.1511,3.1511,3.1511,3.1511,3.1511,3.1511,3.1511,3.1511,3.1884,3.2482,3.2482,3.2901,3.3544,3.3993,3.3873,3.3679,1.8807,2.0156,2.1823,2.3337,2.3595,2.3595,2.3595,2.3595,2.3595,2.3595,2.3595,2.3595,2.3595,2.3595,2.3595,2.3595,2.3595,2.3595,2.3595,2.3595,2.3595,2.3595,2.4033,2.4276,2.4276,2.4735,2.4623,2.3923,2.289,2.1597,2.0082,2.0304,2.0903,2.1806,2.2623,2.3629,2.4704,2.5111,2.5674,2.6273,2.6273,2.6554,2.6958,2.6958,2.7226,2.7539,2.7345,2.7542,2.786,2.766,2.76,2.76,2.76,2.745,2.7402,2.803,2.7919,2.7685,2.8104,2.7907,2.76,2.76,2.76,2.7618,2.7673,2.7642,2.7437,2.6826,2.5892,2.5202,2.5202,2.4318,2.3744,2.4201,2.4455,2.4769,2.5229,2.5277,2.5113,2.4649,2.4231,2.3883,2.3625,2.3838,2.3907,2.3651,2.508,2.5919,2.5858,2.634,2.72,2.8562,2.9249,0.0,3.0492,3.1152,3.1511,3.1511,3.1511,3.1511,3.1511,3.1511,3.1511,3.1511,3.1511,3.1511,3.154,3.1989,3.2318,3.2512,3.2647,3.323,3.3844,3.2766,3.3424,3.4921,1.9888,2.185,2.3595,2.3595,2.3595,2.3595,2.3595,2.3595,2.3595,2.3595,2.3595,2.3789,2.4298,2.4358,2.4283,2.4144,2.4253,2.4358,2.4358,2.4358,2.4358,2.4358,2.475,2.4978,2.4978,2.5393,2.5242,2.4507,2.3225,2.185,2.0452,2.1113,2.1786,2.2528,2.3549,2.4538,2.5436,2.5816,2.6363,2.6986,2.6986,2.7225,2.76,2.76,2.76,2.76,2.76,2.76,2.76,2.76,2.76,2.76,2.76,2.76,2.7673,2.8042,2.8055,2.7968,2.8116,2.7897,2.76,2.76,2.7773,2.8062,2.8527,2.8076,2.7545,2.7561,2.6305,2.5282,2.5564,2.4672,2.4053,2.4519,2.4814,2.5202,2.5872,2.5974,2.5734,2.5064,2.4978,2.4709,2.4033,2.4333,2.4393,2.3989,2.5579,2.6342,2.5851,2.6812,2.7844,2.8949,2.9608,3.0238,3.0867,3.1286,3.1511,3.1511,3.1511,3.1511,3.1511,3.1511,3.1511,3.1511,3.1511,3.1645,3.1884,3.2063,3.2527,3.3125,3.308,3.3723,3.4562,3.3424,3.4052,3.5504,2.0283,2.2119,2.3879,2.3879,2.3714,2.3595,2.3595,2.3595,2.3595,2.3595,2.3595,2.4148,2.5573,2.5749,2.5555,2.5125,2.5402,2.5603,2.5603,2.5603,2.5603,2.5603,2.5648,2.5663,2.5663,2.5719,2.5363,2.456,2.315,2.214,2.1571,2.2345,2.3057,2.3696,2.4472,2.5516,2.6674,2.6674,2.7031,2.76,2.76,2.763,2.766,2.7615,2.766,2.772,2.763,2.763,2.766,2.766,2.763,2.76,2.7645,2.7683,2.7648,2.7648,2.803,2.8319,2.7798,2.7638,2.76,2.76,2.8091,2.8673,2.9107,2.8217,2.7618,2.8704,2.702,2.5544,2.618,2.5314,2.4547,2.4777,2.5282,2.5911,2.663,2.6698,2.6422,2.5737,2.5663,2.5397,2.4656,2.4582,2.4478,2.4282,2.5658,2.6459,2.6327,2.783,2.8966,2.9638,3.0208,3.0822,3.1496,3.1511,3.1511,3.1511,3.1511,3.1511,3.1511,3.1511,3.1511,3.1511,3.1555,3.1914,3.2467,3.1914,3.2677,3.4158,3.3784,3.4397,3.5504,3.5504,3.5504,3.5504,2.2572,2.4835,2.6656,2.6656,2.4953,2.3595,2.3595,2.3595,2.3595,2.3595,2.3595,2.4492,2.6869,2.7136,2.6821,2.6069,2.5746,2.5603,2.5603,2.5603,2.5603,2.5603,2.6093,2.6363,2.6363,2.6854,2.6488,2.52,2.3672,2.2641,2.2148,2.3346,2.4038,2.4331,2.5546,2.655,2.736,2.736,2.745,2.76,2.76,2.7914,2.8321,2.7782,2.8244,2.8992,2.7959,2.7931,2.8353,2.8353,2.8021,2.769,2.8201,2.8334,2.8298,2.8298,2.8067,2.787,2.8201,2.7944,2.76,2.76,2.84,2.9181,2.92,2.9293,2.9178,2.8464,2.7505,2.6723,2.6437,2.5796,2.5637,2.6657,2.6558,2.6754,2.7888,2.7655,2.7121,2.645,2.6363,2.5874,2.4629,2.4976,2.4608,0.0,2.5125,2.6273,2.5744,2.8031,2.9653,3.0268,3.0432,3.0822,3.1496,3.1511,3.1511,3.1511,3.1511,3.1511,3.1511,3.1511,3.1511,3.1525,3.2034,3.2347,3.2557,3.326,3.3814,3.4262,3.4816,3.522,3.5504,3.5504,3.5504,3.5504,2.345,2.5761,2.76,2.76,2.6402,2.5222,2.4612,2.5042,2.5432,2.5432,2.5432,2.5971,2.7435,2.76,2.7405,2.6938,2.6659,2.6509,2.6509,2.6509,2.6509,2.6509,2.6854,2.7048,2.7048,2.7405,2.6877,2.5398,2.4221,2.3495,2.3243,2.4647,2.5342,2.5451,2.6521,2.7229,2.7615,2.7929,2.8051,2.8081,2.8393,2.8725,2.9024,2.8663,2.8978,2.9503,2.8783,2.874,2.9069,2.9069,2.8815,2.8588,2.8934,2.902,2.8997,2.8997,2.853,2.8018,2.8067,2.7848,2.7735,2.828,2.8915,2.9532,3.0021,2.9925,2.9609,2.918,2.8359,2.7629,2.7357,2.7021,2.7037,2.7791,2.74,2.7373,2.8359,2.7981,2.7345,2.6674,2.6569,2.6128,2.5058,2.4952,2.4477,2.3355,2.5246,2.6413,2.6328,2.8674,3.0163,3.0492,3.0792,3.1122,3.1511,3.1511,3.1511,3.1511,3.1511,3.1511,3.1511,3.1511,3.1511,3.154,3.2213,3.2662,3.3021,3.3858,3.4442,3.4846,3.5325,3.5504,3.5504,3.5504,3.5504,3.5504,2.3595,2.5761,2.76,2.76,2.76,2.7225,2.6078,2.6869,2.76,2.76,2.76,2.76,2.76,2.76,2.76,2.76,2.76,2.76,2.76,2.76,2.76,2.76,2.76,2.76,2.76,2.7484,2.6824,2.5563,2.4837,2.4466,2.4508,2.5963,2.6654,2.6694,2.7532,2.7899,2.7944,2.8515,2.8742,2.8801,2.9368,2.9653,2.9728,2.9623,2.9713,2.9862,2.9668,2.9653,2.9743,2.9743,2.9683,2.9621,2.9713,2.9668,2.9593,2.9593,2.916,2.8557,2.8037,2.7885,2.8127,2.9154,2.9473,2.9827,3.0955,3.0362,2.9721,3.0209,2.9351,2.8519,2.8549,2.8467,2.8408,2.8533,2.8052,2.7837,2.8422,2.7981,2.7353,2.6673,2.6529,2.6188,2.5408,2.4694,2.4288,2.4264,2.559,2.6701,2.7396,2.9375,3.0552,3.0657,3.1197,3.1511,3.1511,3.1511,3.1511,3.1511,3.1511,3.1511,3.1511,3.1511,3.1511,3.154,3.2318,3.2976,3.3544,3.4143,3.4831,3.5504,3.5504,3.5504,3.5504,3.5504,3.5504,3.5504,2.3595,2.5761,2.76,2.76,2.76,2.7525,2.733,2.7465,2.76,2.76,2.76,2.76,2.76,2.76,2.76,2.76,2.76,2.76,2.76,2.76,2.76,2.76,2.76,2.76,2.76,2.6982,2.6563,2.6323,2.5591,2.5231,2.5259,2.6689,2.7343,2.7399,2.8702,2.9279,2.9307,2.9398,2.9443,2.9443,2.9563,2.9907,3.0298,2.9788,3.0268,3.1062,2.9997,2.9937,3.0357,3.0357,3.0027,2.9683,3.0193,3.0012,2.9593,2.9593,2.9524,2.9412,2.9319,2.9262,2.9236,2.9369,2.9783,3.0335,3.1035,3.1057,3.0784,3.0381,3.0139,2.9823,2.9325,2.9228,2.9229,2.9237,2.8735,2.8375,2.8499,2.7981,2.7325,2.6604,2.6519,2.5972,2.4617,2.437,2.4225,2.4063,2.5499,2.6881,2.8004,2.9609,3.0762,3.1331,3.1451,3.1511,3.1511,3.1511,3.1511,3.1511,3.1511,3.1511,3.1511,3.1511,3.1511,3.157,3.2811,3.3395,3.3589,3.4801,3.5385,3.5504,3.5504,3.5504,3.5504,3.5504,3.5504,3.5504,2.5611,2.6746,2.76,2.76,2.76,2.76,2.76,2.76,2.76,2.76,2.76,2.76,2.76,2.76,2.76,2.76,2.76,2.775,2.8111,2.7809,2.76,2.76,2.7959,2.8306,2.8678,2.7914,2.7517,2.7517,2.7171,2.7017,2.7046,2.8111,2.8628,2.8656,2.9308,2.9593,2.9623,2.9952,3.0073,3.0118,3.0477,3.0792,3.1017,3.0732,3.0987,3.1421,3.0837,3.0792,3.1046,3.1046,3.0852,3.0673,3.0957,3.0852,3.0613,3.0613,3.0133,2.9672,3.004,3.012,3.0241,3.0912,3.0975,3.105,3.1655,3.1488,3.1025,3.0425,3.0566,3.0607,3.0005,3.0155,3.0261,2.9935,2.9384,2.8873,2.8547,2.7981,2.7331,2.659,2.6149,2.5481,2.4408,2.3914,2.3938,2.4598,2.5745,2.7126,2.8761,2.9897,3.0807,3.1481,3.1511,3.1511,3.1511,3.1511,3.169,3.2034,3.2034,3.2228,3.2572,3.2572,3.2572,3.2632,3.3604,3.4039,3.4113,3.51,3.5504,3.5504,3.5504,3.5504,3.5504,3.5504,3.5504,3.5504,2.7405,2.76,2.76,2.76,2.76,2.76,2.76,2.76,2.76,2.76,2.76,2.7824,2.844,2.85,2.8425,2.8216,2.8201,2.838,2.8801,2.8351,2.8064,2.8064,2.856,2.9071,2.9578,2.8999,2.8692,2.8692,2.8692,2.8692,2.8692,2.9452,2.9817,2.9817,2.9982,3.0043,3.0058,3.0537,3.0732,3.0777,3.1286,3.1511,3.1511,3.1511,3.1511,3.1511,3.1511,3.1511,3.1511,3.1511,3.1511,3.1511,3.1511,3.1511,3.1511,3.1511,3.0807,3.0161,3.069,3.0937,3.1293,3.2256,3.2183,3.1951,3.2235,3.186,3.1267,3.064,3.0878,3.1055,3.059,3.0888,3.0965,3.0208,2.9706,2.9134,2.8391,2.7882,2.7331,2.659,2.5837,2.516,2.455,2.3946,2.4154,2.5484,2.6521,2.7838,2.9521,3.0319,3.0972,3.1466,3.1511,3.157,3.1735,3.1735,3.2064,3.2721,3.2721,3.3006,3.3499,3.3499,3.3499,3.3529,3.4203,3.4503,3.4548,3.522,3.5504,3.5504,3.5504,3.5504,3.5504,3.5504,3.5504,3.5504,2.757,2.76,2.76,2.76,2.76,2.76,2.76,2.76,2.76,2.76,2.76,2.8515,3.0943,3.1212,3.0883,3.0076,3.0001,2.9865,2.9548,2.9473,2.9457,2.9457,2.9503,2.9548,2.9593,2.9537,2.951,2.951,2.951,2.951,2.9525,3.0149,3.0432,3.0462,3.1077,3.1361,3.1361,3.1406,3.1436,3.1436,3.1481,3.1511,3.1511,3.1511,3.1511,3.1511,3.1511,3.1511,3.1511,3.1511,3.1511,3.1511,3.1511,3.1511,3.1511,3.1511,3.1436,3.1383,3.1499,3.1926,3.238,3.2479,3.2883,3.3094,3.2452,3.2259,3.2002,3.1286,3.1171,3.1181,3.1151,3.1171,3.0828,2.9662,2.9429,2.8996,2.782,2.7638,2.7331,2.659,2.5837,2.531,2.5061,2.5043,2.5534,2.6686,2.8272,2.9477,3.0199,3.0984,3.1451,3.1511,3.1511,3.1795,3.2422,3.2422,3.2751,3.3425,3.3425,3.344,3.3499,3.3499,3.3499,3.3529,3.4203,3.4503,3.4548,3.522,3.5504,3.5504,3.5504,3.5504,3.5504,3.5504,3.5504,3.5504,2.76,2.76,2.76,2.76,2.76,2.76,2.76,2.76,2.76,2.76,2.9011,3.0403,3.1391,3.1017,3.0569,3.0225,2.997,2.9924,3.0133,3.0163,3.0163,3.0163,3.0163,3.0357,3.0777,3.0777,3.0777,3.0777,3.0777,3.0777,3.0777,3.1017,3.1122,3.1122,3.1391,3.1511,3.1511,3.1511,3.1511,3.1511,3.1511,3.1511,3.1511,3.1511,3.1511,3.1511,3.1511,3.1511,3.1511,3.1511,3.1511,3.1511,3.1511,3.1511,3.1511,3.1511,3.1511,3.1608,3.2086,3.2686,3.3385,3.4221,3.4251,3.4015,3.3738,3.297,3.2361,3.2527,3.2198,3.2012,3.2476,3.2198,3.148,3.0285,2.969,2.8973,2.7773,2.76,2.748,2.7151,2.6882,2.6638,2.6471,2.6497,2.7033,2.8357,2.904,2.9886,3.0999,3.1336,3.1511,3.1511,3.1511,3.163,3.1869,3.2288,3.2841,3.3515,3.3919,3.4338,3.4741,3.4741,3.4741,3.4756,3.5011,3.5115,3.513,3.54,3.5504,3.5504,3.5504,3.5504,3.5504,3.5504,3.5504,3.5504,2.76,2.76,2.76,2.76,2.76,2.76,2.76,2.8291,2.8816,2.8816,3.0388,3.1511,3.1511,3.0972,3.0614,3.0614,3.0358,3.0372,3.0792,3.0807,3.0807,3.0807,3.0807,3.1031,3.1496,3.1511,3.1511,3.1511,3.1248,3.1248,3.1496,3.1234,3.1263,3.1511,3.1511,3.1615,3.1809,3.1809,3.1929,3.2138,3.2138,3.2138,3.2138,3.2138,3.2138,3.2093,3.1884,3.1944,3.2093,3.1884,3.1944,3.2093,3.1869,3.1675,3.1511,3.1511,3.1511,3.1668,3.241,3.3093,3.3874,3.5005,3.5054,3.4776,3.455,3.3721,3.3061,3.3339,3.3011,3.2808,3.3322,3.282,3.2009,3.0988,3.0215,2.9385,2.8368,2.8229,2.8211,2.8172,2.7942,2.7824,2.7918,2.7946,2.8449,2.9608,2.9915,3.0469,3.1452,3.1511,3.16,3.1809,3.1809,3.1914,3.2138,3.2587,3.326,3.4128,3.4577,3.504,3.5504,3.5504,3.5504,3.5504,3.5504,3.5504,3.5504,3.5504,3.5504,3.5504,3.5504,3.5504,3.5504,3.5504,3.5504,3.5504,2.76,2.76,2.76,2.76,2.7627,2.763,2.763,2.982,3.1511,3.1511,3.1511,3.1511,3.1511,3.1511,3.1511,3.1511,3.1511,3.1511,3.1511,3.1511,3.1511,3.1511,3.1511,3.1511,3.1511,3.1511,3.1511,3.1496,3.0688,3.0688,3.1452,3.0659,3.0733,3.1496,3.1496,3.1869,3.2512,3.2512,3.2901,3.3499,3.3499,3.3499,3.3499,3.3499,3.3499,3.341,3.2751,3.2946,3.3395,3.2721,3.2961,3.338,3.2721,3.2049,3.1511,3.1511,3.1511,3.1668,3.2396,3.3079,3.3748,3.4431,3.5098,3.5408,3.4675,3.45,3.4286,3.3575,3.3413,3.3413,3.3413,3.2857,3.2217,3.1606,3.0939,3.0286,2.9672,2.9593,2.9593,2.9608,2.8902,2.8641,2.926,2.9377,2.9666,3.0256,3.1043,3.1511,3.1511,3.1511,3.1809,3.2482,3.2512,3.2841,3.3499,3.3499,3.4173,3.5489,3.5504,3.5504,3.5504,3.5504,3.5504,3.5504,3.5504,3.5504,3.5504,3.5504,3.5504,3.5504,3.5504,3.5504,3.5504,3.5504,3.5504,3.5504,2.76,2.76,2.76,2.76,2.9129,3.0344,3.0344,3.1002,3.1511,3.1511,3.1511,3.1511,3.1511,3.1511,3.1511,3.1511,3.1511,3.1511,3.1511,3.1511,3.1511,3.1511,3.1511,3.1511,3.1511,3.1511,3.1219,3.0659,3.0419,3.0103,2.975,3.0118,3.0651,3.1315,3.1931,3.2572,3.32,3.32,3.332,3.3499,3.3499,3.3499,3.3499,3.3499,3.3499,3.3469,3.3275,3.332,3.3469,3.3275,3.3335,3.3469,3.326,3.3066,3.2811,3.2347,3.2198,3.2152,3.1903,3.2339,3.3169,3.4321,3.5098,3.5532,3.5323,3.4878,3.4573,3.4884,3.4529,3.4336,3.485,3.3962,3.2971,3.2369,3.1281,3.0286,2.9672,2.9593,2.9758,3.0178,3.0027,3.0124,3.0791,3.085,3.0953,3.1116,3.1365,3.1511,3.1511,3.1944,3.2288,3.2482,3.2961,3.3514,3.4203,3.4203,3.4398,3.4802,3.528,3.5504,3.5504,3.5504,3.5504,3.5504,3.5504,3.5504,3.5504,3.5504,3.5504,3.5504,3.5504,3.5504,3.5504,3.5504,3.5504,3.5504,2.8349,2.88,2.9131,2.9131,3.0448,3.1511,3.1511,3.1511,3.1511,3.1511,3.1511,3.1511,3.1511,3.1511,3.1511,3.1511,3.1511,3.1511,3.1511,3.1511,3.1511,3.1511,3.1511,3.1511,3.1511,3.1511,3.1102,3.0299,3.0161,2.9838,2.9329,2.9741,3.0305,3.0996,3.1924,3.2723,3.3373,3.3734,3.4054,3.4292,3.4292,3.4292,3.4292,3.4292,3.4292,3.4262,3.3994,3.4084,3.4247,3.3978,3.3904,3.3904,3.3904,3.3724,3.3425,3.3021,3.2901,3.2751,3.2078,3.2416,3.3086,3.3659,3.4508,3.5265,3.5538,3.5256,3.5053,3.5509,3.5239,3.5081,3.5515,3.4475,3.3417,3.3058,3.1805,3.0779,3.0398,3.0357,3.0492,3.0852,3.0897,3.1047,3.1466,3.1511,3.1511,3.1511,3.175,3.1899,3.1899,3.2527,3.3021,3.3275,3.3679,3.4218,3.4892,3.4907,3.4907,3.4907,3.531,3.5504,3.5504,3.5504,3.5504,3.5504,3.5504,3.5504,3.5504,3.5504,3.5504,3.5504,3.5504,3.5504,3.5504,3.5504,3.5504,3.5504,2.9653,3.0702,3.1511,3.1511,3.1511,3.1511,3.1511,3.1511,3.1511,3.1511,3.1511,3.1511,3.1511,3.1438,3.138,3.135,3.138,3.1424,3.1469,3.1542,3.1615,3.1675,3.1675,3.1675,3.1675,3.163,3.1176,3.0336,3.0029,2.9819,2.9651,2.9478,2.9827,3.0627,3.161,3.2473,3.3237,3.4085,3.4857,3.5504,3.5504,3.5504,3.5504,3.5504,3.5504,3.5429,3.4817,3.4982,3.5415,3.4802,3.4578,3.4578,3.4578,3.4173,3.3664,3.3604,3.3589,3.344,3.2766,3.3043,3.3374,3.2822,3.3601,3.467,3.5367,3.5504,3.5526,3.5588,3.56,3.56,3.56,3.4496,3.3595,3.3595,3.242,3.1511,3.1511,3.1511,3.1511,3.1511,3.1511,3.1511,3.1511,3.1511,3.1511,3.1511,3.2108,3.2497,3.2497,3.3185,3.3874,3.4488,3.4563,3.4877,3.5489,3.5504,3.5504,3.5504,3.5504,3.5504,3.5504,3.5504,3.5504,3.5504,3.5504,3.5504,3.5504,3.5504,3.5504,3.5504,3.5504,3.5504,3.5504,3.5504,3.5504,3.5504,3.0807,3.1316,3.1511,3.1511,3.1511,3.1511,3.1511,3.1511,3.1511,3.1511,3.1511,3.1511,3.1511,3.094,3.045,3.0195,3.0405,3.0772,3.1238,3.1901,3.2512,3.3036,3.3066,3.3066,3.3066,3.2542,3.1772,3.0692,3.0618,2.9858,2.8477,2.9113,2.9773,3.0472,3.1326,3.2484,3.3808,3.4011,3.4642,3.5504,3.5504,3.5504,3.5504,3.5504,3.5504,3.5489,3.534,3.5385,3.5489,3.5325,3.528,3.528,3.528,3.519,3.4966,3.4443,3.4278,3.4143,3.3469,3.3396,3.3471,3.3333,3.3523,3.3934,3.4647,3.4823,3.4981,3.5492,3.56,3.56,3.56,3.4496,3.3595,3.3595,3.242,3.1511,3.1511,3.1511,3.1511,3.1511,3.1511,3.1511,3.1511,3.1511,3.1511,3.1511,3.2108,3.2497,3.2497,3.3619,3.4338,3.4503,3.5012,3.5355,3.5504,3.5504,3.5504,3.5504,3.5504,3.5504,3.5504,3.5504,3.5504,3.5504,3.5504,3.5504,3.5504,3.5504,3.5504,3.5504,3.5504,3.5504,3.5504,3.5504,3.5504,3.5504,3.0837,3.1271,3.1511,3.1511,3.1511,3.1511,3.1511,3.1511,3.1511,3.1511,3.1511,3.1351,3.097,3.0554,3.0171,2.9834,3.0363,3.0991,3.1593,3.2474,3.314,3.3484,3.3499,3.3664,3.3979,3.3185,3.2126,3.0798,3.1054,3.0254,2.8499,2.9251,2.9774,3.015,3.1023,3.1877,3.2731,3.3619,3.4295,3.4822,3.531,3.5504,3.5504,3.5504,3.5504,3.5504,3.5504,3.5504,3.5504,3.5504,3.5504,3.5504,3.5504,3.5504,3.5429,3.507,3.4982,3.4816,3.4158,3.3979,3.3907,3.3575,3.3267,3.3224,3.3943,3.437,3.47,3.5052,3.5373,3.56,3.56,3.4496,3.3595,3.3595,3.242,3.1511,3.1511,3.1511,3.1511,3.1511,3.1511,3.1511,3.1511,3.1511,3.163,3.1944,3.2602,3.3125,3.344,3.4412,3.4982,3.4982,3.5325,3.5504,3.5504,3.5504,3.5504,3.5504,3.5504,3.5504,3.5504,3.5504,3.5504,3.5504,3.5504,3.5504,3.5504,3.5504,3.5504,3.5504,3.5504,3.5504,3.5504,3.5504,3.5504,3.5504,3.0657,3.1122,3.1511,3.1511,3.1394,3.1278,3.1278,3.1175,3.1102,3.1191,3.1205,3.0998,3.0455,3.0184,2.9949,2.9748,3.0606,3.1451,3.2254,3.3153,3.3709,3.3844,3.3844,3.402,3.44,3.3656,3.2556,3.1115,3.1388,3.0671,2.907,2.9566,2.9792,2.983,3.0601,3.1063,3.1296,3.3031,3.3842,3.4078,3.51,3.5504,3.5504,3.5504,3.5504,3.5504,3.5504,3.5504,3.5504,3.5504,3.5504,3.5504,3.5504,3.5504,3.5504,3.5504,3.5504,3.5385,3.4817,3.4667,3.4503,3.3844,3.3245,3.2973,3.3475,3.3921,3.4321,3.4552,3.4941,3.5293,3.5407,3.4337,3.343,3.343,3.2448,3.1697,3.1697,3.1796,3.1824,3.1696,3.1568,3.1555,3.166,3.1675,3.1944,3.2617,3.329,3.3919,3.4458,3.513,3.5504,3.5504,3.5504,3.5504,3.5504,3.5504,3.5504,3.5504,3.5504,3.5504,3.5504,3.5504,3.5504,3.5504,3.5504,3.5504,3.5504,3.5504,3.5504,3.5504,3.5504,3.5504,3.5504,3.5504,3.5504,3.5504,3.1256,3.1436,3.1511,3.1511,3.0911,3.045,3.045,2.9827,2.9498,2.9965,3.0018,3.0233,3.0752,2.968,2.9088,2.9499,3.0354,3.1488,3.2951,3.388,3.4622,3.5205,3.5235,3.4863,3.4083,3.3931,3.338,3.2358,3.1631,3.0716,2.9679,2.9754,2.9792,2.9811,2.9934,3.0438,3.1259,3.2339,3.3258,3.4078,3.51,3.5504,3.5504,3.5504,3.5504,3.5504,3.5504,3.5504,3.5504,3.5504,3.5504,3.5504,3.5504,3.5504,3.5504,3.5504,3.5504,3.5489,3.5385,3.537,3.5205,3.4533,3.4293,3.4101,3.3623,3.3185,3.3195,3.4358,3.4211,3.405,3.4628,3.3649,3.2736,3.2736,3.2588,3.2451,3.2451,3.296,3.309,3.2518,3.1895,3.1735,3.2318,3.2362,3.2632,3.3305,3.3994,3.4398,3.4503,3.513,3.5504,3.5504,3.5504,3.5504,3.5504,3.5504,3.5504,3.5504,3.5504,3.5504,3.5504,3.5504,3.5504,3.5504,3.5504,3.5504,3.5504,3.5504,3.5504,3.5504,3.5504,3.5504,3.5504,3.5504,3.5504,3.5504,3.1451,3.1511,3.1365,3.0911,3.0539,3.0133,2.9644,2.9499,2.9424,2.9355,2.9868,3.0068,2.9609,2.884,2.8802,2.9917,3.0827,3.2002,3.3549,3.4527,3.519,3.5489,3.497,3.4445,3.401,3.2978,3.2231,3.1815,3.1407,3.0733,2.9792,2.9792,2.9792,2.9792,2.9792,3.0037,3.0501,3.1992,3.2837,3.3345,3.4887,3.5504,3.5504,3.5504,3.5504,3.5504,3.5504,3.5504,3.5504,3.5504,3.5504,3.5504,3.5504,3.5504,3.5504,3.5504,3.5504,3.5504,3.5504,3.5504,3.5429,3.513,3.4772,3.4413,3.4128,3.3563,3.3376,3.4345,3.4338,3.4252,3.4561,3.3504,3.26,3.26,3.26,3.2739,3.3167,3.3402,3.3433,3.3144,3.2825,3.2721,3.3036,3.3066,3.3335,3.4009,3.4323,3.4652,3.5042,3.534,3.5504,3.5504,3.5504,3.5504,3.5504,3.5504,3.5504,3.5504,3.5504,3.5504,3.5504,3.5504,3.5504,3.5504,3.5504,3.5504,3.5504,3.5504,3.5504,3.5504,3.5504,3.5504,3.5504,3.5504,3.5504,3.5504]},{"header":{"parameterUnit":"m.s-1","parameterCategory":1,"la1":30.6,"la2":28.766,"lo1":-90.7593,"lo2":-88.6598,"dy":0.0162,"dx":0.0183,"nx":116,"ny":114,"refTime":"2024-06-14T00:00:00:Z","depth":0,"parameterNumber":3,"parameterNumberName":"V-component_of_WINDS"},"data":[0.0,0.0,0.0,0.0,0.0,0.0,0.0,0.0,0.0,0.0,0.0,0.0,0.0,0.0,0.0,0.0,0.0,0.0,0.0,0.0,0.0,0.0,0.0,0.0,0.0,0.0,0.0,0.0,0.0,0.0,0.0,0.0,0.0,0.0,0.0,0.0,0.0,0.0,0.0,0.0,0.0,0.0,0.0,0.0,0.0,0.0,0.0,0.0,0.0,0.0,0.0,0.0,0.0,0.0,0.0,0.0,0.0,0.0,0.0,0.0,0.0,0.0,0.0,0.0,0.0,0.0,0.0,0.0,0.0,0.0,0.0,0.0,0.0,0.0,0.0,0.0,0.0,0.0,0.0,0.0,0.0,0.0,0.0,0.0,0.0,0.0,0.0,0.0,0.0,0.0,0.0,0.0,0.0,0.0,0.0,0.0,0.0,0.0,0.0,0.0,0.0,0.0,0.0,0.0,0.0,0.0,0.0,0.0,0.0,0.0,0.0,0.0,0.0,0.0,0.0,0.0,0.0,0.0,0.0,0.0,0.0,0.0,0.0,0.0,0.0,0.0,0.0,0.0,0.0,0.0,0.0,0.0,0.0,0.0,0.0,0.0,0.0,0.0,0.0,0.0,0.0,0.0,0.0,0.0,0.0,0.0,0.0,0.0,0.0,0.0,0.0,0.0,0.0,0.0,0.0,0.0,0.0,0.0,0.0,0.0,0.0,0.0,0.0,0.0,0.0,0.0,0.0,0.0,0.0,0.0,0.0,0.0,0.0,0.0,0.0,0.0,0.0,0.0,0.0,0.0,0.0,0.0,0.0,0.0,0.0,0.0,0.0,0.0,0.0,0.0,0.0,0.0,0.0,0.0,0.0,0.0,0.0,0.0,0.0,0.0,0.0,0.0,0.0,0.0,0.0,0.0,0.0,0.0,0.0,0.0,0.0,0.0,0.0,0.0,0.0,0.0,0.0,0.0,0.0,0.0,0.0,0.0,0.0,0.0,0.0,0.0,0.0,0.0,0.0,0.0,0.0,0.0,0.0,0.0,0.0,0.0,0.0,0.0,0.0,0.0,0.0,0.0,0.0,0.0,0.0,0.0,0.0,0.0,0.0,0.0,0.0,0.0,0.0,0.0,0.0,0.0,0.0,0.0,0.0,0.0,0.0,0.0,0.0,0.0,0.0,0.0,0.0,0.0,0.0,0.0,0.0,0.0,0.0,0.0,0.0,0.0,0.0,0.0,0.0,0.0,0.0,0.0,0.0,0.0,0.0,0.0,0.0,0.0,0.0,0.0,0.0,0.0,0.0,0.0,0.0,0.0,0.0,0.0,0.0,0.0,0.0,0.0,0.0,0.0,0.0,0.0,0.0,0.0,0.0,0.0,0.0,0.0,0.0,0.0,0.0,0.0,0.0,0.0,0.0,0.0,0.0,0.0,0.0,0.0,0.0,0.0,0.0,0.0,0.0,0.0,0.0,0.0,0.0,0.0,0.0,0.0,0.0,0.0,0.0,0.0,0.0,0.0,0.0,0.0,0.0,0.0,0.0,0.0,0.0,0.0,0.0,0.0,0.0,0.0,0.0,0.0,0.0,0.0,0.0,0.0,0.0,0.0,0.0,0.0,0.0,0.0,0.0,0.0,0.0,0.0,0.0,0.0,0.0,0.0,0.0,0.0,0.0,0.0,0.0,0.0,0.0,0.0,0.0,0.0,0.0,0.0,0.0,0.0,0.0,0.0,0.0,0.0,0.0,0.0,0.0,0.0,0.0,0.0,0.0,0.0,0.0,0.0,0.0,0.0,0.0,0.0,0.0,0.0,0.0,0.0,0.0,0.0,0.0,0.0,0.0,0.0,0.0,0.0,0.0,0.0,0.0,0.0,0.0,0.0,0.0,0.0,0.0,0.0,0.0,0.0,0.0,0.0,0.0,0.0,0.0,0.0,0.0,0.0,0.0,0.0,0.0,0.0,0.0,0.0,0.0,0.0,0.0,0.0,0.0,0.0,0.0,0.0,0.0,0.0,0.0,0.0,0.0,0.0,0.0,0.0,0.0,0.0,0.0,0.0,0.0,0.0,0.0,0.0,0.0,0.0,0.0,0.0,0.0,0.0,0.0,0.0,0.0,0.0,0.0,0.0,0.0,0.0,0.0,0.0,0.0,0.0,0.0,0.0,0.0,0.0,0.0,0.0,0.0,0.0,0.0,0.0,0.0,0.0,0.0,0.0,0.0,0.0,0.0,0.0,0.0,0.0,0.0,0.0,0.0,0.0,0.0,0.0,0.0,0.0,0.0,0.0,0.0,0.0,0.0,0.0,0.0,0.0,0.0,0.0,0.0,0.0,0.0,0.0,0.0,0.0,0.0,0.0,0.0,0.0,0.0,0.0,0.0,0.0,0.0,0.0,0.0,0.0,0.0,0.0,0.0,0.0,0.0,0.0,0.0,0.0,0.0,0.0,0.0,0.0,0.0,0.0,0.0,0.0,0.0,0.0,0.0,0.0,0.0,0.0,0.0,0.0,0.0,0.0,0.0,0.0,0.0,0.0,0.0,0.0,0.0,0.0,0.0,0.0,0.0,0.0,0.0,0.0,0.0,0.0,0.0,0.0,0.0,0.0,0.0,0.0,0.0,0.0,0.0,0.0,0.0,0.0,0.0,0.0,0.0,0.0,0.0,0.0,0.0,0.0,0.0,0.0,0.0,0.0,0.0,0.0,0.0,0.0,0.0,0.0,0.0,0.0,0.0,0.0,0.0,0.0,0.0,0.0,0.0,0.0,0.0,0.0,0.0,0.0,0.0,0.0,0.0,0.0,0.0,0.0,0.0,0.0,0.0,0.0,0.0,0.0,0.0,0.0,0.0,0.0,0.0,0.0,0.0,0.0,0.0,0.0,0.0,0.0,0.0,0.0,0.0,0.0,0.0,0.0,0.0,0.0,0.0,0.0,0.0,0.0,0.0,0.0,0.0,0.0,0.0,0.0,0.0,0.0,0.0,0.0,0.0,0.0,0.0,0.0,0.0,0.0,0.0,0.0,0.0,0.0,0.0,0.0,0.0,0.0,0.0,0.0,0.0,0.0,0.0,0.0,0.0,0.0,0.0,0.0,0.0,0.0,0.0,0.0,0.0,0.0,0.0,0.0,0.0,0.0,0.0,0.0,0.0,0.0,0.0,0.0,0.0,0.0,0.0,0.0,0.0,0.0,0.0,0.0,0.0,0.0,0.0,0.0,0.0,0.0,0.0,0.0,0.0,0.0,0.0,0.0,0.0,0.0,0.0,0.0,0.0,0.0,0.0,0.0,0.0,0.0,0.0,0.0,0.0,0.0,0.0,0.0,0.0,0.0,0.0,0.0,0.0,0.0,0.0,0.0,0.0,0.0,0.0,0.0,0.0,0.0,0.0,0.0,0.0,0.0,0.0,0.0,0.0,0.0,0.0,0.0,0.0,0.0,0.0,0.0,0.0,0.0,0.0,0.0,0.0,0.0,0.0,0.0,0.0,0.0,0.0,0.0,0.0,0.0,0.0,0.0,0.0,0.0,0.0,0.0,0.0,0.0,0.0,0.0,0.0,0.0,0.0,0.0,0.0,0.0,0.0,0.0,0.0,0.0,0.0,0.0,0.0,0.0,0.0,0.0,0.0,0.0,0.0,0.0,0.0,0.0,0.0,0.0,0.0,0.0,0.0,0.0,0.0,0.0,0.0,0.0,0.0,0.0,0.0,0.0,0.0,0.0,0.0,0.0,0.0,0.0,0.0,0.0,0.0,0.0,0.0,0.0,0.0,0.0,0.0,0.0,0.0,0.0,0.0,0.0,0.0,0.0,0.0,0.0,0.0,0.0,0.0,0.0,0.0,0.0,0.0,0.0,0.0,0.0,0.0,0.0,0.0,0.0,0.0,0.0,0.0,0.0,0.0,0.0,0.0,0.0,0.0,0.0,0.0,0.0,0.0,0.0,0.0,0.0,0.0,0.0,0.0,0.0,0.0,0.0,0.0,0.0,0.0,0.0,0.0,0.0,0.0,0.0,0.0,0.0,0.0,0.0,0.0,0.0,0.0,0.0,0.0,0.0,0.0,0.0,0.0,0.0,0.0,0.0,0.0,0.0,0.0,0.0,0.0,0.0,0.0,0.0,0.0,0.0,0.0,0.0,0.0,0.0,0.0,0.0,0.0,0.0,0.0,0.0,0.0,0.0,0.0,0.0,0.0,0.0,0.0,0.0,0.0,0.0,0.0,0.0,0.0,0.0,0.0,0.0,0.0,0.0,0.0,0.0,0.0,0.0,0.0,0.0,0.0,0.0,0.0,0.0,0.0,0.0,0.0,0.0,0.0,0.0,0.0,0.0,0.0,0.0,0.0,0.0,0.0,0.0,0.0,0.0,0.0,0.0,0.0,0.0,0.0,0.0,0.0,0.0,0.0,0.0,0.0,0.0,0.0,0.0,0.0,0.0,0.0,0.0,0.0,0.0,0.0,0.0,0.0,0.0,0.0,0.0,0.0,0.0,0.0,0.0,0.0,0.0,0.0,0.0,0.0,0.0,0.0,0.0,0.0,0.0,0.0,0.0,0.0,0.0,0.0,0.0,0.0,0.0,0.0,0.0,0.0,0.0,0.0,0.0,0.0,0.0,0.0,0.0,0.0,0.0,0.0,0.0,0.0,0.0,0.0,0.0,0.0,0.0,0.0,0.0,0.0,0.0,0.0,0.0,0.0,0.0,0.0,0.0,0.0,0.0,0.0,0.0,0.0,0.0,0.0,0.0,0.0,0.0,0.0,0.0,0.0,0.0,0.0,0.0,0.0,0.0,0.0,0.0,0.0,0.0,0.0,0.0,0.0,0.0,0.0,0.0,0.0,0.0,0.0,0.0,0.0,0.0,0.0,0.0,0.0,0.0,0.0,0.0,0.0,0.0,0.0,0.0,0.0,0.0,0.0,0.0,0.0,0.0,0.0,0.0,0.0,0.0,0.0,0.0,0.0,0.0,0.0,0.0,0.0,0.0,0.0,0.0,0.0,0.0,0.0,0.0,0.0,0.0,0.0,0.0,0.0,0.0,0.0,0.0,0.0,0.0,0.0,0.0,0.0,0.0,0.0,0.0,0.0,0.0,0.0,0.0,0.0,0.0,0.0,0.0,0.0,0.0,0.0,0.0,0.0,0.0,0.0,0.0,0.0,0.0,0.0,0.0,0.0,0.0,0.0,0.0,0.0,0.0,0.0,0.0,0.0,0.0,0.0,0.0,0.0,0.0,0.0,0.0,0.0,0.0,0.0,0.0,0.0,0.0,0.0,0.0,0.0,0.0,0.0,0.0,0.0,0.0,0.0,0.0,0.0,0.0,0.0,0.0,0.0,0.0,0.0,0.0,0.0,0.0,0.0,0.0,0.0,0.0,0.0,0.0,0.0,0.0,0.0,0.0,0.0,0.0,0.0,0.0,0.0,0.0,0.0,0.0,0.0,0.0,0.0,0.0,0.0,0.0,0.0,0.0,0.0,0.0,0.0,0.0,0.0,0.0,0.0,0.0,0.0,0.0,0.0,0.0,0.0,0.0,0.0,0.0,0.0,0.0,0.0,0.0,0.0,0.0,0.0,0.0,0.0,0.0,0.0,0.0,0.0,0.0,0.0,0.0,0.0,0.0,0.0,0.0,0.0,0.0,0.0,0.0,0.0,0.0,0.0,0.0,0.0,0.0,0.0,0.0,0.0,0.0,0.0,0.0,0.0,0.0,0.0,0.0,0.0,0.0,0.0,0.0,0.0,0.0,0.0,0.0,0.0,0.0,0.0,0.0,0.0,0.0,0.0,0.0,0.0,0.0,0.0,0.0,0.0,0.0,0.0,0.0,0.0,0.0,0.0,0.0,0.0,0.0,0.0,0.0,0.0,0.0,0.0,0.0,0.0,0.0,0.0,0.0,0.0,0.0,0.0,0.0,0.0,0.0,0.0,0.0,0.0,0.0,0.0,0.0,0.0,0.0,0.0,0.0,0.0,0.0,0.0,0.0,0.0,0.0,0.0,0.0,0.0,0.0,0.0,0.0,0.0,0.0,0.0,0.0,0.0,0.0,0.0,0.0,0.0,0.0,0.0,0.0,0.0,0.0,0.0,0.0,0.0,0.0,0.0,0.0,1.2567,1.2178,0.0,0.0,0.0,0.0,0.0,0.0,0.0,0.0,0.0,0.0,0.0,0.0,0.0,0.0,0.0,0.0,0.0,0.0,0.0,0.0,0.0,0.0,0.0,0.921,0.9424,0.9424,0.9424,0.958,0.9938,0.0,0.0,0.0,0.0,0.0,0.9955,0.9955,0.9955,0.9955,0.9955,0.9902,0.9805,0.9682,0.9445,0.9136,0.0,0.0,0.0,0.0,0.0,0.0,0.0,0.0,0.0,0.0,0.0,0.0,0.0,0.0,0.0,0.0,0.0,0.0,0.0,0.0,0.0,0.0,0.0,0.0,0.0,0.0,0.0,0.0,0.0,0.0,0.0,0.0,0.0,0.0,0.0,0.0,0.0,0.0,0.0,0.0,0.0,0.0,0.0,0.0,0.0,0.0,0.0,0.0,0.0,0.0,0.0,0.0,0.0,0.0,0.0,0.0,0.0,0.0,0.0,0.0,0.0,0.0,0.0,0.0,0.0,0.0,0.0,0.0,0.0,0.0,1.2989,1.2655,0.0,0.0,0.0,0.0,0.0,0.0,0.0,0.0,0.0,0.0,0.0,0.0,0.0,0.0,0.0,0.0,0.0,0.0,0.0,0.0,0.0,0.8936,0.8936,0.9596,1.0026,0.9971,1.0099,1.0433,1.1009,0.9933,0.0,0.0,0.0,1.0484,1.1082,1.1099,1.1099,1.1099,1.1061,1.0926,1.067,1.0455,1.0068,0.957,0.9579,0.0,0.0,0.0,0.0,0.0,0.0,0.0,0.0,0.0,0.0,0.0,0.0,0.0,0.0,0.0,0.0,0.0,0.0,0.0,0.0,0.0,0.0,0.0,0.0,0.0,0.0,0.0,0.0,0.0,0.0,0.0,0.0,0.0,0.0,0.0,0.0,0.0,0.0,0.0,0.0,0.0,0.0,0.0,0.0,0.0,0.0,0.0,0.0,0.0,0.0,0.0,0.0,0.0,0.0,0.0,0.0,0.0,0.0,0.0,0.0,0.0,0.0,0.0,1.5185,1.5114,1.4983,1.4048,1.3733,1.3906,1.3528,1.3249,1.308,1.3247,0.0,0.0,0.0,0.0,0.0,0.0,0.0,0.0,0.0,0.0,0.0,0.0,0.0,0.0,0.0,0.0,0.0,0.0,0.0,0.9065,0.9065,0.9726,1.0085,0.9853,1.0521,1.0914,1.0843,1.0822,0.0,0.0,1.1015,1.0998,1.1099,1.1099,1.1099,1.1099,1.0936,1.0615,1.0182,1.0163,1.019,1.0273,1.0274,1.0221,1.0148,0.0,0.0,0.0,0.0,0.0,0.0,0.0,0.0,0.0,0.0,0.0,0.0,0.0,0.0,0.0,0.0,0.0,0.0,0.0,0.0,0.0,0.0,0.0,0.0,0.0,0.0,0.0,0.0,0.0,0.0,0.0,0.0,0.0,0.0,0.0,0.0,0.0,0.0,0.0,0.0,0.0,1.1495,1.2099,0.0,0.0,0.0,0.0,0.0,0.0,0.0,0.0,0.0,0.0,0.0,0.0,0.0,1.6478,1.6403,1.6394,1.6361,1.6298,1.6298,1.6017,1.5505,1.5353,1.4845,1.4069,1.4005,0.0,1.2972,1.3562,0.0,0.0,0.0,0.0,0.0,0.0,0.0,0.0,0.0,0.0,0.0,0.0,0.0,0.0,0.0,0.0,0.0,0.0,0.0,0.0,0.0,1.0178,1.0716,1.0437,1.0771,1.1226,1.1784,1.0912,1.0909,1.2119,1.1987,1.2084,1.2496,1.2513,1.2389,1.2169,1.1784,1.1665,1.1845,1.1698,1.1742,1.1953,1.1656,1.1158,1.0524,1.0284,0.0,0.0,0.0,0.0,0.0,0.0,0.0,0.0,0.0,0.0,0.0,0.0,0.0,0.0,0.0,0.0,0.0,0.0,0.0,0.0,0.0,0.0,0.0,0.0,0.0,0.0,0.0,0.0,0.0,0.0,0.0,0.0,0.0,0.0,0.0,0.0,0.0,0.0,0.0,1.1297,1.2463,1.2408,1.317,1.3715,0.0,0.0,0.0,0.0,0.0,0.0,0.0,0.0,0.0,1.7398,1.7698,1.7842,1.7855,1.7898,1.775,1.7452,1.7149,1.6914,1.6695,1.5835,1.5073,1.4399,1.3718,1.3224,1.2958,1.3696,1.3616,1.314,0.0,0.0,0.0,0.0,1.5203,1.5414,0.0,0.0,0.0,0.0,0.0,0.0,0.0,0.0,0.0,0.0,0.0,0.0,0.9293,1.0334,1.0983,1.0915,1.1061,1.1564,1.254,1.136,1.1321,1.2922,1.2867,1.3019,1.3535,1.3647,1.3602,1.3421,1.2952,1.2929,1.3352,1.3044,1.2958,1.3054,1.2551,1.1811,1.0925,1.0448,1.0248,0.0,0.0,0.0,0.0,0.0,0.0,0.0,0.0,0.0,0.0,0.0,0.0,0.0,0.0,0.0,0.0,0.0,0.0,0.0,0.0,0.0,0.0,0.0,0.0,0.0,0.0,0.0,0.0,0.0,0.0,0.0,0.0,0.0,0.0,0.0,0.0,0.0,0.0,1.2463,1.3286,1.2881,1.3837,1.4455,0.0,0.0,0.0,0.0,0.0,0.0,1.7359,1.8035,1.8536,1.876,1.9154,1.9228,1.8934,1.899,1.8727,1.8192,1.7591,1.7312,1.7255,1.587,1.4996,1.4487,1.3524,1.3196,1.3381,1.3998,1.3988,1.374,1.53,1.5808,1.5723,1.607,1.6158,1.6208,0.0,0.0,0.0,0.0,0.0,0.0,0.0,0.0,0.0,0.0,0.0,0.9144,0.9293,0.9872,1.0436,1.0862,1.1471,1.2066,0.0,1.2745,1.2893,1.3004,1.3344,1.3506,1.3413,1.3776,1.4186,1.4608,1.4276,1.3986,1.375,1.337,1.3026,1.2713,1.2306,1.1733,1.1084,1.099,1.0522,0.9854,0.0,0.0,0.0,0.0,0.0,0.0,0.0,0.0,0.0,0.0,0.0,0.0,0.0,0.0,0.0,0.0,0.0,0.0,0.0,0.0,0.0,0.0,0.0,0.0,0.0,0.0,0.0,0.0,0.0,0.0,0.0,0.0,0.0,0.0,0.0,0.0,0.0,0.0,0.0,1.4018,1.4959,0.0,0.0,0.0,0.0,1.7139,1.8308,1.9194,1.9699,2.0833,2.1202,2.0579,2.061,2.0089,1.9018,1.8999,1.8727,1.8192,1.746,1.6883,1.6432,1.551,1.4748,1.4119,1.3799,1.3971,1.452,1.4638,1.4869,1.5263,1.6125,1.645,1.6525,1.7251,1.7426,1.7387,0.0,0.0,0.0,0.0,0.0,0.8897,0.8897,0.8897,0.8949,0.9075,0.9093,0.9109,0.9114,0.968,1.0023,0.9874,1.0447,1.1061,1.1662,1.1956,1.2425,1.3155,1.3943,1.4478,1.4686,1.4185,1.4073,1.4376,1.409,1.3964,1.3996,1.3845,1.3669,1.3444,1.2965,1.2299,1.1557,1.1756,1.1571,1.1182,1.1493,1.1419,0.0,0.0,0.0,0.0,0.0,0.0,0.0,0.0,0.0,0.0,0.0,0.0,0.0,0.0,0.0,0.0,0.0,0.0,0.0,0.0,0.0,0.0,0.0,0.0,0.0,0.0,0.0,0.0,0.0,0.0,0.0,0.0,0.0,0.0,0.0,0.0,0.0,1.4664,1.5559,0.0,1.6525,1.7351,1.8375,1.9535,1.9937,2.0207,2.0393,2.0449,2.0376,2.0137,2.0126,1.9921,1.9517,1.9511,1.9183,1.8514,1.8252,1.7794,1.7139,1.6142,1.5399,1.4917,1.4463,1.4402,1.4662,1.5367,1.5792,1.608,1.6797,1.7426,1.7916,1.7966,1.7965,1.794,0.0,0.0,0.0,0.0,0.8897,0.8897,0.8897,0.8897,0.8949,0.9075,0.9192,0.9188,0.896,0.9447,0.9781,0.9701,0.9981,1.0594,1.1617,1.1903,1.2415,1.3253,1.4127,1.4974,1.5753,1.4826,1.4535,1.4906,1.4617,1.4459,1.4428,1.4304,1.4124,1.3885,1.3361,1.2727,1.2075,1.2751,1.2628,1.2016,1.2458,1.2644,1.2601,0.0,0.0,0.0,0.0,0.0,0.0,0.0,0.0,0.0,0.0,0.0,0.0,0.0,0.0,0.0,0.0,0.0,0.0,0.0,0.0,0.0,0.0,0.0,0.0,0.0,0.0,0.0,0.0,0.0,0.0,0.0,0.0,0.0,0.0,1.489,1.5578,1.5211,1.6315,1.7286,1.7733,1.8737,1.9781,2.0771,2.077,2.0734,2.0734,2.0548,2.0359,2.0145,2.0149,2.0036,1.9791,1.9546,1.9319,1.9059,1.8406,1.7923,1.7569,1.6348,1.5649,1.5376,1.501,1.4868,1.494,1.5981,1.6555,1.6854,1.743,1.8091,1.8681,1.8531,1.8468,1.8493,0.0,0.0,0.0,0.8891,0.8886,0.8883,0.8888,0.8905,0.8975,0.912,0.9425,0.9432,0.8916,0.9192,0.9711,1.0415,1.0261,1.0816,1.2468,1.2776,1.3042,1.3371,1.3921,1.4953,1.6484,1.5658,1.5558,1.6287,1.5941,1.5544,1.5074,1.4666,1.427,1.386,1.3399,1.296,1.2629,1.3935,1.3615,1.2257,1.3074,1.3771,1.4333,0.0,0.0,0.0,0.0,0.0,0.0,0.0,0.0,0.0,0.0,0.0,0.0,0.0,0.0,0.0,0.0,0.0,0.0,0.0,0.0,0.0,0.0,0.0,0.0,0.0,0.0,0.0,0.0,0.0,0.0,0.0,0.0,0.0,1.4919,1.5399,1.5731,1.5743,1.7256,1.8311,1.8355,1.9308,2.0159,2.0697,2.0767,2.0816,2.0829,2.1364,2.1405,2.0836,2.0811,2.0498,1.9861,1.9119,1.9094,1.9733,1.7825,1.7121,1.7482,1.6054,1.5396,1.5396,1.5396,1.5396,1.5473,1.6431,1.714,1.7655,1.8068,1.843,1.8757,1.8945,1.902,1.9096,0.0,0.0,0.8748,0.8748,0.864,0.8581,0.873,0.921,0.9594,0.9728,1.0161,1.0363,1.006,0.9963,0.995,1.0058,1.04,1.1034,1.2031,1.2593,1.3576,1.5122,1.5107,1.559,1.6696,1.5729,1.5448,1.5934,1.5507,1.5081,1.4658,1.4246,1.3818,1.3391,1.3267,1.3323,1.3555,1.4216,1.441,1.4345,1.5149,1.5288,1.5071,0.0,0.0,0.0,0.0,0.0,0.0,0.0,0.0,0.0,0.0,0.0,0.0,0.0,0.0,0.0,0.0,0.0,0.0,0.0,0.0,0.0,0.0,0.0,0.0,0.0,0.0,0.0,0.0,0.0,0.0,0.0,1.5025,1.5477,1.5477,1.5944,1.6436,1.6872,1.77,1.8572,1.9454,2.0152,2.0805,2.1379,2.104,2.0976,2.1352,2.112,2.108,2.1302,2.1302,2.122,2.1029,2.0205,1.947,1.8841,1.7534,1.6585,1.5997,1.5575,1.5396,1.5396,1.5396,1.5396,1.5502,1.6828,1.7698,1.8224,1.8621,1.907,1.951,1.956,1.9572,1.9597,0.0,0.857,0.857,0.857,0.8545,0.8561,0.8684,0.9367,0.9869,0.9832,1.0574,1.0901,1.0397,1.0365,1.0361,1.0279,1.0852,1.1526,1.2276,1.3236,1.4542,1.6293,1.5912,1.601,1.677,1.5905,1.5568,1.5799,1.5337,1.4884,1.4493,1.4314,1.3999,1.3584,1.3801,1.403,1.4258,1.4662,1.4943,1.5172,1.5981,1.6147,1.5949,1.617,1.5695,1.4932,1.4958,1.4347,1.3505,1.3289,0.0,0.0,0.0,0.0,0.0,0.0,0.0,0.0,0.0,0.0,0.0,0.0,0.0,0.0,0.0,0.0,0.0,0.0,0.0,0.0,0.0,0.0,0.0,0.0,1.5892,1.6407,1.6407,1.6672,1.7087,1.7676,1.8453,1.9222,1.9931,2.0698,2.1271,2.162,2.1312,2.1237,2.1533,2.1235,2.1168,2.1495,2.1507,2.1314,2.0964,2.0151,1.9343,1.8529,1.7267,1.646,1.6093,1.5889,1.5742,1.5689,1.5488,1.5396,1.5497,1.6655,1.7506,1.8153,0.0,0.0,0.0,0.0,1.9798,1.9798,0.0,0.8364,0.8364,0.8364,0.8504,0.8636,0.8728,0.9503,1.0012,0.9842,1.0864,1.1293,1.0435,1.0688,1.0907,1.0907,1.1552,1.2324,0.0,0.0,1.5731,1.6893,1.6403,1.6336,1.6856,1.6237,1.5941,1.6016,1.5488,1.5057,1.4692,1.4719,1.4533,1.4207,1.4689,1.4886,1.4897,1.5257,1.5406,1.5465,1.6173,1.6568,1.6712,1.6454,1.6154,1.5825,1.5527,1.4547,1.341,1.3363,0.0,0.0,0.0,0.0,0.0,0.0,0.0,0.0,0.0,0.0,0.0,0.0,0.0,0.0,0.0,0.0,0.0,0.0,0.0,0.0,0.0,0.0,0.0,0.0,1.6733,1.7437,1.7562,1.7575,1.7763,1.823,1.9235,1.9931,2.0075,2.0934,2.1524,2.1577,2.1534,2.1532,2.1595,2.1595,0.0,0.0,0.0,2.1274,2.0404,1.9653,1.9039,1.8585,1.7115,1.665,1.7038,1.6572,1.6275,1.6144,1.5732,1.5552,1.5601,1.6337,1.7051,1.7822,1.924,1.9798,1.9798,1.9798,1.9798,1.9798,0.0,0.8161,0.8161,0.8161,0.8104,0.8273,0.8927,0.9854,1.0638,1.1076,1.1858,1.2247,1.1843,1.1687,1.161,1.161,1.2474,1.359,0.0,0.0,1.6615,1.6594,1.6629,1.6816,1.7206,1.675,1.6794,1.7325,1.6487,1.6029,1.5934,1.5198,1.4816,1.4752,1.4856,1.5307,1.5998,1.6078,1.6528,1.7221,1.7372,1.7006,1.6414,1.6627,1.6502,1.6191,1.6133,1.5511,1.4679,1.4363,1.3606,1.2753,1.2421,0.0,0.0,0.0,0.0,0.0,0.0,0.0,0.0,0.0,0.0,0.0,0.0,0.0,0.0,0.0,0.0,0.0,0.0,0.0,0.0,1.6973,1.726,1.7701,1.8568,1.8694,1.8719,1.8832,1.9056,1.9547,2.0473,2.0752,2.1056,2.1486,2.1501,2.1681,2.2119,2.2159,2.2332,2.2782,2.2782,2.2396,2.1568,2.0735,1.9721,1.8585,1.7634,0.0,1.6775,1.6668,1.6615,1.6586,1.6482,1.6443,1.6506,1.7236,1.7791,1.8278,1.9373,1.9798,1.9798,1.9798,1.9798,1.9798,0.799,0.8007,0.8007,0.8007,0.8283,0.8633,0.9042,1.0211,1.1104,1.1286,1.1937,1.2307,1.2024,1.1885,1.1805,1.1805,1.2927,0.0,0.0,1.6537,1.6722,1.6649,1.6904,1.7136,1.7301,1.7235,1.7233,1.729,1.6622,1.6154,1.5887,1.5489,1.5299,1.5301,1.5578,1.6072,1.6707,1.6707,1.7094,1.7705,1.7705,1.7263,1.6614,1.6713,1.6552,1.626,1.5839,1.5315,1.4737,1.4342,1.3719,1.3061,1.2868,1.2613,1.2346,0.0,0.0,0.0,0.0,0.0,0.0,0.0,0.0,0.0,0.0,0.0,0.0,0.0,0.0,1.5598,1.6698,0.0,1.7145,1.7709,1.8028,1.838,1.892,1.9221,1.9397,1.9397,1.9673,2.0075,2.0641,2.1194,2.1606,2.1882,2.2159,2.242,2.2696,2.2694,2.2628,2.2494,2.2506,2.1893,2.0606,2.0171,1.9396,1.8286,1.7886,1.7588,1.7347,1.7142,1.7061,1.7051,1.6794,1.6697,1.676,1.7502,1.7899,1.8147,1.9007,1.9314,1.9241,1.9241,1.9475,1.9798,0.7899,0.7899,0.7944,0.8068,0.8625,0.9145,0.9393,1.0582,1.1387,1.1253,1.1794,1.2107,1.1837,1.1805,1.1954,0.0,0.0,0.0,0.0,1.6944,1.6916,1.7071,1.7335,1.752,1.7577,1.7777,1.7739,1.7441,1.6917,1.6436,1.5993,1.5903,1.5867,1.5879,1.6414,1.6837,1.7145,1.725,1.7476,1.7773,1.7773,1.7438,1.6929,1.6828,1.656,1.6179,1.5526,1.497,1.4495,1.4159,1.3672,1.3198,1.3198,1.3198,1.3119,1.2689,1.2634,0.0,0.0,0.0,0.0,0.0,0.0,0.0,0.0,1.5289,1.5277,1.6013,1.6186,1.6458,1.7321,1.7598,1.7852,1.8291,1.8719,1.9045,1.9146,1.9622,1.991,1.9728,2.031,2.0779,2.0993,2.1794,2.2332,2.2445,2.2857,2.302,2.2884,2.2869,2.2567,2.1924,2.1893,2.1132,1.9579,1.9546,1.9027,1.7991,1.7991,1.7991,1.7981,1.7656,1.7516,1.7507,1.7122,1.695,1.6989,1.7595,1.7786,1.7781,1.8378,1.8581,1.8563,1.8888,1.936,1.9902,0.0,0.7899,0.8083,0.8676,0.8861,0.9312,1.0447,1.0967,1.1355,1.1684,1.1994,1.2107,1.1837,1.1805,1.2524,1.4313,0.0,0.0,1.7977,1.8107,1.8075,1.8035,1.8076,1.8244,1.8539,1.857,1.8856,1.9394,1.8394,1.7869,1.7791,1.6855,1.64,1.6421,1.6977,1.7231,1.7309,1.7788,1.8003,1.8054,1.8054,1.7667,1.7079,1.7066,1.6668,1.6107,1.601,1.5428,1.4677,1.4633,1.3977,1.3198,1.3198,1.3198,1.3185,1.3123,0.0,1.4004,1.4419,1.5363,1.6361,1.6969,1.6403,1.6063,0.0,1.6642,1.6033,1.7524,1.788,1.7965,1.8071,1.8481,1.8841,1.8905,1.8958,1.9171,1.9635,2.0226,2.031,1.954,2.0197,2.1067,2.2033,2.2219,2.2508,2.297,2.307,2.2793,2.2063,2.2032,2.1986,2.1893,2.1893,2.1428,2.0462,2.0446,1.9628,1.7991,1.7991,1.7991,1.7991,1.7942,1.7922,1.7939,1.7874,1.7844,1.7871,1.7946,1.777,1.7452,1.7539,1.7705,1.8063,1.9515,2.0077,2.0275,0.0,0.7899,0.8229,0.9293,0.9488,0.9779,1.0668,1.1228,1.1616,1.1776,1.1907,1.1918,1.1816,1.2155,1.3195,1.5213,1.5195,0.0,1.7887,1.7837,1.7778,1.7903,1.8281,1.857,1.8702,1.9076,1.9107,1.8765,1.8322,1.7787,1.7157,1.6699,1.65,1.6511,1.6721,1.7013,1.7312,1.7534,1.7817,1.8106,1.8106,1.7757,1.7223,1.7223,1.6847,1.628,1.5887,1.5502,0.0,0.0,1.4323,1.3727,1.3727,1.3475,1.3269,1.3618,1.4102,0.0,1.6317,1.7072,1.757,1.81,1.7663,1.7196,1.7558,1.7133,1.696,1.7956,1.8184,1.839,1.9024,1.9063,1.91,1.9409,1.9761,2.0075,2.0289,2.0359,2.0576,2.1033,2.0958,2.1042,2.1506,2.229,2.2665,2.2418,2.2617,2.2381,2.1553,2.1971,2.1779,2.0759,2.0994,2.0478,1.9094,1.932,1.8958,1.8001,1.8244,1.8235,1.7991,1.7991,1.7991,1.7991,1.7991,1.7991,1.7991,1.7991,1.791,1.7744,1.7744,1.7826,1.8042,1.9148,1.9834,2.0313,0.0,0.7899,0.8259,0.9424,0.9779,1.0174,1.0957,1.1485,1.1805,1.1805,1.1805,1.1865,1.2055,1.2505,1.3567,1.5495,1.544,1.6042,0.0,1.7688,1.7762,1.8223,1.8717,1.8972,1.8972,1.931,1.9104,1.8322,1.8027,1.7473,1.671,1.6563,1.65,1.6511,1.6648,1.6858,1.7097,1.724,1.7432,1.7656,1.7656,1.734,1.683,1.683,1.6589,1.6214,1.5882,1.5682,0.0,0.0,1.4629,1.427,1.3959,1.3668,1.356,1.413,1.4968,1.6091,1.7851,1.8316,1.8408,1.8796,1.839,1.7827,1.7575,1.7458,1.7555,1.8092,1.8319,1.8651,1.9443,1.938,1.9397,1.9962,2.0415,2.0674,2.0581,2.0489,2.0711,2.1491,2.138,2.1249,2.1249,2.238,2.2812,2.2126,2.2328,2.2068,2.1088,2.1508,2.1208,1.9936,2.023,1.9793,1.854,1.8934,1.8881,1.8359,1.8654,1.8635,1.8359,1.8225,1.8098,1.7991,1.7991,1.7991,1.7991,1.7991,1.7991,1.7991,1.7991,1.7991,1.8089,1.8875,1.9652,2.0431,0.0,0.0,0.8113,0.8815,0.9473,1.0324,1.158,1.179,1.1805,1.1805,1.1805,1.205,1.2705,1.2786,1.3485,1.5167,1.5304,1.6115,1.8053,1.8177,1.861,1.9606,1.9654,1.9669,1.9669,1.9173,1.8912,1.8883,1.7837,1.7312,1.726,1.6731,1.65,1.6522,1.7045,1.7003,1.6552,1.7087,1.7013,1.6541,1.6541,1.6193,1.5654,1.5654,1.5643,1.5698,1.6265,0.0,0.0,0.0,1.4893,1.4683,1.3579,1.3618,0.0,1.4638,1.6307,1.8133,1.8719,1.8883,1.8883,1.8912,1.8116,1.7453,1.7967,1.7734,1.7555,1.8092,1.8604,1.8983,1.902,1.9447,1.9962,2.0566,2.0679,2.0583,2.0258,2.0653,2.0673,1.9875,2.1028,2.1869,2.1869,2.2628,2.2927,2.2515,2.2497,2.1954,2.0702,2.0222,1.9953,1.9902,1.9909,1.9909,1.983,2.0317,2.0112,1.9266,1.9268,1.9276,1.9256,1.8791,1.8364,1.7991,1.7991,1.7991,1.7991,1.7991,1.7991,1.7991,1.7991,1.7991,1.811,1.898,1.9836,2.0705,0.0,0.0,0.0,0.9969,1.0349,1.0793,1.167,1.1805,1.1805,1.1805,1.219,0.0,0.0,0.0,0.0,0.0,1.5766,1.6358,1.8084,1.7997,1.8416,1.9648,1.9708,1.9708,1.9708,1.9169,1.8727,1.837,1.7646,1.7115,1.6774,1.6573,1.65,1.6511,1.6691,1.6669,1.6511,1.6691,1.6612,1.6339,1.6033,1.57,1.5416,1.555,1.5599,1.5628,0.0,0.0,0.0,1.5085,1.4664,1.4362,1.4343,0.0,1.4871,1.6517,1.7779,1.8666,1.8854,1.8902,1.8817,1.8458,1.814,1.7938,1.8128,1.8326,1.8504,1.8682,1.9156,1.9535,1.9535,1.9685,2.0,2.0591,2.0516,2.0442,2.0706,2.0237,2.019,2.1066,2.1092,2.1631,2.3157,2.2695,2.2111,2.167,2.1391,2.0913,2.0176,2.0527,2.0499,1.9921,2.0193,2.0091,1.9509,1.9931,1.9845,1.9305,1.9305,1.9305,1.9296,1.9131,1.8994,1.8857,1.8857,1.8857,1.8857,1.8857,1.8691,1.841,1.841,1.8235,1.8042,1.8337,1.9365,2.0719,0.0,0.0,0.0,0.0,0.0,0.0,0.0,0.0,0.0,0.0,0.0,0.0,0.0,0.0,0.0,0.0,0.0,1.6337,1.7586,0.0,1.7938,1.9271,1.9156,1.9169,1.9415,1.8698,1.8165,1.7817,1.7281,1.6848,1.65,1.65,1.65,1.65,1.65,1.638,1.6183,1.6183,1.6004,1.5695,1.5393,1.52,1.51,1.5234,1.541,0.0,0.0,0.0,0.0,1.4856,1.4639,1.4692,1.4821,1.5379,1.6262,1.7685,1.8486,1.8902,1.8902,1.8622,1.8309,1.817,1.8015,1.7959,1.8167,1.8604,1.9008,1.9008,1.9271,1.956,1.9761,1.9635,1.9746,2.0411,2.0338,2.0255,2.038,2.0027,2.0253,2.1561,2.1504,2.2114,2.4088,2.2863,2.188,2.1749,2.1161,2.0616,2.0174,2.0525,2.0491,1.9912,2.0201,2.0068,1.9512,1.9932,2.001,1.9765,1.9765,1.9686,1.9512,1.9512,1.9434,1.9305,1.9305,1.9305,1.9305,1.9305,1.9121,1.8849,1.8849,1.8683,1.8467,1.8467,1.9164,2.026,0.0,0.0,0.0,0.0,0.0,0.0,0.0,0.0,0.0,0.0,0.0,0.0,0.0,0.0,0.0,0.0,0.0,0.0,0.0,0.0,0.0,1.86,1.8144,1.8181,1.8841,1.7837,1.7302,1.7302,1.6763,1.65,1.65,1.65,1.65,1.65,1.65,1.616,1.5599,1.5599,1.5242,1.4674,1.4652,1.4674,1.4697,1.4698,0.0,0.0,0.0,0.0,0.0,1.4544,1.4888,1.5695,1.5134,1.6429,1.8134,1.8134,1.852,1.8926,1.8879,1.8145,1.7515,1.8052,1.7841,1.7613,1.8117,1.8669,1.9033,1.9008,1.9008,1.9158,1.9635,1.9346,1.9291,2.0039,2.0169,1.999,1.9407,2.0053,2.0798,2.1363,0.0,0.0,0.0,2.309,2.2178,2.2697,2.1738,2.0971,2.0615,2.0176,1.9932,1.9932,1.9932,1.9932,1.9932,2.0381,2.0605,2.0605,2.0605,2.0371,1.9932,1.9932,1.9727,1.9374,1.9374,1.9374,1.9374,1.9374,1.9354,1.9316,1.9316,1.9325,1.9305,1.9305,1.936,1.9547,0.0,0.0,0.0,0.0,0.0,0.0,0.0,0.0,0.0,0.0,0.0,0.0,0.0,0.0,0.0,0.0,0.0,0.0,0.0,0.0,0.0,0.0,0.0,1.7721,1.8298,1.7636,1.7302,0.0,0.0,1.65,1.65,1.65,1.65,1.65,1.65,1.616,1.5599,1.5599,1.5177,1.4447,0.0,1.4206,1.4485,0.0,0.0,0.0,0.0,0.0,0.0,0.0,1.6007,1.6936,1.7186,1.7924,1.8709,1.8709,1.9075,1.9327,1.858,1.8462,1.8504,1.8265,1.8399,1.8631,1.8757,1.9221,1.9484,1.9083,1.9008,1.892,1.8668,1.9158,1.9602,1.9596,1.9731,1.9814,1.975,2.0022,2.0633,2.1715,0.0,2.3027,2.5186,2.297,2.1937,2.3199,2.1397,2.0344,2.0595,2.0498,2.042,2.042,2.042,2.042,2.042,2.0527,2.0605,2.0605,2.0605,2.0546,2.042,2.042,2.0361,2.0282,2.0282,2.0282,2.0282,2.0282,2.0068,1.9756,1.9756,1.9561,1.9305,1.9305,2.015,2.134,0.0,0.0,0.0,0.0,0.0,0.0,0.0,0.0,0.0,0.0,0.0,0.0,0.0,0.0,0.0,0.0,0.0,0.0,0.0,0.0,0.0,0.0,1.6762,1.6896,1.773,1.7219,1.6951,0.0,0.0,0.0,0.0,1.65,1.65,1.6489,1.6227,1.5765,1.5186,1.4926,0.0,0.0,0.0,0.0,0.0,0.0,0.0,0.0,0.0,0.0,0.0,0.0,0.0,1.8176,1.8729,1.9262,1.9694,1.9694,1.9544,1.9269,1.8702,1.8595,1.8629,1.8577,1.8536,1.8522,1.8584,1.8793,1.8829,1.8351,1.8274,1.828,1.8205,1.8694,1.904,1.8862,1.9295,1.9574,1.9359,2.0252,2.131,2.2281,2.3098,0.0,2.5828,2.3708,2.2557,2.3419,2.1451,2.0322,2.0595,2.0605,2.0605,2.0605,2.0605,2.0605,2.0605,2.0605,2.0605,2.0605,2.0605,2.0605,2.0605,2.0605,2.0605,2.0605,2.0605,2.0605,2.0605,2.0605,2.0439,2.0214,2.0214,2.0077,1.9872,1.9872,2.0769,2.2063,0.0,0.0,0.0,0.0,0.0,0.0,0.0,0.0,0.0,0.0,0.0,0.0,0.0,0.0,0.0,0.0,0.0,0.0,0.0,0.0,0.0,0.0,1.5704,1.5983,1.7162,1.6731,1.65,0.0,0.0,0.0,0.0,0.0,0.0,0.0,0.0,0.0,0.0,0.0,0.0,0.0,0.0,0.0,0.0,0.0,0.0,0.0,0.0,0.0,0.0,0.0,1.9643,1.9286,1.983,2.0266,2.0566,2.0493,1.982,1.9096,1.9015,1.8709,1.8494,1.8871,1.8481,1.7999,1.7965,1.7929,1.7763,1.7278,1.7295,1.7512,1.7903,1.8166,1.8239,1.8033,1.8891,1.9399,1.8777,2.061,2.226,2.2902,2.4475,2.5731,2.6247,2.4487,2.3294,2.3294,2.1623,2.0605,2.0605,2.0605,2.0605,2.0605,2.0605,2.0605,2.0605,2.0605,2.0605,2.0605,2.0605,2.0605,2.0605,2.0605,2.0605,2.0605,2.0605,2.0605,2.0605,2.0605,2.0605,2.0605,2.0605,2.0605,2.0605,2.0605,2.1279,2.2328,0.0,0.0,0.0,0.0,0.0,0.0,0.0,0.0,0.0,0.0,1.3663,1.4472,0.0,0.0,0.0,0.0,0.0,0.0,0.0,0.0,0.0,0.0,1.5234,1.5519,1.6612,1.6541,1.65,0.0,0.0,0.0,0.0,0.0,0.0,0.0,0.0,0.0,0.0,0.0,0.0,0.0,0.0,0.0,0.0,0.0,0.0,0.0,0.0,0.0,0.0,0.0,2.0123,1.9706,2.0358,2.0285,1.9877,1.9414,1.9468,1.9556,1.9126,1.9258,1.9395,1.8874,1.865,1.832,1.7401,1.7557,1.7631,1.6741,1.7013,1.7274,1.6875,1.7929,1.8556,1.7589,1.87,1.9555,1.9227,2.0892,2.247,2.3308,2.4406,2.5156,2.5252,2.3441,2.2253,2.2253,2.1231,2.0605,2.0605,2.0605,2.0605,2.0605,2.0605,2.0605,2.0605,2.0605,2.0605,2.0605,2.0605,2.0605,2.0605,2.0605,2.0605,2.0605,2.0605,2.0605,2.0605,2.0605,2.0605,2.0605,2.0605,2.0605,2.0605,2.0605,2.1726,2.3257,0.0,0.0,0.0,0.0,0.0,0.0,0.0,0.0,1.2607,1.2372,1.3181,1.4116,1.5002,1.5529,0.0,0.0,0.0,0.0,0.0,0.0,0.0,0.0,0.0,1.5273,1.607,1.636,1.65,1.65,0.0,0.0,0.0,0.0,0.0,0.0,0.0,0.0,0.0,0.0,0.0,0.0,0.0,0.0,0.0,0.0,0.0,0.0,0.0,0.0,0.0,0.0,1.9838,1.9511,2.0808,2.0798,2.0271,2.0013,1.9873,1.9748,1.9485,1.9329,1.9136,1.8781,1.8112,1.7377,1.6729,1.6755,1.6734,1.6101,1.6487,1.6848,1.655,1.7414,1.8019,1.7578,1.8272,1.9023,1.949,2.0667,2.1777,2.2631,2.3617,2.4228,2.4228,2.3098,2.2356,2.2356,2.1689,2.1075,2.0625,2.0605,2.0693,2.0908,2.0703,2.0693,2.0908,2.0703,2.0605,2.0605,2.0605,2.0605,2.0605,2.0605,2.0605,2.0605,2.0605,2.0605,2.0605,2.0605,2.0605,2.0605,2.0605,2.0605,2.0605,2.0605,2.1508,2.2795,0.0,0.0,0.0,0.0,0.0,0.0,0.0,1.1677,1.2067,1.2006,1.2816,1.3802,1.4865,1.5381,1.5682,0.0,0.0,0.0,0.0,0.0,0.0,0.0,0.0,0.0,1.568,0.0,0.0,1.65,0.0,0.0,0.0,0.0,0.0,0.0,0.0,0.0,0.0,0.0,0.0,0.0,0.0,0.0,0.0,0.0,0.0,0.0,0.0,0.0,0.0,0.0,1.9395,1.9029,2.0642,2.0807,2.0414,2.0414,2.013,1.976,1.9618,1.9136,1.8621,1.8313,1.7357,1.6409,1.6052,1.5987,1.5911,1.5655,1.6073,1.65,1.65,1.6986,1.7472,1.7661,1.794,1.8503,1.9644,2.0439,2.1197,2.1914,2.3043,2.3664,2.3349,2.3018,2.274,2.2544,2.2139,2.1602,2.0928,2.0889,2.1026,2.1347,2.0947,2.0879,2.119,2.0811,2.0605,2.0605,2.0605,2.0605,2.0605,2.0605,2.0605,2.0605,2.0605,2.0605,2.0605,2.0605,2.0605,2.0605,2.0605,2.0605,2.0605,2.0605,2.1193,2.2103,0.0,0.0,0.0,0.0,0.0,0.0,0.0,1.1206,1.1803,1.1984,1.2609,1.3431,1.444,1.4914,1.5344,0.0,0.0,0.0,0.0,0.0,0.0,0.0,0.0,0.0,0.0,0.0,0.0,1.65,1.6993,0.0,0.0,0.0,0.0,0.0,0.0,1.5961,0.0,0.0,0.0,0.0,0.0,0.0,0.0,0.0,0.0,0.0,0.0,0.0,0.0,0.0,0.0,1.8391,1.9099,1.9261,1.917,1.917,1.9472,1.9656,1.898,1.8754,1.8369,1.7034,1.6595,1.6266,1.5395,1.5628,1.5911,1.5655,1.6073,1.65,1.65,1.6986,1.7472,1.7661,1.794,1.8503,1.9644,2.0694,2.1518,2.1956,2.3593,2.4186,2.2893,2.3057,2.2888,2.2043,2.1917,2.1876,2.1788,2.1788,2.1808,2.1826,2.1386,2.1151,2.119,2.0811,2.0605,2.0605,2.0605,2.0605,2.0605,2.0605,2.0605,2.0605,2.0605,2.0605,2.0605,2.0605,2.0605,2.0605,2.0605,2.0605,2.0605,2.0605,2.1193,2.2008,0.0,0.0,0.0,0.0,0.0,0.0,0.0,1.1115,1.1553,1.184,1.2175,1.2824,1.3955,1.4466,1.5036,0.0,0.0,0.0,0.0,0.0,0.0,0.0,0.0,0.0,0.0,0.0,0.0,0.0,1.7198,0.0,0.0,0.0,0.0,0.0,0.0,1.6178,1.6943,0.0,0.0,0.0,0.0,0.0,0.0,0.0,0.0,0.0,0.0,0.0,0.0,0.0,0.0,1.7634,1.7557,1.7767,0.0,0.0,1.9146,1.9232,1.8815,1.838,1.7797,1.6765,1.6179,1.5792,1.5675,1.5835,1.6033,1.6127,1.6324,1.65,1.65,1.6699,1.7112,1.7873,1.772,1.8003,1.9462,1.9866,2.0299,2.1061,2.2032,2.2521,2.2251,2.2592,2.2755,2.2638,2.2615,2.2615,2.2615,2.2158,2.2002,2.2256,2.1855,2.1727,2.1981,2.1298,2.0967,2.0967,2.0713,2.0605,2.0605,2.0605,2.0605,2.0605,2.0605,2.0605,2.0605,2.0605,2.0605,2.0605,2.0605,2.0605,2.0605,2.0605,2.0847,2.1241,0.0,0.0,0.0,0.0,0.0,1.0012,1.0343,1.0737,1.1127,1.1425,1.1606,1.2192,1.3446,1.415,1.4845,1.5726,0.0,0.0,0.0,0.0,0.0,0.0,0.0,0.0,0.0,0.0,0.0,0.0,0.0,1.7686,0.0,0.0,1.7686,1.7487,0.0,0.0,0.0,0.0,0.0,0.0,0.0,0.0,0.0,0.0,0.0,0.0,0.0,0.0,0.0,0.0,0.0,0.0,0.0,0.0,0.0,0.0,1.887,1.8908,1.8491,1.8002,1.7371,1.6411,1.5777,1.5504,1.5914,1.6001,1.6107,1.6427,1.65,1.65,1.65,1.6473,1.6829,1.8018,1.7785,1.7999,1.9565,1.974,1.995,2.0535,2.1074,2.1553,2.1876,2.2373,2.2801,2.3071,2.3091,2.3091,2.3091,2.2557,2.2371,2.2664,2.2295,2.2207,2.251,2.1649,2.119,2.119,2.0801,2.0605,2.0605,2.0605,2.0605,2.0605,2.0605,2.0605,2.0605,2.0605,2.0605,2.0605,2.0605,2.0605,2.0605,2.0605,2.0605,2.0692,0.0,0.0,0.0,0.0,0.0,0.0,0.0,0.9927,1.041,1.0684,1.0893,1.155,1.2951,1.3938,1.4845,1.5726,0.0,0.0,0.0,0.0,0.0,0.0,0.0,0.0,0.0,0.0,0.0,0.0,0.0,0.0,0.0,1.8631,1.8602,1.8035,0.0,0.0,0.0,0.0,0.0,0.0,0.0,0.0,0.0,0.0,0.0,0.0,0.0,0.0,0.0,0.0,0.0,0.0,0.0,0.0,0.0,0.0,1.8569,1.8795,1.7851,1.7605,1.7246,1.5781,1.541,1.5504,1.5914,1.6001,1.6107,1.6427,1.65,1.65,1.65,1.6392,1.6728,1.7986,1.8251,1.8733,1.9999,2.0757,2.1032,2.0643,2.1358,2.1896,2.1905,2.2625,2.3091,2.3091,2.3091,2.3091,2.3091,2.3091,2.3081,2.3091,2.2703,2.251,2.2488,2.1649,2.119,2.119,2.0801,2.0605,2.0605,2.0605,2.0605,2.0605,2.0605,2.0605,2.0605,2.0605,2.0605,2.0605,2.0605,2.0605,2.0605,2.0605,2.0605,2.0605,0.0,0.0,0.0,0.0,0.0,0.0,0.0,0.9635,1.0103,1.0502,1.0498,1.0851,1.1892,1.3173,1.4186,1.4723,0.0,0.0,0.0,0.0,0.0,0.0,0.0,0.0,0.0,0.0,0.0,0.0,0.0,0.0,0.0,0.0,0.0,1.8584,1.7134,0.0,0.0,0.0,0.0,0.0,0.0,0.0,0.0,0.0,0.0,0.0,0.0,0.0,0.0,0.0,0.0,0.0,0.0,0.0,0.0,0.0,0.0,1.7541,1.6836,1.6541,1.6136,1.4833,1.4513,1.4686,1.5373,1.5516,1.5825,1.6893,1.6798,1.6749,1.7515,1.733,1.7681,1.9597,1.9929,2.0401,2.172,2.1778,2.1772,2.201,2.2447,2.2723,2.2723,2.2945,2.3091,2.3091,2.3091,2.3091,2.3091,2.3091,2.3091,2.3091,2.2986,2.2918,2.2918,2.2362,2.1942,2.168,2.1553,2.1309,2.1015,2.1328,2.1485,2.1466,2.1152,2.1005,2.0976,2.0713,2.0605,2.0605,2.0605,2.0605,2.0605,2.0605,2.0605,2.0605,0.0,0.0,0.0,0.0,0.0,0.0,0.0,0.9109,0.956,0.9731,1.0006,1.0457,1.1156,1.2711,1.3861,1.4262,0.0,0.0,0.0,0.0,0.0,0.0,0.0,0.0,0.0,0.0,0.0,0.0,0.0,0.0,0.0,0.0,0.0,0.0,0.0,0.0,0.0,0.0,0.0,0.0,0.0,0.0,0.0,0.0,0.0,0.0,0.0,0.0,0.0,0.0,0.0,0.0,0.0,0.0,0.0,0.0,1.6933,1.6714,1.6307,1.6106,1.5709,1.4417,1.4091,1.4307,1.5124,1.5295,1.5632,1.6817,1.6936,1.7061,1.7765,1.7729,1.8128,1.9798,2.0363,2.086,2.1661,2.1839,2.1892,2.192,2.2485,2.282,2.2664,2.2927,2.3091,2.3091,2.3091,2.3091,2.3091,2.3091,2.3091,2.3091,2.3091,2.3091,2.3091,2.2703,2.2305,2.1905,2.1905,2.165,2.121,2.1689,2.1905,2.1886,2.1592,2.1464,0.0,2.0996,2.084,2.082,2.0654,2.0605,2.0605,2.0605,2.0605,2.0605,0.0,0.0,0.0,0.0,0.0,0.0,0.0,0.0,0.0,0.8585,0.9473,1.0289,1.0697,1.2424,1.3734,1.4119,0.0,0.0,0.0,0.0,0.0,0.0,0.0,0.0,0.0,0.0,0.0,1.9633,1.9678,1.9708,1.9708,0.0,0.0,0.0,0.0,0.0,0.0,0.0,0.0,0.0,0.0,0.0,0.0,0.0,0.0,0.0,0.0,0.0,0.0,0.0,0.0,0.0,0.0,0.0,0.0,0.0,0.0,0.0,0.0,1.6073,1.5742,1.436,1.4016,1.4227,1.5071,1.5262,0.0,1.6387,1.6974,1.7374,1.7537,1.7763,1.8208,1.9096,1.9974,2.0532,2.0539,2.1419,2.1718,2.0759,2.1738,2.2353,2.1984,2.2645,2.3091,2.3091,2.3091,2.3091,2.3091,2.3091,2.3091,2.3091,2.3091,2.3091,2.3091,2.2703,2.2314,2.1934,2.1934,2.1719,2.1298,2.1777,2.2003,2.1973,2.1964,2.1935,2.1846,2.1396,2.1181,2.1123,2.0752,2.0605,2.0605,2.0605,2.0605,2.0605,0.0,0.0,0.0,0.0,0.0,0.0,0.0,0.0,0.0,0.0,0.933,0.9728,1.0075,1.1428,1.2415,0.0,0.0,0.0,0.0,0.0,0.0,0.0,0.0,0.0,0.0,0.0,0.0,1.8942,1.9444,1.9708,1.9708,1.9708,0.0,0.0,0.0,0.0,0.0,0.0,0.0,0.0,0.0,0.0,0.0,0.0,0.0,0.0,1.9566,1.8902,0.0,0.0,0.0,0.0,0.0,0.0,0.0,0.0,1.648,1.6251,1.5314,0.0,1.4559,1.3454,1.3174,1.3471,0.0,1.4831,1.5291,1.6865,1.6936,1.7226,1.892,1.8622,1.8871,2.1151,2.1715,2.2281,2.3549,2.3682,2.3005,2.1263,2.1903,2.2449,2.2373,2.281,2.3091,2.3091,2.3091,2.3091,2.3091,2.3091,2.3091,2.3091,2.3091,2.3091,2.3091,2.2703,2.244,2.2363,2.2363,2.2293,2.2206,2.2635,2.282,2.2801,2.2488,2.2178,2.1846,2.1396,2.1015,2.0732,2.0644,2.0605,2.0605,2.0605,2.0605,2.0605,0.0,0.0,0.0,0.0,0.0,0.0,0.0,0.0,0.0,0.0,0.0,0.0,0.0,0.0,0.0,0.0,0.0,0.0,0.0,0.0,0.0,0.0,0.0,0.0,0.0,0.0,0.0,0.0,0.0,1.9453,0.0,0.0,0.0,0.0,0.0,0.0,0.0,0.0,0.0,0.0,0.0,0.0,0.0,0.0,0.0,0.0,1.9708,1.9006,0.0,1.8106,1.7394,1.65,0.0,0.0,0.0,0.0,1.65,1.6239,1.5028,1.4762,1.4547,1.3449,1.338,1.3825,1.4763,1.5051,1.547,1.6734,0.0,1.764,1.8857,1.9221,1.9836,2.1319,2.2182,2.2944,2.3728,2.3652,2.287,2.1135,2.1865,2.2441,2.2246,2.2762,2.3091,2.3091,2.3091,2.3091,2.3091,2.3091,2.3091,2.3091,2.3091,2.3091,2.3091,2.2888,2.2684,2.2488,2.2684,2.2684,2.2508,2.2927,2.3091,2.3081,2.2879,2.2547,2.2139,2.1688,2.1269,2.085,2.0664,2.0605,2.0605,2.0605,2.0605,2.0605,0.0,0.0,0.0,0.0,0.0,0.0,0.0,0.0,0.0,0.0,0.0,0.0,0.0,0.0,0.0,0.0,0.0,0.0,0.0,0.0,0.0,0.0,0.0,0.0,0.0,0.0,0.0,0.0,0.0,0.0,0.0,0.0,0.0,0.0,0.0,0.0,0.0,0.0,0.0,0.0,0.0,0.0,0.0,0.0,0.0,0.0,0.0,0.0,0.0,1.8017,1.7322,1.65,1.65,0.0,0.0,0.0,0.0,0.0,1.5074,1.5109,1.514,1.3859,1.3984,1.4588,1.5307,0.0,0.0,0.0,0.0,0.0,0.0,1.9673,2.0666,2.1018,2.2372,2.3205,2.2754,2.2774,2.2277,2.078,2.1602,2.2207,2.1935,2.2529,2.2925,2.2994,2.3003,2.2974,2.2927,2.3023,2.3062,2.3003,2.3062,2.3091,2.3091,2.3033,2.2869,2.2586,2.2857,2.2869,2.2596,2.2935,2.3091,2.3091,2.3091,0.0,2.2383,2.2031,2.1592,2.1074,2.0732,2.0605,2.0605,2.0605,2.0605,2.0605,0.0,0.0,0.0,0.0,0.0,0.0,0.0,0.0,0.0,0.0,0.0,0.0,0.0,0.0,0.0,0.0,0.0,0.0,0.0,0.0,0.0,0.0,0.0,0.0,0.0,0.0,0.0,0.0,0.0,0.0,1.7265,1.7442,1.7599,0.0,0.0,0.0,0.0,0.0,0.0,0.0,0.0,0.0,0.0,0.0,0.0,0.0,0.0,0.0,0.0,1.7575,1.7013,1.65,1.65,0.0,0.0,0.0,0.0,0.0,1.5297,1.5635,1.5689,1.4143,1.4082,1.4723,1.595,0.0,0.0,0.0,0.0,0.0,0.0,2.01,2.0552,2.2433,2.3763,2.4104,2.2873,2.3086,2.2695,2.0818,2.1074,2.1532,2.1876,2.2002,2.2227,2.2557,2.2586,2.243,2.21,2.2732,2.2925,2.2596,2.2927,2.3091,2.3091,2.2762,2.2732,2.2994,2.2723,2.2742,2.3003,2.3062,2.3091,2.3091,0.0,2.2684,2.2003,2.1935,2.1426,2.0684,2.0615,2.0605,2.0605,2.0605,2.0605,2.0605,0.0,0.0,0.0,0.0,0.0,0.0,0.0,0.0,0.0,0.0,0.0,0.0,0.0,0.0,0.0,0.0,0.0,0.0,0.0,0.0,0.0,0.0,0.0,0.0,0.0,0.0,0.0,0.0,0.0,1.6661,1.5804,1.56,1.6059,1.7073,0.0,0.0,0.0,0.0,0.0,0.0,0.0,0.0,0.0,0.0,0.0,0.0,0.0,0.0,0.0,0.0,1.694,1.65,1.65,0.0,0.0,0.0,0.0,0.0,1.559,1.5856,1.6084,1.538,1.5748,1.6449,1.707,1.7291,0.0,0.0,0.0,0.0,0.0,2.1251,2.2219,2.4139,2.4879,2.4748,2.3327,2.3343,2.2787,2.0828,2.0967,2.1268,2.1493,2.1748,2.1984,2.2158,2.2383,2.2324,2.1925,2.2471,2.2693,2.2519,2.2684,2.2888,2.3091,2.2927,2.2927,2.3091,2.2896,2.2927,2.3091,2.3091,2.3091,2.3081,0.0,2.2451,2.1886,2.1631,2.1152,2.0605,2.0605,2.0605,2.0605,2.0605,2.0605,2.0605,0.0,0.0,0.0,0.0,0.0,0.0,0.0,0.0,0.0,0.0,0.0,0.0,0.0,0.0,0.0,0.0,0.0,0.0,0.0,0.0,0.0,0.0,0.0,0.0,0.0,0.0,1.645,1.6328,1.6338,1.567,1.4371,1.4228,1.4844,0.0,0.0,0.0,0.0,0.0,0.0,0.0,0.0,0.0,0.0,0.0,0.0,0.0,0.0,0.0,0.0,0.0,0.0,0.0,0.0,0.0,0.0,1.65,1.6402,1.6208,1.5855,1.6041,1.6362,1.6527,0.0,1.768,1.8216,1.8376,0.0,0.0,0.0,0.0,0.0,2.2509,2.391,2.5193,2.5636,2.5267,2.3725,2.3496,2.2787,2.0828,2.0869,2.1103,2.1181,2.1445,2.1641,2.1728,2.201,2.2049,2.1748,2.2139,2.2412,2.251,2.2412,2.2547,2.2967,2.2967,2.3003,2.3091,2.3091,2.3091,2.3091,2.2994,2.3003,2.3062,2.2576,2.2178,2.1846,2.1396,2.0947,2.0605,2.0605,2.0605,2.0605,2.0605,2.0605,2.0605,0.0,0.0,0.0,0.0,0.0,0.0,0.0,0.0,0.0,0.0,0.0,0.0,0.0,0.0,0.0,0.0,0.0,0.0,0.0,0.0,0.0,0.0,0.0,0.0,0.0,1.5836,1.5654,1.5222,1.4415,1.3822,1.3419,1.426,1.4906,1.5467,0.0,0.0,0.0,0.0,0.0,0.0,0.0,0.0,0.0,0.0,0.0,0.0,0.0,0.0,0.0,0.0,0.0,0.0,0.0,0.0,1.65,1.65,1.6095,1.5751,1.6137,1.6326,1.6503,1.6942,1.6728,0.0,1.9169,1.9283,0.0,2.0941,0.0,0.0,0.0,2.357,2.4729,2.4842,2.5753,2.5755,2.377,2.3496,2.2787,2.0828,2.0635,2.0801,2.1151,2.0889,2.0859,2.123,2.1268,2.1278,2.1239,2.1699,2.2109,2.2479,2.2139,2.2129,2.2527,2.2537,2.2732,2.3091,2.3091,2.3091,2.3081,2.2713,2.2752,2.3052,2.2285,2.1935,2.1846,2.1396,2.0947,2.0605,2.0605,2.0605,2.0605,2.0605,2.0605,2.0605,0.0,0.0,0.0,0.0,0.0,0.0,0.0,0.0,0.0,0.0,0.0,0.0,0.0,0.0,0.0,0.0,0.0,0.0,0.0,0.0,0.0,0.0,0.0,1.5653,1.5374,1.5366,1.5128,1.4659,1.3213,1.2428,1.2314,1.3218,0.0,0.0,0.0,0.0,0.0,0.0,0.0,0.0,0.0,0.0,0.0,0.0,0.0,0.0,0.0,0.0,0.0,0.0,1.607,1.65,1.65,1.65,1.65,1.65,1.6348,1.6199,1.6388,1.6716,1.7132,1.7662,1.7626,0.0,0.0,1.9924,2.0339,2.1306,2.2033,0.0,0.0,2.4749,2.5447,2.5329,2.5967,2.6025,2.4636,2.3891,2.2999,2.1631,2.0953,2.0654,2.082,2.0684,2.0654,2.083,2.1054,2.1093,2.083,2.124,2.1532,2.1688,2.1826,2.209,2.251,2.2752,2.2957,2.3091,2.3091,2.2976,2.2723,2.2566,2.2576,2.2693,2.2139,2.1905,2.1846,2.1396,2.0947,2.0605,2.0605,2.0605,2.0605,2.0605,2.0605,2.0605,0.0,0.0,0.0,0.0,0.0,0.0,0.0,0.0,0.0,0.0,0.0,0.0,0.0,0.0,0.0,0.0,0.0,0.0,0.0,0.0,0.0,0.0,0.0,1.5206,1.509,1.4693,1.4314,1.3993,1.2468,1.18,1.194,0.0,0.0,0.0,0.0,0.0,0.0,0.0,0.0,0.0,0.0,0.0,0.0,0.0,0.0,0.0,0.0,0.0,0.0,0.0,1.5806,1.6272,1.6448,1.65,1.65,1.65,1.65,1.65,1.65,1.681,1.725,1.7802,0.0,0.0,1.9823,2.0402,2.0943,2.182,2.2596,2.3446,2.4591,0.0,2.5562,2.5597,2.6122,2.6042,2.4707,2.3927,2.3017,2.1697,2.0992,2.0605,2.0605,2.0605,2.0644,2.0781,2.0928,2.1006,2.1006,2.1006,2.1132,2.1405,2.1592,2.1885,2.2314,2.2713,2.2918,2.2918,2.2918,2.2771,2.2479,2.2215,2.2235,2.2459,2.1924,2.1836,2.2041,2.1454,2.0947,2.0605,2.0605,2.0605,2.0605,2.0605,2.0605,2.0605,0.0,0.0,0.0,0.0,0.0,0.0,0.0,0.0,0.0,0.0,0.0,0.0,0.0,0.0,0.0,0.0,0.0,0.0,0.0,0.0,0.0,0.0,0.0,1.4414,1.5074,1.3776,1.3077,1.3069,1.2211,1.2006,1.2404,1.3356,0.0,0.0,0.0,0.0,0.0,0.0,0.0,0.0,0.0,0.0,0.0,0.0,0.0,0.0,0.0,0.0,0.0,0.0,1.5261,1.5806,1.6335,1.65,1.65,1.65,1.65,1.65,1.65,1.65,1.6649,0.0,0.0,0.0,2.0453,2.0717,2.1168,2.2782,2.3108,2.3459,2.4591,2.4804,2.498,2.5511,2.6122,2.5791,2.3788,2.3507,2.2787,2.0847,2.0605,2.0605,2.0605,2.0605,2.0772,2.1151,2.084,2.0967,2.1847,2.1065,2.1006,2.1866,2.1435,2.1425,2.1905,2.2305,2.2498,2.2488,2.251,2.2488,2.2459,2.1601,2.1679,2.244,2.1591,2.1698,2.243,2.1571,2.0977,2.0615,2.0605,2.0605,2.0605,2.0605,2.0605,2.0605,0.0,0.0,0.0,0.0,0.0,0.0,0.0,0.0,0.0,0.0,0.0,0.0,0.0,0.0,0.0,0.0,0.0,0.0,0.0,0.0,0.0,0.0,0.0,0.0,0.0,0.0,1.1439,1.1066,1.1175,1.1441,0.0,0.0,0.0,1.5134,0.0,0.0,0.0,0.0,0.0,0.0,0.0,0.0,0.0,0.0,0.0,0.0,0.0,0.0,0.0,0.0,0.0,0.0,1.645,1.65,1.65,1.65,1.65,1.65,1.65,1.681,0.0,1.7827,0.0,0.0,0.0,2.1543,0.0,0.0,2.3725,2.3951,2.4678,2.5105,2.541,2.5573,2.6122,2.6042,2.4743,2.3945,2.3017,2.1735,2.1001,2.0605,2.0605,2.0605,2.0644,2.0772,2.0674,2.0723,2.0967,2.0752,2.0723,2.0967,2.1456,2.1758,2.1905,2.2576,2.2781,2.251,2.2207,2.207,2.2051,2.1474,2.1523,2.206,2.1797,2.2002,2.243,2.1571,2.1132,2.0986,2.0703,2.0605,2.0605,2.0605,2.0605,2.0605,0.0,0.0,0.0,0.0,0.0,0.0,0.0,0.0,0.0,0.0,0.0,0.0,0.0,0.0,0.0,0.0,0.0,0.0,0.0,0.0,0.0,0.0,0.0,0.0,0.0,1.1759,1.1148,0.0,0.0,0.0,0.0,0.0,0.0,1.5389,0.0,1.5799,0.0,0.0,0.0,0.0,0.0,1.7533,1.7838,0.0,0.0,0.0,0.0,0.0,0.0,0.0,0.0,0.0,1.6425,0.0,1.65,1.65,1.65,1.655,1.6798,1.7123,0.0,1.8593,1.9497,2.0489,2.1832,0.0,0.0,0.0,2.4004,2.423,2.498,2.5385,2.5674,2.5917,2.6273,2.6013,2.46,2.3872,2.298,2.1612,2.0953,2.0605,2.0605,2.0605,2.0674,2.084,2.0684,2.0664,2.082,2.0684,2.0605,2.0605,2.125,2.1621,2.1621,2.2284,2.2488,2.2256,2.1836,2.1719,2.1886,2.125,2.1299,2.1925,2.2236,2.2334,2.2236,2.1864,2.1502,2.1191,2.0937,2.0742,2.0605,2.0605,2.0605,2.0605,0.0,0.0,0.0,0.0,0.0,0.0,0.0,0.0,0.0,0.0,0.0,0.0,0.0,0.0,0.0,0.0,0.0,0.0,0.0,0.0,0.0,0.0,0.0,0.0,0.0,0.0,0.0,0.0,0.0,0.0,0.0,0.0,1.5278,1.5726,0.0,1.5627,0.0,0.0,0.0,0.0,1.6271,1.6555,1.6576,1.6223,0.0,0.0,0.0,0.0,0.0,0.0,0.0,0.0,1.6348,1.65,1.65,1.65,1.65,1.6636,1.7236,1.741,1.7763,1.9346,2.0251,2.1168,2.2744,2.3108,2.3258,2.3788,2.4004,2.4368,2.5347,2.5598,2.5866,2.6411,2.6499,2.5791,2.377,2.3496,2.2787,2.0828,2.0605,2.0605,2.0605,2.0605,2.0752,2.1123,2.0811,2.0762,2.1132,2.0811,2.0605,2.0605,2.0976,2.119,2.119,2.167,2.1886,2.1816,2.1405,2.1396,2.1759,2.0947,2.1085,2.1934,2.2713,2.2654,2.2031,2.2373,2.201,2.1269,2.121,2.0937,2.0605,2.0605,2.0605,2.0605,0.0,0.0,0.0,0.0,0.0,0.0,0.0,0.0,0.0,0.0,0.0,0.0,0.0,0.0,0.0,0.0,0.0,0.0,0.0,0.0,0.0,0.0,0.0,0.0,0.0,0.0,0.0,0.0,0.0,0.0,0.0,0.0,0.0,1.5211,0.0,1.4316,0.0,0.0,0.0,1.4288,1.4947,1.5515,1.601,1.6071,1.586,0.0,0.0,0.0,0.0,0.0,0.0,0.0,1.645,1.65,1.65,1.65,1.65,1.6636,1.7236,1.741,0.0,1.8882,2.0263,2.1645,2.2832,2.3108,2.3145,2.3271,2.4014,2.4704,2.4929,2.5703,2.6348,2.6474,2.6499,2.5791,2.377,2.3496,2.2787,2.0828,2.0605,2.0605,2.0605,2.0605,2.0644,2.0723,2.0644,2.0644,2.0723,2.0654,2.0605,2.0605,2.0976,2.119,2.119,2.167,2.1719,2.1347,2.1239,2.1103,2.0859,2.0693,2.1085,2.1935,2.2432,2.2713,2.283,2.2586,2.2207,2.1709,2.1347,2.0937,2.0605,2.0605,2.0605,2.0605,0.0,0.0,0.0,0.0,0.0,0.0,0.0,0.0,0.0,0.0,0.0,0.0,0.0,0.0,0.0,0.0,0.0,0.0,0.0,0.0,1.0847,0.0,0.0,0.0,0.0,0.0,0.0,0.0,0.0,0.0,0.0,0.0,0.0,1.4787,0.0,1.3997,0.0,0.0,0.0,1.3833,1.4184,1.4591,1.4979,1.4882,1.4796,1.4715,1.4529,0.0,0.0,0.0,0.0,0.0,0.0,0.0,1.65,1.65,1.65,1.6699,1.7551,1.7777,1.8166,1.9785,0.0,2.2108,2.2907,2.3108,2.3108,2.3108,2.401,2.4804,2.4804,2.5741,2.6499,2.6499,2.6499,2.596,2.4427,2.4228,2.3489,2.1508,2.126,2.1097,2.0644,2.0605,2.0605,2.0605,2.0605,2.0605,2.0605,2.0605,2.0605,2.0605,2.0791,2.0918,2.0918,2.1162,2.1143,2.0918,2.0918,2.0791,2.0615,2.0811,2.125,2.1925,2.2334,2.2615,2.2801,2.2586,2.2266,2.1846,2.1386,2.0937,2.0605,2.0605,2.0605,2.0605,0.0,0.0,0.0,0.0,0.0,0.0,0.0,0.0,0.0,0.0,0.0,0.0,0.0,0.0,0.0,0.0,0.0,0.0,0.0,0.9686,1.0508,1.1545,0.0,0.0,0.0,0.0,0.0,0.0,0.0,0.0,0.0,0.0,0.0,1.4373,0.0,0.0,0.0,0.0,1.3304,1.3304,1.3429,1.3565,1.3706,1.3492,1.3554,1.3764,1.3892,1.4299,1.4843,1.5377,0.0,0.0,0.0,0.0,1.6385,1.6475,1.65,1.6737,1.7777,1.8204,1.8857,2.0966,2.1832,2.232,2.2957,2.3108,2.3108,2.3108,2.3923,2.4691,2.4791,2.5653,2.6386,2.6474,2.6499,2.6146,2.5141,2.4987,2.4319,2.2478,2.2103,2.1678,2.0915,2.0692,2.0605,2.0605,2.0605,2.0605,2.0605,2.0605,2.0605,2.0605,2.0605,2.0605,2.0605,2.0605,2.0605,2.0605,2.0605,2.0644,2.0703,2.0986,2.1357,2.1787,2.2118,2.2313,2.2402,2.2402,2.2158,2.1738,2.1357,2.0937,2.0605,2.0605,2.0605,2.0605,0.0,0.0,0.0,0.0,0.0,0.0,0.0,0.0,0.0,0.0,0.0,0.7319,0.7393,0.7406,0.0,0.0,0.0,0.0,0.9032,0.0,0.0,0.0,0.0,0.0,0.0,0.0,0.0,0.0,0.0,0.0,0.0,0.0,0.0,1.392,0.0,0.0,0.0,0.0,0.0,1.1338,1.192,1.2161,1.2252,1.2848,1.3095,1.3132,1.3272,1.3706,1.4296,1.483,1.5047,0.0,0.0,0.0,1.5906,1.635,1.65,1.6649,1.7313,1.8191,1.9321,2.1054,2.1543,2.187,2.2869,2.3108,2.3108,2.3108,2.3637,2.4255,2.4716,2.5293,2.5891,2.6411,2.6499,2.6146,2.5141,2.4987,2.4582,2.3441,2.2534,2.1962,2.183,2.1078,2.0605,2.0605,2.0605,2.0605,2.0605,2.0605,2.0605,2.0605,2.0605,2.0605,2.0605,2.0605,2.0605,2.0605,2.0605,2.0771,2.1113,2.0801,2.0898,2.1308,2.1337,2.1601,2.1973,2.1973,2.1709,2.1298,2.122,2.0937,2.0605,2.0605,2.0605,2.0605,0.0,0.0,0.0,0.0,0.0,0.0,0.0,0.0,0.0,0.0,0.0,0.6953,0.6953,0.6953,0.0,0.0,0.0,0.0,0.9019,0.9824,0.0,0.0,0.0,0.0,0.0,0.0,0.0,0.0,0.0,0.0,0.0,1.2364,1.2774,0.0,0.0,0.0,0.0,0.0,0.0,1.093,1.1217,1.1787,1.2461,1.2439,1.2925,1.3574,1.3296,1.3584,1.4132,1.4371,1.4856,1.5427,1.5906,0.0,0.0,0.0,1.65,1.6699,1.7601,1.8405,1.9396,2.1079,2.1507,2.1782,2.2857,2.3108,2.3108,2.3108,2.3308,2.3675,2.4239,2.5034,2.5686,2.5954,2.6285,2.6349,2.5891,2.5838,2.5476,2.4463,2.3945,2.3239,2.2103,2.1631,2.1174,2.0644,2.0605,2.0605,2.0605,2.0605,2.0605,2.0605,2.0605,2.0605,2.0605,2.0605,2.0605,2.0605,2.0605,2.0693,2.0859,2.0674,2.0957,2.1582,2.1298,2.1464,2.1886,2.1621,2.1386,2.1171,2.0957,2.0762,2.0605,2.0605,2.0605,2.0605,0.0,0.0,0.0,0.0,0.0,0.0,0.0,0.0,0.0,0.0,0.0,0.0,0.6807,0.0,0.0,0.0,0.0,0.0,0.8605,0.0,0.0,0.0,0.0,0.0,0.0,0.0,0.0,0.0,0.0,0.0,1.2227,1.1936,1.2621,0.0,1.3163,0.0,0.0,0.0,0.0,0.0,0.0,1.168,1.2569,1.2541,1.3186,1.4044,1.3584,1.3727,1.4103,1.4103,1.4529,1.5116,1.5402,1.5678,0.0,0.0,0.0,1.6713,1.7715,1.8393,1.9171,2.069,2.1294,2.1744,2.2681,2.3007,2.3108,2.3108,2.3108,2.3233,2.3687,2.4556,2.5234,2.5372,2.5891,2.6273,2.6273,2.6399,2.6216,2.5458,2.5158,2.4319,2.2553,2.214,2.1612,2.0673,2.0605,2.0605,2.0605,2.0605,2.0605,2.0605,2.0605,2.0605,2.0605,2.0605,2.0605,2.0605,2.0605,2.0605,2.0605,2.0605,2.0947,2.1553,2.1201,2.125,2.1544,2.1201,2.1045,2.1015,2.0713,2.0605,2.0605,2.0605,2.0605,2.0605,0.0,0.0,0.0,0.0,0.0,0.0,0.0,0.0,0.0,0.0,0.0,0.0,0.0,0.0,0.0,0.0,0.0,0.0,0.0,0.0,0.0,0.0,0.0,0.0,0.0,0.0,0.0,0.0,0.0,0.0,1.2855,1.2513,1.2977,1.4053,1.2931,1.2688,1.3023,0.0,0.0,0.0,0.0,0.0,1.1847,1.3402,1.4037,1.4103,1.4056,0.0,0.0,0.0,1.3765,1.352,1.4607,1.4614,1.4425,0.0,0.0,0.0,1.7274,1.7827,1.8518,1.961,2.069,2.1658,2.2207,2.2732,2.3108,2.3108,2.3108,2.3108,2.3145,2.3662,2.4255,2.4754,2.5281,2.5653,2.5653,2.6147,2.6469,2.6435,2.5581,2.4582,2.3514,2.2553,2.1612,2.0673,2.0605,2.0605,2.0605,2.0605,2.0605,2.0605,2.0605,2.0605,2.0605,2.0605,2.0605,2.0605,2.0605,2.0605,2.0605,2.0605,2.0625,2.0674,2.0644,2.0654,2.0674,2.0644,2.0635,2.0635,2.0615,2.0605,2.0605,2.0605,2.0605,2.0605,0.0,0.0,0.0,0.0,0.0,0.0,0.0,0.0,0.0,0.0,0.0,0.0,0.0,0.0,0.0,0.0,0.0,0.0,0.0,0.0,0.0,0.0,0.0,0.0,0.0,0.0,0.0,0.0,0.0,1.0964,1.1492,1.1754,1.2286,1.3002,1.2939,1.2831,1.2651,1.2049,0.0,0.0,0.0,0.0,0.0,1.3867,1.4535,1.5085,1.473,0.0,0.0,0.0,1.4469,1.4359,1.4771,1.4768,1.4765,1.549,1.5831,1.6195,1.7135,1.7537,1.8027,1.9447,2.0112,2.074,2.2006,2.2458,2.2681,2.3032,2.3108,2.3108,2.3108,2.3587,2.4067,2.4268,2.453,2.4915,2.5515,2.5551,2.5786,2.6418,2.6181,2.5323,2.3661,2.3165,2.232,2.0712,2.0605,2.0605,2.0605,2.0605,2.0605,2.0605,2.0605,2.0605,2.0605,2.0605,2.0605,2.0605,2.0605,2.0605,2.0605,2.0605,2.0605,2.0605,2.0605,2.0605,2.0605,2.0605,2.0605,2.0605,2.0605,2.0605,2.0605,2.0605,2.0605,2.0605,0.0,0.0,0.0,0.0,0.0,0.0,0.0,0.0,0.0,0.0,0.0,0.0,0.0,0.0,0.0,0.0,0.0,0.0,0.0,0.0,0.0,0.0,0.0,0.0,0.0,0.0,0.0,0.0,0.0,0.0,0.0,1.1324,1.1897,1.2408,1.2588,1.2772,0.0,0.0,0.0,1.219,0.0,0.0,1.4166,1.4702,1.5349,1.5906,1.5351,0.0,0.0,0.0,0.0,1.4868,1.468,1.4626,1.473,1.5264,1.5552,1.5894,1.6835,1.7248,1.7701,1.8945,1.9409,1.9911,2.1418,2.1895,2.2169,2.2719,2.297,2.3108,2.3108,2.3436,2.3703,2.3703,2.3705,2.4088,2.5178,2.4996,2.5188,2.6358,2.6499,2.5721,2.3697,2.3496,2.2694,2.075,2.0605,2.0605,2.0605,2.0605,2.0605,2.0605,2.0605,2.0605,2.0605,2.0605,2.0605,2.0605,2.0605,2.0605,2.0605,2.0605,2.0605,2.0605,2.0605,2.0605,2.0605,2.0605,2.0605,2.0605,2.0605,2.0605,2.0605,2.0605,2.0605,2.0605,0.0,0.0,0.0,0.0,0.0,0.0,0.0,0.0,0.0,0.0,0.0,0.0,0.0,0.0,0.0,0.0,0.0,0.0,0.0,0.0,0.0,0.0,0.0,0.0,0.0,0.0,0.0,0.0,0.0,0.0,0.0,0.0,1.1851,1.2333,1.1814,1.2503,1.3943,0.0,1.2714,1.3282,0.0,1.4094,1.4321,0.0,1.6498,1.6436,1.5906,1.5718,0.0,1.5123,0.0,1.483,1.4296,1.4119,1.4233,1.4777,1.5299,1.5819,0.0,0.0,0.0,1.8041,1.8568,1.9246,2.0415,2.1055,2.1581,2.2169,2.2694,2.3058,2.3095,2.3108,2.3108,2.3108,2.2881,2.3176,2.4555,2.4493,2.4834,2.6274,2.6469,2.5721,2.3697,2.3496,2.2694,2.075,2.0605,2.0605,2.0605,2.0605,2.0605,2.0605,2.0605,2.0605,2.0605,2.0605,2.0605,2.0605,2.0605,2.0605,2.0605,2.0605,2.0605,2.0605,2.0605,2.0605,2.0605,2.0605,2.0605,2.0605,2.0605,2.0605,2.0605,2.0605,2.0605,2.0605,0.0,0.0,0.0,0.0,0.0,0.0,0.7468,0.0,0.0,0.0,0.0,0.0,0.0,0.0,0.0,0.0,0.0,0.0,0.0,0.0,0.0,0.9088,1.0261,0.0,0.0,0.0,0.0,0.0,0.0,0.0,0.0,0.0,0.0,0.0,1.1475,1.1854,1.2277,1.196,0.0,1.3837,1.3559,1.4174,0.0,0.0,0.0,0.0,0.0,1.6272,1.626,0.0,1.5793,1.5399,0.0,1.4676,1.478,1.5314,1.5578,1.5819,1.635,0.0,0.0,0.0,0.0,0.0,1.971,1.9861,2.0187,2.1931,2.2121,2.2169,2.2957,2.3108,2.3108,2.3108,2.279,2.2829,2.3612,2.4005,2.4514,2.5328,2.606,2.5721,2.3697,2.3496,2.2694,2.075,2.0605,2.0605,2.0605,2.0605,2.0605,2.0605,2.0605,2.0605,2.0605,2.0605,2.0605,2.0605,2.0605,2.0605,2.0605,2.0605,2.0605,2.0605,2.0605,2.0605,2.0605,2.0605,2.0605,2.0605,2.0605,2.0605,2.0605,2.0605,2.0605,2.0605,0.0,0.0,0.0,0.0,0.0,0.8517,0.8162,0.8212,0.821,0.0,0.0,0.0,0.0,0.0,0.0,0.0,0.0,0.0,0.0,0.0,0.8961,0.9212,1.017,1.1075,0.0,0.0,0.0,0.0,0.0,0.0,0.0,0.0,0.0,0.0,1.0827,1.1281,1.1902,1.1425,0.0,0.0,1.3772,0.0,0.0,1.5856,1.6222,0.0,0.0,0.0,1.65,1.65,1.6134,0.0,1.5326,1.5085,1.5007,1.554,1.5703,1.5819,1.635,1.65,0.0,1.7248,0.0,0.0,1.9083,1.8995,1.9038,2.0811,2.1108,2.1291,2.2152,2.2254,2.2313,2.2561,2.2099,2.2083,2.3138,2.3284,2.3711,2.4868,2.5511,2.5411,2.4246,2.3745,2.285,2.1298,2.0818,2.0605,2.0605,2.0605,2.0605,2.0605,2.0605,2.0605,2.0605,2.0605,2.0605,2.0605,2.0605,2.0605,2.0605,2.0605,2.0605,2.0605,2.0605,2.0605,2.0605,2.0605,2.0605,2.0605,2.0605,2.0605,2.0605,2.0605,2.0605,2.0605,0.0,0.0,0.9905,0.9905,0.9503,0.917,0.9113,0.8744,0.8558,0.0,0.0,0.0,0.0,0.0,0.0,0.0,0.0,0.0,0.0,0.0,0.8838,0.9384,1.0034,1.0876,1.1876,0.0,0.0,0.0,0.0,0.0,0.0,0.0,0.0,0.0,1.0106,1.0759,1.2149,1.1272,1.151,1.2622,1.4108,1.4868,0.0,0.0,1.645,1.65,1.65,1.65,1.65,1.65,1.6172,1.5781,1.5781,1.5452,1.5173,1.5653,1.5781,0.0,1.6373,1.6549,0.0,1.7186,1.6986,0.0,1.8494,1.8326,1.8161,1.9269,1.9831,2.0306,2.0879,2.0881,2.099,2.152,2.1001,2.1123,2.2826,2.2445,2.269,2.4525,2.4791,2.4826,2.4826,2.3927,2.2962,2.2065,2.1136,2.0605,2.0605,2.0605,2.0605,2.0605,2.0605,2.0605,2.0605,2.0605,2.0605,2.0605,2.0605,2.0605,2.0605,2.0605,2.0605,2.0605,2.0605,2.0605,2.0605,2.0605,2.0605,2.0605,2.0605,2.0605,2.0605,2.0605,2.0605,2.0605,0.0,0.0,0.9905,0.9905,0.9805,0.9598,0.9163,0.9372,0.955,0.0,0.0,0.0,0.0,0.0,0.0,0.0,0.0,0.0,0.0,0.0,0.9275,0.9396,1.0034,1.0876,1.1876,1.1897,0.0,0.0,0.0,0.0,0.0,0.0,0.0,0.0,0.9956,1.0319,1.1084,1.1773,1.245,1.3073,1.3394,1.4594,1.616,1.5944,1.6122,1.65,1.65,1.65,1.65,1.65,1.6436,1.6348,1.6348,1.6272,1.621,1.63,1.6348,1.6373,1.6473,1.6861,1.7148,1.6762,1.7276,0.0,1.7738,1.7597,1.776,1.8689,1.8619,1.8661,1.9505,1.9642,1.9676,1.9794,1.9938,2.0412,2.1457,2.184,2.2294,2.306,2.3532,2.38,2.38,2.2888,2.2215,2.2008,2.1136,2.0605,2.0605,2.0605,2.0605,2.0605,2.0605,2.0605,2.0605,2.0605,2.0605,2.0605,2.0605,2.0605,2.0605,2.0605,2.0605,2.0605,2.0605,2.0605,2.0605,2.0605,2.0605,2.0605,2.0605,2.0605,2.0605,2.0605,2.0605,2.0605,0.0,0.9855,1.0091,0.9925,1.004,1.0001,0.9566,0.9874,0.0,0.0,0.0,0.0,0.0,0.0,0.0,0.0,0.0,0.0,0.0,0.0,0.9408,0.9408,0.988,1.07,1.1864,1.1897,1.2031,0.0,0.0,0.0,0.0,0.0,0.0,0.0,0.0,1.0763,1.1585,1.2157,1.3036,1.4064,1.434,1.5106,1.6097,1.6097,1.6272,1.65,1.65,1.65,1.65,1.65,1.65,1.655,1.6861,1.6948,1.6948,1.6948,1.6948,1.6875,1.6586,1.6724,1.6948,1.6948,1.7138,0.0,0.0,1.7422,1.6986,1.7952,1.7721,1.7676,1.8702,1.8635,1.8644,1.9373,1.9014,1.9035,2.0095,2.067,2.1233,2.1966,2.2288,2.2736,2.3419,2.259,2.1811,2.1336,2.0857,2.0605,2.0605,2.0605,2.0605,2.0605,2.0605,2.0605,2.0605,2.0605,2.0605,2.0605,2.0605,2.0605,2.0605,2.0605,2.0605,2.0605,2.0605,2.0605,2.0605,2.0605,2.0605,2.0605,2.0605,2.0605,2.0663,2.1136,2.1001,2.0673,0.0,1.021,1.0316,1.004,1.0307,1.0436,1.0108,1.0373,0.0,0.0,0.0,0.0,0.0,0.0,0.0,0.0,0.0,0.0,0.0,0.9183,0.9551,0.9551,0.978,1.0483,1.1742,1.1852,1.2062,0.0,0.0,0.0,0.0,1.015,1.0188,1.0713,0.0,0.0,0.0,0.0,0.0,1.5085,1.5527,1.5756,1.5906,1.6335,1.65,1.65,1.65,1.65,1.65,1.65,1.65,1.6586,1.7074,1.7311,1.741,1.741,1.7462,1.7449,1.6963,1.6901,1.705,1.7324,1.7187,1.7252,0.0,0.0,0.0,1.7358,1.7239,1.728,1.8165,1.7871,1.7856,1.8912,1.8103,1.7674,1.8566,1.9034,1.9737,2.0967,2.105,2.1554,2.2959,2.2368,2.152,2.0654,2.0527,2.0498,2.0595,2.0605,2.0605,2.0605,2.0605,2.0605,2.0605,2.0605,2.0605,2.0605,2.0605,2.0605,2.0605,2.0605,2.0605,2.0605,2.0605,2.0605,2.0605,2.0605,2.0605,2.0605,2.0605,2.0605,2.0712,2.165,2.1517,2.0972,1.0272,1.0365,1.0384,1.0347,1.0775,1.1003,1.0668,1.1096,0.0,0.0,0.0,0.0,0.0,0.0,0.0,0.0,0.0,0.0,0.9516,0.9867,1.0114,1.0114,0.997,1.0327,1.1256,1.1684,1.1731,1.1362,0.0,0.0,0.0,0.0,1.0188,1.0719,1.1261,1.2095,1.3144,0.0,1.4566,1.5615,1.5678,1.5971,1.6423,1.6486,1.65,1.65,1.65,1.65,1.65,1.65,1.65,1.65,1.6586,1.6974,1.741,1.741,1.7738,1.8091,1.8028,1.8343,1.8494,1.7625,1.8054,1.8381,1.7077,0.0,1.7798,1.7262,0.0,1.7759,1.7706,0.0,0.0,1.6949,1.7068,1.7031,1.6545,1.6817,1.7808,1.9827,1.9765,2.0088,2.1497,2.1549,2.1228,2.0644,2.0205,2.0156,2.0586,2.0605,2.0605,2.0605,2.0605,2.0605,2.0605,2.0605,2.0605,2.0605,2.0605,2.0605,2.0605,2.0605,2.0605,2.0605,2.0605,2.0605,2.0605,2.0605,2.0605,2.0605,2.0605,2.0605,2.0712,2.165,2.1943,2.1868,1.0335,1.0396,0.0,1.0396,1.0595,1.0736,1.0699,1.1966,1.2994,0.0,0.0,0.0,1.4142,1.315,1.2547,1.2772,1.247,1.1881,1.0943,1.1252,0.0,1.1023,1.0926,1.0983,1.1195,1.1389,1.1395,1.1202,1.1093,0.0,0.0,0.0,1.067,1.1254,1.2145,1.2973,1.3765,1.4315,1.4818,1.5261,1.5578,1.5831,1.607,1.6385,1.65,1.65,1.65,1.6724,1.7024,1.7024,1.7024,1.7137,1.7754,1.7916,1.7928,1.823,1.8493,1.8606,1.828,1.8368,1.843,1.7978,1.7965,1.7978,1.7589,0.0,1.7557,1.7562,0.0,0.0,0.0,0.0,0.0,0.0,1.6988,1.6547,1.6462,1.658,1.7222,1.8636,1.8443,1.8611,1.9666,2.0022,2.0089,1.9861,1.9883,2.0,2.0176,2.0449,2.0605,2.0605,2.0605,2.0605,2.0605,2.0605,2.0605,2.0605,2.0605,2.0605,2.0605,2.0605,2.0605,2.0605,2.0605,2.0605,2.0605,2.0605,2.0605,2.0605,2.0605,2.0605,2.0789,2.232,2.2497,2.2159,1.0471,0.0,0.0,1.0526,1.0578,1.0743,1.1109,1.2615,1.3734,1.3796,1.3934,1.4249,1.483,1.3862,1.3343,1.3826,1.3739,1.3302,1.246,1.2542,1.2521,1.2302,1.1849,1.1711,1.1947,1.1446,1.1353,1.169,1.0965,1.0813,0.0,0.0,1.1254,1.1872,1.296,1.3769,1.4349,1.4893,1.5198,1.5361,1.5603,1.5781,1.5969,1.6348,1.65,1.65,1.65,1.6765,1.709,1.709,1.705,1.7191,1.8166,1.8314,1.8227,1.8833,1.9108,1.9121,1.8732,1.8643,1.8581,1.8267,1.7914,1.765,1.7727,0.0,0.0,1.793,1.8353,0.0,0.0,0.0,0.0,0.0,0.0,1.6457,1.662,1.6645,1.6962,1.7836,1.781,1.7856,1.8232,1.8682,1.8984,1.9102,1.9376,1.9649,1.9883,2.0215,2.0459,2.0595,2.0605,2.0605,2.0605,2.0605,2.0605,2.0605,2.0605,2.0605,2.0605,2.0605,2.0731,2.0972,2.0972,2.0972,2.0972,2.0972,2.0818,2.0605,2.0605,2.0605,2.0847,2.2776,2.322,2.3036,1.0819,1.0617,0.0,1.0831,1.1039,1.1438,1.2225,1.2839,1.3429,1.4002,1.4091,1.4296,1.4843,1.4849,1.4814,1.4755,1.4811,1.4579,1.3976,1.3463,1.3424,1.4002,1.2474,1.2291,1.3787,1.2099,1.1769,1.2943,1.1763,1.1589,0.0,0.0,0.0,1.2421,1.356,1.4371,1.4906,1.5449,1.5969,1.64,1.5906,1.6019,1.6486,1.6488,1.65,1.65,1.65,1.643,1.6338,1.6338,1.6213,1.6181,1.6924,1.7513,1.8045,1.8797,1.9371,1.9773,1.9748,1.9748,1.9497,1.8468,1.8191,1.789,1.6801,1.7792,1.8808,0.0,0.0,0.0,0.0,0.0,0.0,0.0,0.0,0.0,0.0,1.6506,1.6825,1.7697,1.8197,1.8199,1.7504,1.7803,1.8205,1.8588,1.8637,1.8997,1.9844,1.9903,2.0127,2.0595,2.0605,2.0605,2.0605,2.0605,2.0605,2.0605,2.0605,2.0605,2.0605,2.0605,2.1097,2.1952,2.1952,2.1952,2.1952,2.1952,2.1422,2.0605,2.0605,2.0605,2.0847,2.2776,2.409,2.4915,0.0,0.0,0.0,1.0918,1.0879,1.1327,1.2722,1.3726,1.4522,1.5085,1.4891,1.5018,1.5863,1.5362,1.5229,1.5865,1.5954,1.5724,1.5157,1.4957,1.4786,1.4639,1.4088,1.3858,1.4035,1.3034,1.268,1.3004,1.1969,1.1741,0.0,0.0,0.0,0.0,1.3966,1.473,1.4956,1.5856,1.6122,1.5946,1.5768,1.6019,1.65,1.65,1.6749,1.7098,1.7098,1.7212,1.7368,1.7368,1.6985,1.6716,1.7815,1.8047,1.8115,1.9206,1.966,1.9798,1.9798,1.9798,1.9635,1.892,1.8468,1.8016,1.7262,1.8079,0.0,0.0,0.0,0.0,0.0,0.0,0.0,0.0,0.0,0.0,0.0,1.6922,1.7153,1.6954,1.7587,1.7636,1.6642,1.767,1.8229,1.7843,1.8834,1.946,1.95,1.9766,2.0117,2.0595,2.0605,2.0605,2.0605,2.0605,2.0605,2.0605,2.0605,2.0605,2.0605,2.0605,2.1116,2.1989,2.1989,2.1989,2.1989,2.1989,2.1451,2.0605,2.0605,2.1126,2.1991,2.3091,2.4292,2.5468,1.1744,1.1549,1.1316,1.1305,1.1616,1.2173,1.3057,1.4323,1.5306,1.5648,1.5435,1.5571,1.6416,1.5918,1.5791,1.6441,1.65,1.635,1.6007,1.5816,1.5628,1.5477,1.5097,1.4977,1.5162,1.4252,1.3878,1.4102,1.3155,1.2813,1.3023,0.0,0.0,0.0,0.0,1.4906,1.4969,1.6034,1.6298,1.5996,1.622,1.6509,1.6848,1.7025,1.7225,1.7389,1.7324,1.7387,1.7468,1.7208,1.6937,1.6882,1.7966,1.824,1.8403,1.948,1.9798,1.9798,1.9798,1.9798,1.966,1.9133,1.887,1.8581,1.7851,1.8681,1.9459,0.0,0.0,0.0,0.0,0.0,0.0,0.0,0.0,0.0,0.0,1.769,1.7729,1.6978,1.7166,1.6943,1.5949,1.7226,1.7962,1.7634,1.8986,1.9743,1.9512,1.9919,2.021,2.0361,2.0498,2.0605,2.0605,2.0605,2.0605,2.0605,2.0605,2.0605,2.0605,2.0953,2.1612,2.2553,2.2906,2.2869,2.2534,2.2534,2.1764,2.0605,2.0605,2.1107,2.1954,2.3102,2.4646,2.6286,1.1948,1.1673,1.1489,1.1977,1.309,1.3785,1.3376,1.4651,1.5676,1.5737,1.5731,1.5932,1.6437,1.65,1.65,1.65,1.65,1.65,1.65,1.6019,1.5969,1.6486,1.5527,1.5647,1.7047,1.5613,1.5269,1.6155,1.5209,1.4681,1.4566,0.0,0.0,0.0,1.4607,0.0,1.5009,1.6057,1.6523,1.6599,1.7198,1.7437,1.7511,1.8041,1.7892,1.74,1.7219,1.7011,1.6727,1.5997,1.6071,1.6624,1.7371,1.811,1.8847,1.9579,1.9798,1.9798,1.9798,1.9823,1.9723,1.9208,1.9472,1.9572,1.8555,1.9572,2.0566,1.9962,0.0,0.0,0.0,0.0,0.0,0.0,0.0,0.0,0.0,0.0,1.8394,1.7688,1.695,1.6222,1.5526,1.6546,1.7475,1.8015,1.9116,1.981,1.9962,2.0369,2.0409,1.9986,2.038,2.0625,2.0673,2.0673,2.0692,2.0731,2.0731,2.0731,2.077,2.1669,2.2627,2.3635,2.4582,2.4427,2.3496,2.3496,2.2376,2.0654,2.0625,2.0693,2.107,2.3009,2.5276,2.7462,1.2655,1.3045,1.3268,1.2951,1.2849,1.3319,1.4833,1.5085,1.539,1.6193,1.6298,1.6348,1.6475,1.65,1.65,1.65,1.65,1.65,1.65,1.6373,1.636,1.6488,1.6235,1.6273,1.6651,1.588,1.5923,1.6848,1.59,1.5529,1.5666,0.0,0.0,0.0,0.0,1.5123,1.554,1.621,1.6762,1.7223,1.7765,1.799,1.8053,1.8594,1.8363,1.776,1.7717,1.7581,1.7279,1.6542,1.6398,1.6624,1.7371,1.811,1.8847,1.9579,1.9798,1.9798,1.9798,2.0125,2.044,2.0302,2.0377,2.0402,2.0126,2.0691,2.1144,2.0578,0.0,0.0,0.0,0.0,0.0,0.0,0.0,0.0,0.0,1.8581,1.7811,1.7619,1.695,1.6436,1.6236,1.7406,1.8349,1.878,1.9969,2.0721,2.0852,2.069,2.0686,2.0868,2.0686,2.0934,2.1621,2.165,2.2019,2.2768,2.2768,2.2768,2.2768,2.2999,2.3661,2.4636,2.4898,2.4427,2.3496,2.3496,2.2758,2.1574,2.0857,2.211,2.454,2.6272,2.7588,2.8568,1.3385,1.417,1.4769,1.4659,1.4196,1.4258,1.5517,1.584,1.6079,1.6455,1.65,1.65,1.65,1.65,1.65,1.65,1.65,1.65,1.65,1.65,1.65,1.65,1.65,1.6605,1.6848,1.6548,1.6625,1.7091,1.6519,0.0,1.6076,0.0,0.0,0.0,0.0,1.5414,1.5743,1.6559,1.7098,1.7473,1.823,1.8556,0.0,1.9146,1.889,1.821,1.7871,1.7697,1.7495,1.6751,1.6922,1.7537,1.7947,1.8595,1.9254,1.9682,1.9798,1.9861,2.0125,2.044,2.0768,2.0993,2.1218,2.1268,2.0818,2.1294,2.1694,2.1155,2.1532,2.1852,0.0,0.0,0.0,0.0,0.0,0.0,0.0,1.8541,1.7729,1.8031,1.716,1.6751,1.7399,1.8141,1.8783,1.9287,2.0497,2.1197,2.1119,2.1543,2.1701,2.1539,2.1766,2.2113,2.2646,2.2664,2.2943,2.3496,2.3496,2.3496,2.3514,2.3963,2.4463,2.5022,2.5458,2.485,2.3533,2.3963,2.3294,2.2008,2.2226,2.3999,2.6578,2.7535,2.831,2.8957,1.4302,1.5215,1.6026,1.643,1.6175,1.5897,1.5823,1.6535,1.6944,1.6552,1.65,1.65,1.65,1.65,1.65,1.65,1.65,1.65,1.65,1.65,1.65,1.65,1.65,1.671,1.7188,1.7198,1.7213,1.7233,1.7111,0.0,0.0,0.0,0.0,0.0,0.0,1.5781,1.5992,1.7047,1.7561,1.7701,1.8706,1.9108,1.9158,1.961,1.9333,1.8621,1.7963,1.7619,1.7357,1.6722,1.7426,1.8581,1.8675,1.9202,1.9798,1.9798,1.9798,1.9924,2.0541,2.0755,2.093,2.1469,2.202,2.2157,2.1218,2.1681,2.2142,2.1581,2.1475,2.1754,2.2588,0.0,0.0,0.0,0.0,0.0,1.9911,1.8669,1.7977,1.8621,1.7578,0.0,1.8581,1.8701,1.8994,1.9681,2.0774,2.1335,2.1167,2.2464,2.2878,2.219,2.3035,2.3551,2.3708,2.3708,2.3752,2.3879,2.3879,2.3879,2.3927,2.4797,2.5194,2.5247,2.6112,2.5429,2.3752,2.4636,2.3945,2.2497,2.4115,2.5923,2.758,2.7497,2.8027,2.8819,1.5967,1.6592,1.6902,1.6564,1.6788,1.6865,1.642,1.6143,1.6108,1.6448,1.65,1.65,1.65,1.65,1.65,1.65,1.65,1.65,1.65,1.65,1.65,1.65,1.65,1.6531,1.6637,1.6637,1.7066,1.792,1.7897,0.0,0.0,0.0,0.0,0.0,0.0,1.6218,1.7135,1.779,1.8329,1.877,1.9409,1.966,1.9673,1.9761,1.9333,1.8688,1.8555,1.7729,1.6666,1.6539,1.7076,1.7895,1.8514,1.9202,1.9798,1.9798,1.9798,1.9924,2.0541,2.1018,2.1495,2.2033,2.2571,2.2907,2.2719,2.2483,2.2097,2.1401,2.1383,2.1375,2.095,0.0,0.0,0.0,0.0,2.0541,2.0541,1.9375,1.8555,1.8688,1.8474,1.8421,1.8675,1.8701,1.9195,2.0426,2.0712,2.1201,2.2029,2.243,2.2775,2.3065,2.335,2.3909,2.4725,2.4737,2.5146,2.5978,2.5978,2.5978,2.5978,2.6164,2.6245,2.6245,2.6418,2.5821,2.4755,2.4933,2.4636,2.4187,2.5587,2.6734,2.7535,2.6931,2.7349,2.8292,1.7445,1.7801,1.8007,1.8144,1.8091,1.7814,1.7175,1.7025,1.6886,1.6538,1.65,1.65,1.65,1.6774,1.6974,1.6974,1.7213,1.7377,1.7377,1.7377,1.7377,1.7377,1.7377,1.7377,1.7377,1.7112,1.7222,1.7745,1.7347,1.7047,1.6788,0.0,0.0,1.6035,0.0,1.6884,1.7449,1.8267,1.8757,1.9045,1.9585,1.9798,1.976,1.9384,1.9018,1.8648,1.8273,1.7674,1.7132,1.7509,1.8126,1.8794,1.9163,1.9514,1.9861,2.0175,2.0263,2.0452,2.1306,2.1721,2.2046,2.2583,2.2907,2.3032,2.2744,2.2191,2.154,2.0924,2.0559,2.0282,2.0022,2.06,0.0,0.0,2.0226,2.0226,2.0226,1.9346,1.8834,1.9228,1.8927,1.8847,1.9228,1.9268,1.9534,2.0187,2.0515,2.1043,2.1845,2.2086,2.2775,2.4046,2.3971,2.4519,2.5769,2.5786,2.6025,2.6499,2.6499,2.6499,2.6499,2.6499,2.6499,2.6499,2.6499,2.5938,2.4987,2.4987,2.5217,2.5587,2.625,2.6713,2.6994,2.6625,2.7065,2.7876,1.8679,1.8836,1.9015,1.9603,1.9067,1.8382,1.7804,1.8054,1.7954,1.6988,1.6851,1.6851,1.6851,1.7287,1.7562,1.7562,1.7953,1.8204,1.8204,1.8204,1.8204,1.8204,1.8204,1.8204,1.8204,1.7789,1.7569,1.7578,1.6988,1.6627,1.65,0.0,0.0,0.0,1.7186,1.7525,1.7801,1.8644,1.907,1.9221,1.9622,1.9798,1.9734,1.915,1.8893,1.88,1.8394,1.8217,1.8281,1.9034,1.9424,1.9642,2.0048,2.0075,2.0113,2.0704,2.0867,2.1081,2.2046,2.2295,2.2433,2.297,2.3108,2.2957,2.242,2.1643,2.0831,2.0148,1.9523,1.9185,1.9369,2.0206,2.0679,2.0088,1.9987,1.9987,1.9987,1.938,1.915,1.9734,1.9195,1.9041,1.9734,1.9698,1.9685,1.9798,2.0238,2.0805,2.1469,2.1807,2.279,2.4575,2.4593,2.512,2.6311,2.6436,2.6499,2.6499,2.6499,2.6499,2.6499,2.6499,2.6499,2.6499,2.6499,2.606,2.5317,2.5317,2.5786,2.6499,2.6499,2.6499,2.6512,2.6625,2.6964,2.7409,1.9497,1.9603,1.9621,1.9699,1.8836,1.8151,1.8141,1.843,1.8518,1.8092,1.8041,1.8041,1.8041,1.8091,1.8129,1.8129,1.8179,1.8204,1.8204,1.8204,1.8204,1.8204,1.8204,1.8204,1.8204,1.8154,1.8131,1.8135,1.8063,1.7505,1.6517,1.6978,1.7247,1.7311,1.7361,1.794,1.8857,1.8958,1.9271,1.9736,1.9786,1.9798,1.9785,1.9721,1.9547,1.944,2.0148,2.0207,2.0084,2.0943,2.0154,1.9107,2.0799,2.1005,2.0717,2.1268,2.1432,2.1543,2.2146,2.2295,2.2433,2.297,2.3108,2.2957,2.242,2.1349,2.0124,1.8923,1.862,1.8617,1.8758,2.0241,2.1243,2.0704,2.0616,2.0616,2.0616,2.0098,1.9721,1.9785,1.9308,1.9196,1.9761,1.9371,1.9284,1.9761,1.9849,2.0364,2.1444,2.1986,2.2822,2.4042,2.4993,2.5528,2.5674,2.6235,2.6499,2.6499,2.6499,2.6499,2.6499,2.6499,2.6499,2.6499,2.6499,2.6448,2.6366,2.6366,2.6418,2.6499,2.6499,2.6499,2.6549,2.7052,2.6964,2.6738,1.9752,1.9708,2.0193,2.1764,2.0414,1.9121,1.917,1.9258,1.9309,1.9183,1.8606,1.8279,1.848,1.8606,1.8669,1.8669,1.897,1.9158,1.9158,1.9158,1.9158,1.9158,1.9158,1.9158,1.9158,1.8832,1.8677,1.8674,1.8355,1.7974,1.752,1.8104,1.8613,1.9014,1.8981,1.9201,1.9594,1.9509,1.9811,2.0352,2.0352,2.0527,2.0775,2.0327,2.0365,2.0659,2.0547,2.0723,2.1083,2.1743,2.1274,2.0509,2.1259,2.1356,2.1295,2.182,2.1983,2.2108,2.2631,2.2782,2.2832,2.3045,2.3108,2.2837,2.1866,2.0659,1.9386,1.8108,1.7907,1.7979,1.8036,1.9382,2.0414,2.0188,2.0163,2.0163,2.0163,1.9949,1.9798,1.9798,1.961,1.956,1.9786,1.961,1.9723,2.0302,1.9999,2.03,2.1444,2.1215,2.1947,2.3938,2.4222,2.4751,2.5586,2.6197,2.6499,2.6499,2.6499,2.6499,2.6499,2.6499,2.6499,2.6499,2.6499,2.6499,2.6499,2.6499,2.6499,2.6499,2.6499,2.67,2.6977,2.6864,2.7085,2.7437,1.9872,1.9708,2.0299,2.216,2.1001,1.9798,1.9798,1.9798,1.9798,1.9798,1.9145,1.8757,1.9007,1.9146,1.9246,1.9246,1.9572,1.9798,1.9798,1.9798,1.9798,1.9798,1.9798,1.9798,1.9798,1.9434,1.9158,1.9008,1.8825,1.8643,1.8482,1.9089,1.9632,2.0066,2.0022,2.0088,2.0197,2.0105,2.0402,2.093,2.093,2.1155,2.1439,2.0921,2.099,2.1323,2.1039,2.1235,2.1704,2.2335,2.2282,2.197,2.197,2.1857,2.1845,2.2383,2.2533,2.2621,2.2995,2.3108,2.3108,2.3108,2.3108,2.2728,2.1289,2.0098,1.8825,1.7152,1.7233,1.7605,1.7605,1.8808,1.9798,1.9798,1.9949,2.0062,2.0062,2.0062,2.0062,2.0062,1.9773,1.9622,1.9786,1.966,1.9977,2.0948,2.042,2.0539,2.1683,2.1154,2.1809,2.3938,2.3916,2.4443,2.5586,2.6197,2.6499,2.6499,2.6499,2.6499,2.6499,2.6499,2.6499,2.6499,2.6499,2.6499,2.6499,2.6499,2.6587,2.6738,2.6738,2.7047,2.7512,2.7236,2.7562,2.8047,1.9872,1.9708,1.9734,1.9821,1.9824,1.9798,1.9798,1.9798,1.9798,1.9798,1.9798,1.9786,1.9786,1.9798,1.9798,1.9798,1.9798,1.9798,1.9798,1.9798,1.9798,1.9798,1.9798,1.9798,1.9798,1.9798,1.9535,1.9008,1.9663,1.9666,1.9093,1.9762,2.006,1.9996,2.0009,2.0264,2.0692,2.0692,2.0993,2.1495,2.1495,2.1495,2.1507,2.1493,2.1295,2.1117,2.1978,2.2117,2.2021,2.2826,2.3095,2.3083,2.3083,2.2721,2.2395,2.2932,2.3095,2.3095,2.3108,2.3108,2.3108,2.3108,2.3108,2.2628,2.082,1.9828,1.8563,1.5967,1.6585,1.7605,1.7605,1.8808,1.9798,1.9798,2.0301,2.0679,2.0679,2.0679,2.0679,2.0679,1.9698,1.9221,1.9748,1.9321,1.9774,2.1651,2.1092,2.1169,2.2232,2.2282,2.2809,2.3966,2.4499,0.0,2.5586,2.6197,2.6499,2.6499,2.6499,2.6499,2.6499,2.6499,2.6499,2.6499,2.6499,2.6499,2.6499,2.6499,2.6813,2.7286,2.7286,2.7607,2.8147,2.8524,2.8423,2.826,2.2413,2.0964,1.9779,1.98,1.9798,1.9798,1.9798,1.9798,1.9798,1.9798,1.9798,1.9798,1.9798,1.9798,1.9798,1.9798,1.9798,1.9798,1.9798,1.9798,1.9798,1.9798,2.0188,2.0415,2.0415,2.0778,2.1123,2.1446,2.1674,2.1905,2.2182,2.2849,2.2887,2.2384,2.2427,2.2228,2.1832,2.1423,2.1543,2.2046,2.2046,2.2257,2.2596,2.2596,2.2518,2.2476,2.2742,2.278,2.2763,2.3005,2.3108,2.3108,2.3108,2.2982,2.2765,2.2396,2.2659,2.2975,2.243,2.2674,2.3108,2.3108,2.3108,2.2565,2.0524,1.8535,1.6793,1.5645,1.6574,1.7605,1.7605,1.8808,1.9924,2.0352,2.0566,2.083,2.1193,2.1257,2.1119,2.0729,2.0377,2.0062,1.9823,2.0025,2.0577,2.1601,2.1729,2.2161,2.3003,2.2571,2.2824,2.3966,2.4515,0.0,2.5586,2.6197,2.6499,2.6499,2.6499,2.6499,2.6499,2.6499,2.6499,2.6499,2.6499,2.6499,2.6524,2.6901,2.7148,2.7311,2.7454,2.7914,2.8398,2.7525,2.8077,2.9302,2.3519,2.1542,1.9798,1.9798,1.9798,1.9798,1.9798,1.9798,1.9798,1.9798,1.9798,1.9962,2.0388,2.0439,2.0376,2.0237,2.0351,2.0439,2.0439,2.0439,2.0439,2.0439,2.0791,2.1006,2.1006,2.1331,2.187,2.2604,2.3124,2.3715,2.4347,2.4502,2.4196,2.3533,2.3268,2.2857,2.2331,2.1951,2.2121,2.2594,2.2594,2.2794,2.3108,2.3108,2.3108,2.3108,2.3108,2.3108,2.3108,2.3108,2.3108,2.3108,2.3108,2.3108,2.299,2.2506,2.2491,2.2598,2.2414,2.2717,2.3108,2.3108,2.2869,2.2073,1.9905,1.7908,1.6387,1.5973,1.6798,1.7661,1.7838,1.8698,1.9674,2.0551,2.0867,2.1194,2.1733,2.1794,2.1594,2.1055,2.1006,2.0779,2.0188,2.092,2.1771,2.2616,2.2906,2.3459,2.4398,2.3487,2.3364,2.4264,2.4816,2.5372,2.5929,2.6311,2.6499,2.6499,2.6499,2.6499,2.6499,2.6499,2.6499,2.6499,2.6499,2.6612,2.6813,2.6934,2.7324,2.7826,2.7788,2.8329,2.9001,2.8077,2.8605,2.9792,2.3128,2.1547,2.0037,2.0037,1.9899,1.9798,1.9798,1.9798,1.9798,1.9798,1.9798,2.0263,2.1482,2.1606,2.1443,2.1013,2.1291,2.1507,2.1507,2.1507,2.1507,2.1507,2.1545,2.1557,2.1557,2.1581,2.1999,2.2777,2.4209,2.5162,2.5651,2.4953,2.4297,2.3619,2.2871,2.2476,2.2357,2.2357,2.2631,2.3108,2.3108,2.3133,2.3158,2.312,2.3158,2.3208,2.3133,2.3133,2.3158,2.3158,2.3133,2.3108,2.3145,2.31,2.302,2.302,2.2522,2.2125,2.2838,2.3063,2.3108,2.3108,2.2445,2.1241,1.9083,1.7868,1.7132,1.6845,1.7276,1.7865,1.8353,1.8688,1.9308,2.0515,2.1191,2.1718,2.2197,2.2328,2.2171,2.162,2.1557,2.1358,2.0873,2.194,2.3178,2.4414,2.4375,2.4836,2.607,2.4812,2.4305,2.4842,2.5347,2.5891,2.6487,2.6499,2.6499,2.6499,2.6499,2.6499,2.6499,2.6499,2.6499,2.6499,2.6537,2.6839,2.7273,2.6839,2.7449,2.8662,2.8348,2.8863,2.9792,2.9792,2.9792,2.9792,2.0842,2.1565,2.2318,2.2318,2.0915,1.9798,1.9798,1.9798,1.9798,1.9798,1.9798,2.0552,2.2521,2.2719,2.2456,2.1802,2.158,2.1507,2.1507,2.1507,2.1507,2.1507,2.1895,2.2121,2.2121,2.2508,2.3383,2.4737,2.6204,2.6716,2.6366,2.6128,2.5386,2.4199,2.3953,2.3489,2.2907,2.2907,2.2982,2.3108,2.3108,2.3371,2.3738,2.3286,2.3647,2.4274,2.3409,2.3411,2.3791,2.3791,2.3487,2.3183,2.3637,2.3047,2.2184,2.2184,2.2476,2.272,2.2307,2.2628,2.3108,2.3108,2.199,2.0504,1.894,1.7951,1.7424,1.7657,1.8248,1.8973,1.9764,2.0405,2.0853,2.0921,2.1578,2.2079,2.201,2.252,2.2706,2.2169,2.2121,2.2123,2.2151,2.2786,2.3608,0.0,2.4422,2.4634,2.5409,2.4909,2.4854,2.5398,2.5536,2.5891,2.6487,2.6499,2.6499,2.6499,2.6499,2.6499,2.6499,2.6499,2.6499,2.6512,2.6939,2.7173,2.7349,2.7939,2.8373,2.875,2.9214,2.9553,2.9792,2.9792,2.9792,2.9792,1.994,2.1592,2.3108,2.3108,2.2105,2.114,2.0652,2.099,2.1316,2.1316,2.1316,2.1768,2.297,2.3108,2.2945,2.2529,2.2345,2.2219,2.2219,2.2219,2.2219,2.2219,2.2508,2.2671,2.2671,2.2945,2.3857,2.5398,2.6549,2.6909,2.6533,2.5831,2.5094,2.4338,2.3932,2.3514,2.312,2.3384,2.3512,2.3537,2.3772,2.4076,2.4327,2.3998,2.4261,2.4729,2.4098,2.4089,2.4365,2.4365,2.4152,2.3935,2.4252,2.3843,2.322,2.322,2.2897,2.2537,2.2476,2.2778,2.2914,2.2144,2.1274,2.0202,1.8668,1.8114,1.8033,1.85,1.8549,1.8834,1.9899,1.9926,1.9938,2.0331,2.1144,2.1749,2.1883,2.2583,2.2895,2.2357,2.2843,2.3141,2.2986,2.4096,2.5017,2.5488,2.5301,2.5423,2.5986,2.548,2.531,2.5586,2.5866,2.6172,2.6499,2.6499,2.6499,2.6499,2.6499,2.6499,2.6499,2.6499,2.6499,2.6524,2.706,2.7437,2.7708,2.8411,2.89,2.9239,2.9641,2.9792,2.9792,2.9792,2.9792,2.9792,1.9798,2.1592,2.3108,2.3108,2.3108,2.2794,2.1882,2.2521,2.3108,2.3108,2.3108,2.3108,2.3108,2.3108,2.3108,2.3108,2.3108,2.3108,2.3108,2.3108,2.3108,2.3108,2.3108,2.3108,2.3108,2.3215,2.3915,2.5231,2.5973,2.6323,2.6311,2.5017,2.4424,2.438,2.3671,2.3358,2.3396,2.3901,2.4117,2.4167,2.4616,2.4854,2.4917,2.4829,2.4904,2.503,2.4867,2.4854,2.4929,2.4929,2.4879,2.48,2.4904,2.4867,2.4804,2.4804,2.364,2.2487,2.3163,2.3192,2.265,2.1012,2.0494,1.9977,1.8371,1.8221,1.8594,1.9176,1.8632,1.841,1.9598,1.8953,1.8581,1.9656,2.0569,2.1312,2.1833,2.2583,2.2977,2.2631,2.3601,2.4181,2.3901,2.546,2.6593,2.68,2.6441,2.6469,2.7128,2.6161,2.5636,2.5724,2.6235,2.6499,2.6499,2.6499,2.6499,2.6499,2.6499,2.6499,2.6499,2.6499,2.6499,2.6524,2.7148,2.767,2.8147,2.8649,2.9227,2.9792,2.9792,2.9792,2.9792,2.9792,2.9792,2.9792,1.9798,2.1592,2.3108,2.3108,2.3108,2.3045,2.2882,2.2995,2.3108,2.3108,2.3108,2.3108,2.3108,2.3108,2.3108,2.3108,2.3108,2.3108,2.3108,2.3108,2.3108,2.3108,2.3108,2.3108,2.3108,2.3767,2.4234,2.4466,2.5203,2.5563,2.5564,2.5161,2.4973,2.497,2.4677,2.454,2.4537,2.4641,2.4678,2.4678,2.4779,2.5067,2.5423,2.4967,2.5398,2.6122,2.5143,2.5093,2.5473,2.5473,2.5168,2.4879,2.5335,2.5155,2.4804,2.4804,2.4582,2.438,2.4493,2.367,2.2408,2.0948,2.0042,1.9233,1.8236,1.8044,1.8315,1.9123,1.9177,1.9344,2.0296,2.03,2.023,2.0424,2.119,2.1798,2.1893,2.2583,2.3312,2.3928,2.4167,2.4754,2.5913,2.6306,2.6993,2.8174,2.6988,2.6676,2.7791,2.6427,2.5841,2.6348,2.6449,2.6499,2.6499,2.6499,2.6499,2.6499,2.6499,2.6499,2.6499,2.6499,2.6499,2.6549,2.7562,2.8021,2.8185,2.9202,2.9691,2.9792,2.9792,2.9792,2.9792,2.9792,2.9792,2.9792,2.1467,2.2393,2.3108,2.3108,2.3108,2.3108,2.3108,2.3108,2.3108,2.3108,2.3108,2.3108,2.3108,2.3108,2.3108,2.3108,2.3108,2.3233,2.3562,2.3283,2.3108,2.3108,2.3409,2.3725,2.401,2.4777,2.5159,2.5159,2.5504,2.5667,2.5665,2.5173,2.4941,2.4938,2.4839,2.4804,2.4829,2.5105,2.5234,2.5272,2.5573,2.5866,2.6055,2.5816,2.603,2.6424,2.5904,2.5866,2.608,2.608,2.5917,2.5766,2.6005,2.5917,2.5716,2.5716,2.5285,2.4678,2.4136,2.3532,2.2634,2.1022,2.0115,1.9379,1.853,1.8157,1.8252,1.9127,1.8938,1.8871,1.9743,1.9513,1.9348,1.9814,2.0623,2.1365,2.1831,2.2583,2.3395,2.4205,2.4652,2.5315,2.6404,2.6852,2.7326,2.7864,2.6835,2.6511,2.7263,2.6219,2.5879,2.6474,2.6499,2.6499,2.6499,2.6499,2.665,2.6939,2.6939,2.7072,2.7361,2.7361,2.7361,2.7412,2.8197,2.853,2.8593,2.9453,2.9792,2.9792,2.9792,2.9792,2.9792,2.9792,2.9792,2.9792,2.2945,2.3108,2.3108,2.3108,2.3108,2.3108,2.3108,2.3108,2.3108,2.3108,2.3108,2.3296,2.3838,2.3888,2.3825,2.365,2.3637,2.3788,2.4167,2.3763,2.3496,2.3496,2.3938,2.4393,2.4791,2.5348,2.5636,2.5636,2.5636,2.5636,2.5636,2.5182,2.4992,2.4992,2.513,2.5209,2.5222,2.5624,2.5816,2.5854,2.6311,2.6499,2.6499,2.6499,2.6499,2.6499,2.6499,2.6499,2.6499,2.6499,2.6499,2.6499,2.6499,2.6499,2.6499,2.6499,2.5879,2.4946,2.3817,2.3366,2.2788,2.1047,2.0183,1.9556,1.8776,1.8371,1.8303,1.8891,1.8462,1.8202,1.8861,1.8445,1.8354,1.9431,2.0155,2.0974,2.2032,2.2705,2.3395,2.4205,2.4951,2.5743,2.6645,2.7215,2.7604,2.775,2.687,2.6504,2.6904,2.6211,2.6017,2.6491,2.6499,2.6549,2.6688,2.6688,2.6964,2.7487,2.7487,2.7695,2.8109,2.8109,2.8109,2.8134,2.8668,2.8888,2.8957,2.9553,2.9792,2.9792,2.9792,2.9792,2.9792,2.9792,2.9792,2.9792,2.3083,2.3108,2.3108,2.3108,2.3108,2.3108,2.3108,2.3108,2.3108,2.3108,2.3108,2.3901,2.6021,2.6248,2.5971,2.5292,2.5229,2.5087,2.4766,2.4704,2.4662,2.4662,2.4729,2.4766,2.4804,2.484,2.4872,2.4872,2.4872,2.4872,2.4885,2.5326,2.5536,2.5561,2.6135,2.6373,2.6373,2.6411,2.6436,2.6436,2.6474,2.6499,2.6499,2.6499,2.6499,2.6499,2.6499,2.6499,2.6499,2.6499,2.6499,2.6499,2.6499,2.6499,2.6499,2.6499,2.6436,2.6043,2.4527,2.3543,2.2541,2.0991,1.9979,1.9203,1.8713,1.8578,1.8477,1.8154,1.8042,1.8025,1.8076,1.8042,1.8546,2.022,2.0558,2.1164,2.2781,2.3063,2.3395,2.4205,2.4951,2.5924,2.7289,2.7359,2.7836,2.9059,2.7602,2.6952,2.7581,2.6875,2.6449,2.6499,2.6499,2.6738,2.7236,2.7236,2.7512,2.8047,2.8047,2.8059,2.8109,2.8109,2.8109,2.8134,2.8668,2.8888,2.8957,2.9553,2.9792,2.9792,2.9792,2.9792,2.9792,2.9792,2.9792,2.9792,2.3108,2.3108,2.3108,2.3108,2.3108,2.3108,2.3108,2.3108,2.3108,2.3108,2.4343,2.554,2.6399,2.6084,2.5707,2.5418,2.5175,2.5109,2.5285,2.531,2.531,2.531,2.531,2.5473,2.5854,2.5854,2.5854,2.5854,2.5854,2.5854,2.5854,2.6055,2.6172,2.6172,2.6399,2.6499,2.6499,2.6499,2.6499,2.6499,2.6499,2.6499,2.6499,2.6499,2.6499,2.6499,2.6499,2.6499,2.6499,2.6499,2.6499,2.6499,2.6499,2.6499,2.6499,2.6499,2.6499,2.623,2.5012,2.3994,2.2838,2.1048,2.0125,1.9639,1.9454,1.8987,1.8637,1.8779,1.8566,1.8459,1.875,1.8566,1.8939,2.0693,2.0765,2.1195,2.2869,2.3108,2.3522,2.4662,2.5041,2.5724,2.7055,2.714,2.727,2.7654,2.708,2.6762,2.6947,2.6675,2.6499,2.6499,2.6499,2.66,2.6801,2.7123,2.7557,2.8091,2.843,2.8781,2.9151,2.9151,2.9151,2.9164,2.9377,2.9465,2.9478,2.9704,2.9792,2.9792,2.9792,2.9792,2.9792,2.9792,2.9792,2.9792,2.3108,2.3108,2.3108,2.3108,2.3108,2.3108,2.3108,2.3712,2.418,2.418,2.5527,2.6499,2.6499,2.6047,2.5745,2.5745,2.5502,2.5485,2.5866,2.5879,2.5879,2.5879,2.5879,2.6067,2.6487,2.6499,2.6499,2.6499,2.6748,2.6748,2.6516,2.6765,2.6731,2.6499,2.6499,2.6587,2.6751,2.6751,2.6851,2.6997,2.6997,2.6997,2.6997,2.6997,2.6997,2.6989,2.6813,2.6864,2.6989,2.6813,2.6864,2.6959,2.6801,2.6637,2.6499,2.6499,2.6499,2.628,2.5264,2.4264,2.3091,2.1451,2.0571,2.0078,1.9923,1.9444,1.9064,1.9248,1.9035,1.8918,1.9238,1.9284,1.976,2.1223,2.1477,2.2018,2.3437,2.3634,2.3988,2.4898,2.5214,2.5777,2.6872,2.6928,2.6938,2.7012,2.6788,2.6604,2.6508,2.6499,2.6575,2.6751,2.6751,2.6839,2.6997,2.7374,2.7908,2.8637,2.9013,2.9402,2.9792,2.9792,2.9792,2.9792,2.9792,2.9792,2.9792,2.9792,2.9792,2.9792,2.9792,2.9792,2.9792,2.9792,2.9792,2.9792,2.3108,2.3108,2.3108,2.3108,2.3105,2.3133,2.3133,2.505,2.6499,2.6499,2.6499,2.6499,2.6499,2.6499,2.6499,2.6499,2.6499,2.6499,2.6499,2.6499,2.6499,2.6499,2.6499,2.6499,2.6499,2.6499,2.6499,2.6516,2.73,2.73,2.6538,2.7334,2.728,2.6516,2.6516,2.6801,2.7311,2.7311,2.7607,2.8109,2.8109,2.8109,2.8109,2.8109,2.8109,2.8034,2.7512,2.7645,2.8021,2.7487,2.7657,2.8009,2.7457,2.6952,2.6499,2.6499,2.6499,2.628,2.5282,2.4282,2.3276,2.2253,2.1298,2.0468,2.0019,1.9893,1.9795,1.9385,1.9315,1.9315,1.9315,2.0135,2.1072,2.1875,2.2841,2.3795,2.4678,2.4804,2.4804,2.4816,2.5458,2.6159,2.6842,2.6772,2.6976,2.7634,2.6956,2.6499,2.6499,2.6499,2.6751,2.7286,2.7311,2.7557,2.8109,2.8109,2.8674,2.9779,2.9792,2.9792,2.9792,2.9792,2.9792,2.9792,2.9792,2.9792,2.9792,2.9792,2.9792,2.9792,2.9792,2.9792,2.9792,2.9792,2.9792,2.9792,2.3108,2.3108,2.3108,2.3108,2.4415,2.5489,2.5489,2.6072,2.6499,2.6499,2.6499,2.6499,2.6499,2.6499,2.6499,2.6499,2.6499,2.6499,2.6499,2.6499,2.6499,2.6499,2.6499,2.6499,2.6499,2.6499,2.6782,2.7334,2.7571,2.7887,2.8263,2.7871,2.778,2.7889,2.7302,2.7361,2.7858,2.7858,2.7959,2.8109,2.8109,2.8109,2.8109,2.8109,2.8109,2.8084,2.7921,2.7959,2.8084,2.7921,2.7971,2.8084,2.7908,2.7745,2.7562,2.7173,2.7047,2.6919,2.6241,2.5323,2.4126,2.2422,2.1298,2.0566,2.042,2.0137,1.9961,2.0165,1.996,1.9824,2.0146,2.0761,2.1488,2.2351,2.3068,2.3795,2.4678,2.4804,2.4942,2.5322,2.5561,2.5928,2.6561,2.6582,2.6642,2.6841,2.6641,2.6499,2.6499,2.6864,2.7123,2.7286,2.7657,2.8122,2.8668,2.8668,2.8831,2.917,2.9603,2.9792,2.9792,2.9792,2.9792,2.9792,2.9792,2.9792,2.9792,2.9792,2.9792,2.9792,2.9792,2.9792,2.9792,2.9792,2.9792,2.9792,2.3735,2.4139,2.4443,2.4443,2.5577,2.6499,2.6499,2.6499,2.6499,2.6499,2.6499,2.6499,2.6499,2.6499,2.6499,2.6499,2.6499,2.6499,2.6499,2.6499,2.6499,2.6499,2.6499,2.6499,2.6499,2.6499,2.6888,2.7703,2.8311,2.8877,2.9393,2.9451,2.949,2.9447,2.8556,2.8477,2.8979,2.8589,2.8543,2.8775,2.8775,2.8775,2.8775,2.8775,2.8775,2.875,2.8493,2.8568,2.8737,2.8511,2.8417,2.8417,2.8417,2.8267,2.8047,2.7708,2.7607,2.7512,2.6947,2.6075,2.496,2.3541,2.217,2.1059,2.0673,2.0381,2.0263,2.0527,2.0371,2.0254,2.0556,2.149,2.2408,2.2933,2.3967,2.4869,2.5394,2.5473,2.5586,2.5917,2.5954,2.6109,2.6461,2.6499,2.6499,2.6499,2.67,2.6826,2.6826,2.7324,2.7708,2.7921,2.826,2.8681,2.9245,2.9258,2.9258,2.9258,2.9628,2.9792,2.9792,2.9792,2.9792,2.9792,2.9792,2.9792,2.9792,2.9792,2.9792,2.9792,2.9792,2.9792,2.9792,2.9792,2.9792,2.9792,2.4854,2.5791,2.6499,2.6499,2.6499,2.6499,2.6499,2.6499,2.6499,2.6499,2.6499,2.6499,2.6499,2.6555,2.6624,2.6628,2.6624,2.6632,2.667,2.6614,2.6587,2.6637,2.6637,2.6637,2.6637,2.66,2.7041,2.7981,2.9381,3.0146,3.0338,3.1611,3.1846,3.1132,3.0161,2.9985,3.0423,2.95,2.9378,2.9792,2.9792,2.9792,2.9792,2.9792,2.9792,2.9729,2.9183,2.9321,2.9716,2.917,2.8982,2.8982,2.8982,2.8643,2.8247,2.8197,2.8185,2.8059,2.7525,2.6698,2.587,2.5242,2.3692,2.2061,2.0963,2.0731,2.0692,2.0625,2.0605,2.0605,2.0605,2.2188,2.3496,2.3496,2.5187,2.6499,2.6499,2.6499,2.6499,2.6499,2.6499,2.6499,2.6499,2.6499,2.6499,2.6499,2.7002,2.7298,2.7298,2.7846,2.8392,2.8875,2.8938,2.9233,2.9779,2.9792,2.9792,2.9792,2.9792,2.9792,2.9792,2.9792,2.9792,2.9792,2.9792,2.9792,2.9792,2.9792,2.9792,2.9792,2.9792,2.9792,2.9792,2.9792,2.9792,2.9792,2.5879,2.6336,2.6499,2.6499,2.6499,2.6499,2.6499,2.6499,2.6499,2.6499,2.6499,2.6499,2.6499,2.7074,2.7508,2.7729,2.7557,2.7617,2.8034,2.7487,2.7311,2.772,2.7745,2.7745,2.7745,2.7336,2.811,3.0128,3.0452,3.136,3.2723,3.2369,3.2349,3.2606,3.1704,3.1198,3.1014,3.0792,3.0347,2.9792,2.9792,2.9792,2.9792,2.9792,2.9792,2.9779,2.9654,2.9691,2.9779,2.9641,2.9603,2.9603,2.9603,2.9528,2.934,2.8869,2.8731,2.8618,2.8084,2.7776,2.7286,2.5955,2.529,2.4401,2.2206,2.1707,2.1489,2.075,2.0605,2.0605,2.0605,2.2188,2.3496,2.3496,2.5187,2.6499,2.6499,2.6499,2.6499,2.6499,2.6499,2.6499,2.6499,2.6499,2.6499,2.6499,2.7002,2.7298,2.7298,2.821,2.8781,2.8888,2.9346,2.9666,2.9792,2.9792,2.9792,2.9792,2.9792,2.9792,2.9792,2.9792,2.9792,2.9792,2.9792,2.9792,2.9792,2.9792,2.9792,2.9792,2.9792,2.9792,2.9792,2.9792,2.9792,2.9792,2.5904,2.6298,2.6499,2.6499,2.6499,2.6499,2.6499,2.6499,2.6499,2.6499,2.6499,2.6658,2.704,2.7451,2.8043,2.8937,2.8438,2.8336,2.895,2.8167,2.7808,2.8097,2.8109,2.8217,2.848,2.8689,2.9438,3.0798,3.1122,3.2196,3.3963,3.3835,3.395,3.4191,3.3268,3.2723,3.2482,3.1591,3.0914,3.0438,2.9991,2.9792,2.9792,2.9792,2.9792,2.9792,2.9792,2.9792,2.9792,2.9792,2.9792,2.9792,2.9792,2.9792,2.9729,2.9428,2.9321,2.9214,2.8631,2.848,2.8231,2.7158,2.6699,2.5841,2.3301,2.2347,2.1868,2.1375,2.0915,2.0605,2.0605,2.2188,2.3496,2.3496,2.5187,2.6499,2.6499,2.6499,2.6499,2.6499,2.6499,2.6499,2.6499,2.6499,2.66,2.6864,2.7386,2.7795,2.8059,2.8875,2.9321,2.9321,2.9641,2.9792,2.9792,2.9792,2.9792,2.9792,2.9792,2.9792,2.9792,2.9792,2.9792,2.9792,2.9792,2.9792,2.9792,2.9792,2.9792,2.9792,2.9792,2.9792,2.9792,2.9792,2.9792,2.9792,2.5724,2.6172,2.6499,2.6499,2.6607,2.6714,2.6714,2.6833,2.6977,2.7084,2.7097,2.7334,2.7937,2.8487,2.9239,3.0271,2.9459,2.9105,2.9588,2.8756,2.8285,2.8398,2.8398,2.8673,2.9283,3.0105,3.0726,3.1115,3.1836,3.3035,3.4682,3.5235,3.5504,3.5472,3.4627,3.416,3.3893,3.2177,3.1352,3.1124,3.0177,2.9792,2.9792,2.9792,2.9792,2.9792,2.9792,2.9792,2.9792,2.9792,2.9792,2.9792,2.9792,2.9792,2.9792,2.9792,2.9792,2.9691,2.9183,2.9057,2.8919,2.8367,2.7896,2.7,2.4799,2.3368,2.2422,2.2065,2.1517,2.1049,2.0857,2.2432,2.3763,2.3763,2.5152,2.6245,2.6245,2.6094,2.606,2.6216,2.6401,2.6537,2.6625,2.6637,2.6864,2.7399,2.7934,2.843,2.8881,2.9478,2.9792,2.9792,2.9792,2.9792,2.9792,2.9792,2.9792,2.9792,2.9792,2.9792,2.9792,2.9792,2.9792,2.9792,2.9792,2.9792,2.9792,2.9792,2.9792,2.9792,2.9792,2.9792,2.9792,2.9792,2.9792,2.9792,2.6285,2.6436,2.6499,2.6499,2.7078,2.7537,2.7537,2.8182,2.8862,2.9446,2.9531,2.9452,2.9278,3.1689,3.2914,3.1911,3.099,3.0374,3.0128,2.9289,2.9019,2.9541,2.9566,2.9974,3.0857,3.1024,3.1503,3.2358,3.3259,3.4263,3.537,3.5459,3.5504,3.5488,3.5359,3.4822,3.3927,3.2873,3.1942,3.1124,3.0177,2.9792,2.9792,2.9792,2.9792,2.9792,2.9792,2.9792,2.9792,2.9792,2.9792,2.9792,2.9792,2.9792,2.9792,2.9792,2.9792,2.9779,2.9691,2.9679,2.9541,2.8944,2.8743,2.8456,2.7655,2.5985,2.409,2.2366,2.259,2.2832,2.1981,2.3452,2.4808,2.4808,2.5034,2.5211,2.5211,2.4445,2.4235,2.5093,2.5973,2.6688,2.7148,2.7185,2.7412,2.7946,2.8493,2.8831,2.8888,2.9478,2.9792,2.9792,2.9792,2.9792,2.9792,2.9792,2.9792,2.9792,2.9792,2.9792,2.9792,2.9792,2.9792,2.9792,2.9792,2.9792,2.9792,2.9792,2.9792,2.9792,2.9792,2.9792,2.9792,2.9792,2.9792,2.9792,2.6449,2.6499,2.6641,2.7078,2.7467,2.7855,2.8347,2.9084,2.952,2.9451,3.0097,3.0531,3.0461,3.2455,3.35,3.272,3.1783,3.1107,3.0776,2.9915,2.9528,2.9779,3.0298,3.0777,3.1199,3.2231,3.2978,3.338,3.3791,3.4509,3.5504,3.5504,3.5504,3.5504,3.5504,3.5246,3.4741,3.3237,3.2375,3.1852,3.0394,2.9792,2.9792,2.9792,2.9792,2.9792,2.9792,2.9792,2.9792,2.9792,2.9792,2.9792,2.9792,2.9792,2.9792,2.9792,2.9792,2.9792,2.9792,2.9792,2.9729,2.9478,2.9145,2.8844,2.8605,2.7605,2.6311,2.4867,2.4239,2.3817,2.3366,2.423,2.4987,2.4987,2.4987,2.5093,2.5306,2.5028,2.5279,2.6571,2.7119,2.7487,2.772,2.7745,2.7971,2.8505,2.8769,2.9045,2.9371,2.9654,2.9792,2.9792,2.9792,2.9792,2.9792,2.9792,2.9792,2.9792,2.9792,2.9792,2.9792,2.9792,2.9792,2.9792,2.9792,2.9792,2.9792,2.9792,2.9792,2.9792,2.9792,2.9792,2.9792,2.9792,2.9792,2.9792]}]]